[[{"header":{"parameterUnit":"m.s-1","parameterCategory":1,"la1":30.6,"la2":29.2853,"lo1":-89.7004,"lo2":-87.6739,"dy":0.0162,"dx":0.0183,"nx":112,"ny":82,"refTime":"2026-04-29T00:00:00:Z","depth":0,"parameterNumber":2,"parameterNumberName":"U-component_of_WINDS"},"data":[0.0,0.0,0.0,0.0,0.0,0.0,0.0,0.0,0.0,0.0,0.0,0.0,0.0,0.0,0.0,0.0,0.0,0.0,0.0,0.0,0.0,0.0,0.0,0.0,0.0,0.0,0.0,0.0,0.0,0.0,0.0,0.0,0.0,0.0,0.0,0.0,0.0,0.0,0.0,0.0,0.0,0.0,0.0,0.0,0.0,0.0,0.0,0.0,0.0,0.0,0.0,0.0,0.0,0.0,0.0,0.0,0.0,0.0,0.0,0.0,0.0,0.0,0.0,0.0,0.0,0.0,0.0,0.0,0.0,0.0,0.0,0.0,0.0,0.0,0.0,0.0,0.0,0.0,0.0,0.0,0.0,0.0,0.0,0.0,0.0,0.0,0.0,0.0,0.0,0.0,-3.7933,-4.0561,-4.5296,-4.7993,-4.7333,-4.7076,-4.4268,-3.808,0.0,0.0,0.0,0.0,0.0,0.0,0.0,0.0,0.0,0.0,0.0,0.0,0.0,0.0,0.0,0.0,0.0,0.0,0.0,0.0,0.0,0.0,0.0,0.0,0.0,0.0,0.0,0.0,0.0,0.0,0.0,0.0,0.0,0.0,0.0,0.0,0.0,0.0,0.0,0.0,0.0,0.0,0.0,0.0,0.0,0.0,0.0,0.0,0.0,0.0,0.0,0.0,0.0,0.0,0.0,0.0,0.0,0.0,0.0,0.0,0.0,0.0,0.0,0.0,0.0,0.0,0.0,0.0,0.0,0.0,0.0,0.0,0.0,0.0,0.0,0.0,0.0,0.0,0.0,0.0,0.0,0.0,0.0,0.0,0.0,0.0,0.0,0.0,0.0,0.0,0.0,0.0,0.0,0.0,0.0,0.0,0.0,0.0,0.0,0.0,0.0,0.0,0.0,0.0,-3.7074,-4.4232,-4.6985,-4.8269,-4.8122,-4.6874,-4.3938,-3.8836,0.0,0.0,0.0,0.0,0.0,0.0,0.0,0.0,0.0,0.0,0.0,0.0,0.0,0.0,0.0,0.0,0.0,0.0,0.0,0.0,0.0,0.0,0.0,0.0,0.0,0.0,0.0,0.0,0.0,0.0,0.0,0.0,0.0,0.0,0.0,0.0,0.0,0.0,0.0,0.0,0.0,0.0,0.0,0.0,0.0,0.0,0.0,0.0,0.0,0.0,0.0,0.0,0.0,0.0,0.0,0.0,0.0,0.0,0.0,0.0,0.0,0.0,0.0,0.0,0.0,0.0,0.0,0.0,0.0,0.0,0.0,0.0,0.0,0.0,0.0,0.0,0.0,0.0,0.0,0.0,0.0,0.0,0.0,0.0,0.0,0.0,0.0,0.0,0.0,0.0,0.0,0.0,0.0,0.0,0.0,0.0,0.0,0.0,0.0,0.0,0.0,0.0,0.0,-3.6413,-3.9533,-4.5883,-4.7609,-4.8306,-4.8306,-4.6838,-4.3828,-3.9019,-3.5973,0.0,0.0,0.0,0.0,0.0,0.0,0.0,0.0,0.0,0.0,0.0,0.0,0.0,0.0,0.0,0.0,0.0,0.0,0.0,0.0,0.0,0.0,0.0,0.0,0.0,0.0,0.0,0.0,0.0,0.0,0.0,0.0,0.0,0.0,0.0,0.0,0.0,0.0,0.0,0.0,0.0,0.0,0.0,0.0,0.0,0.0,0.0,0.0,0.0,0.0,0.0,0.0,0.0,0.0,0.0,0.0,0.0,0.0,0.0,0.0,0.0,0.0,0.0,0.0,0.0,0.0,0.0,0.0,0.0,0.0,0.0,0.0,0.0,0.0,0.0,0.0,0.0,0.0,0.0,0.0,0.0,0.0,0.0,0.0,0.0,0.0,0.0,0.0,0.0,0.0,0.0,0.0,0.0,0.0,0.0,0.0,0.0,0.0,0.0,0.0,0.0,0.0,-4.023,-4.28,-4.6672,-4.781,-4.8306,-4.8306,-4.6287,-4.324,-3.8982,-3.5092,0.0,0.0,0.0,0.0,0.0,0.0,0.0,0.0,0.0,0.0,0.0,0.0,0.0,0.0,0.0,0.0,0.0,0.0,0.0,0.0,0.0,0.0,0.0,0.0,0.0,0.0,0.0,0.0,0.0,0.0,0.0,0.0,0.0,0.0,0.0,0.0,0.0,0.0,0.0,0.0,0.0,0.0,0.0,0.0,0.0,0.0,0.0,0.0,0.0,0.0,0.0,0.0,0.0,0.0,0.0,0.0,0.0,0.0,0.0,0.0,0.0,0.0,0.0,0.0,0.0,0.0,0.0,0.0,0.0,0.0,0.0,0.0,0.0,0.0,0.0,0.0,0.0,0.0,0.0,0.0,0.0,0.0,0.0,0.0,0.0,0.0,0.0,0.0,0.0,0.0,0.0,0.0,0.0,0.0,0.0,0.0,0.0,0.0,0.0,0.0,0.0,0.0,-4.1295,-4.5883,-4.6966,-4.781,-4.8306,-4.8306,-4.4782,-4.1442,-3.8872,-3.3513,0.0,0.0,0.0,0.0,0.0,0.0,0.0,0.0,0.0,0.0,0.0,0.0,0.0,0.0,0.0,0.0,0.0,0.0,0.0,0.0,0.0,0.0,0.0,0.0,0.0,0.0,0.0,0.0,0.0,0.0,0.0,0.0,0.0,0.0,0.0,0.0,0.0,0.0,0.0,0.0,0.0,0.0,0.0,0.0,0.0,0.0,0.0,0.0,0.0,0.0,0.0,0.0,0.0,0.0,0.0,0.0,0.0,0.0,0.0,0.0,0.0,0.0,0.0,0.0,0.0,0.0,0.0,0.0,0.0,0.0,0.0,0.0,0.0,0.0,0.0,0.0,0.0,0.0,0.0,0.0,0.0,0.0,0.0,0.0,0.0,0.0,0.0,0.0,0.0,0.0,0.0,0.0,0.0,0.0,0.0,0.0,0.0,0.0,0.0,0.0,0.0,0.0,-3.9958,-4.4195,-4.748,-4.8122,-4.8122,-4.759,-4.57,-4.2433,-3.7514,0.0,0.0,0.0,0.0,0.0,0.0,0.0,0.0,0.0,0.0,0.0,0.0,0.0,0.0,0.0,0.0,0.0,0.0,0.0,0.0,0.0,0.0,0.0,0.0,0.0,0.0,0.0,0.0,0.0,0.0,0.0,0.0,0.0,0.0,0.0,0.0,0.0,0.0,0.0,0.0,0.0,0.0,0.0,0.0,0.0,0.0,0.0,0.0,0.0,0.0,0.0,0.0,0.0,0.0,0.0,0.0,0.0,0.0,0.0,0.0,0.0,0.0,0.0,0.0,0.0,0.0,0.0,0.0,0.0,0.0,0.0,0.0,0.0,0.0,0.0,0.0,0.0,0.0,0.0,0.0,0.0,0.0,0.0,0.0,0.0,0.0,0.0,0.0,0.0,0.0,0.0,0.0,0.0,0.0,0.0,0.0,0.0,0.0,0.0,0.0,0.0,0.0,-3.5789,-4.001,-4.4085,-4.7902,-4.8306,-4.8067,-4.7516,-4.559,-4.2176,-3.7,0.0,0.0,0.0,0.0,0.0,0.0,0.0,0.0,0.0,0.0,0.0,0.0,0.0,0.0,0.0,0.0,0.0,0.0,0.0,0.0,0.0,0.0,0.0,0.0,0.0,0.0,0.0,0.0,0.0,0.0,0.0,0.0,0.0,0.0,0.0,0.0,0.0,0.0,0.0,0.0,0.0,0.0,0.0,0.0,0.0,0.0,0.0,0.0,0.0,0.0,0.0,0.0,0.0,0.0,0.0,0.0,0.0,0.0,0.0,0.0,0.0,0.0,0.0,0.0,0.0,0.0,0.0,0.0,0.0,0.0,0.0,0.0,0.0,0.0,0.0,0.0,0.0,0.0,0.0,0.0,0.0,0.0,0.0,0.0,0.0,0.0,0.0,0.0,0.0,0.0,0.0,0.0,0.0,0.0,0.0,0.0,0.0,0.0,0.0,0.0,0.0,0.0,-3.6083,-4.1919,-4.6507,-4.8122,-4.8306,-4.8306,-4.8306,-4.3884,-4.0084,0.0,0.0,0.0,0.0,0.0,0.0,0.0,0.0,0.0,0.0,0.0,0.0,0.0,0.0,0.0,0.0,0.0,0.0,0.0,0.0,0.0,0.0,0.0,0.0,0.0,0.0,0.0,0.0,0.0,0.0,0.0,0.0,0.0,0.0,0.0,0.0,0.0,0.0,0.0,0.0,0.0,0.0,0.0,0.0,0.0,0.0,0.0,0.0,0.0,0.0,0.0,0.0,0.0,0.0,0.0,0.0,0.0,0.0,0.0,0.0,0.0,0.0,0.0,0.0,0.0,0.0,0.0,0.0,0.0,0.0,0.0,0.0,0.0,0.0,0.0,0.0,0.0,0.0,0.0,0.0,0.0,0.0,0.0,0.0,0.0,0.0,0.0,0.0,0.0,0.0,0.0,0.0,0.0,0.0,0.0,0.0,0.0,0.0,0.0,0.0,0.0,0.0,0.0,-3.6083,-4.1919,-4.6507,-4.8122,-4.8306,-4.8086,-4.748,-4.5095,-4.1389,-3.6068,0.0,0.0,0.0,0.0,0.0,0.0,0.0,0.0,0.0,0.0,0.0,0.0,0.0,0.0,0.0,0.0,0.0,0.0,0.0,0.0,0.0,0.0,0.0,0.0,0.0,0.0,0.0,0.0,0.0,0.0,0.0,0.0,0.0,0.0,0.0,0.0,0.0,0.0,0.0,0.0,0.0,0.0,0.0,0.0,0.0,0.0,0.0,0.0,0.0,0.0,0.0,0.0,0.0,0.0,0.0,0.0,0.0,0.0,0.0,0.0,0.0,0.0,0.0,0.0,0.0,0.0,0.0,0.0,0.0,0.0,0.0,0.0,0.0,0.0,0.0,0.0,0.0,0.0,0.0,0.0,0.0,0.0,0.0,0.0,0.0,0.0,0.0,0.0,0.0,0.0,0.0,0.0,0.0,0.0,0.0,0.0,0.0,0.0,0.0,0.0,0.0,0.0,-3.6083,-4.1919,-4.6507,-4.8122,-4.8306,-4.8122,-4.7626,-4.5792,-4.2196,-3.6376,0.0,0.0,0.0,0.0,0.0,0.0,0.0,0.0,0.0,0.0,0.0,0.0,0.0,0.0,0.0,0.0,0.0,0.0,0.0,0.0,0.0,0.0,0.0,0.0,0.0,0.0,0.0,0.0,0.0,0.0,0.0,0.0,0.0,0.0,0.0,0.0,0.0,0.0,0.0,0.0,0.0,0.0,0.0,0.0,0.0,0.0,0.0,0.0,0.0,0.0,0.0,0.0,0.0,0.0,0.0,0.0,0.0,0.0,0.0,0.0,0.0,0.0,0.0,0.0,0.0,0.0,0.0,0.0,0.0,0.0,0.0,0.0,0.0,0.0,0.0,0.0,0.0,0.0,0.0,0.0,0.0,0.0,0.0,0.0,0.0,0.0,0.0,0.0,0.0,0.0,0.0,0.0,0.0,0.0,0.0,0.0,0.0,0.0,0.0,0.0,0.0,0.0,-3.6193,-4.1956,-4.6507,-4.8122,-4.8306,-4.8306,-4.8306,-4.6104,-4.269,-3.7896,0.0,0.0,0.0,0.0,0.0,0.0,0.0,0.0,0.0,0.0,0.0,0.0,0.0,0.0,0.0,0.0,0.0,0.0,0.0,0.0,0.0,0.0,0.0,0.0,0.0,0.0,0.0,0.0,0.0,0.0,0.0,0.0,0.0,0.0,0.0,0.0,0.0,0.0,0.0,0.0,0.0,0.0,0.0,0.0,0.0,0.0,0.0,0.0,0.0,0.0,0.0,0.0,0.0,0.0,0.0,0.0,0.0,0.0,0.0,0.0,-3.2612,0.0,0.0,0.0,0.0,0.0,0.0,0.0,0.0,0.0,0.0,0.0,0.0,0.0,0.0,0.0,0.0,0.0,0.0,0.0,0.0,0.0,0.0,0.0,0.0,0.0,0.0,0.0,0.0,0.0,0.0,0.0,0.0,0.0,0.0,0.0,0.0,0.0,0.0,0.0,0.0,0.0,-3.6942,-4.2286,-4.6507,-4.8122,-4.8306,-4.8306,-4.8306,-4.6104,-4.291,-3.8726,-3.4747,0.0,0.0,0.0,0.0,0.0,0.0,0.0,0.0,0.0,0.0,0.0,0.0,0.0,0.0,0.0,0.0,0.0,0.0,0.0,0.0,0.0,0.0,0.0,0.0,0.0,0.0,0.0,0.0,0.0,0.0,0.0,0.0,0.0,0.0,0.0,0.0,0.0,0.0,0.0,0.0,0.0,0.0,0.0,0.0,0.0,0.0,0.0,0.0,0.0,0.0,0.0,0.0,0.0,0.0,0.0,0.0,0.0,0.0,0.0,0.0,-3.5433,0.0,0.0,0.0,0.0,0.0,0.0,0.0,0.0,0.0,0.0,0.0,0.0,0.0,0.0,0.0,0.0,0.0,0.0,0.0,0.0,0.0,0.0,0.0,0.0,0.0,0.0,0.0,0.0,0.0,0.0,0.0,0.0,0.0,0.0,0.0,0.0,0.0,0.0,0.0,0.0,-3.7199,-4.2413,-4.6507,-4.8122,-4.8306,-4.8159,-4.7736,-4.6214,-4.3571,-3.9533,-3.6193,0.0,0.0,0.0,0.0,0.0,0.0,0.0,0.0,0.0,0.0,0.0,0.0,0.0,0.0,0.0,0.0,0.0,0.0,0.0,0.0,0.0,0.0,0.0,0.0,0.0,0.0,0.0,0.0,0.0,0.0,0.0,0.0,0.0,0.0,0.0,0.0,0.0,0.0,0.0,0.0,0.0,0.0,0.0,0.0,0.0,0.0,0.0,0.0,0.0,0.0,0.0,0.0,0.0,-4.1027,-4.1779,-4.1685,-4.3064,-4.391,-4.4187,-4.1305,-4.0177,-4.0291,-3.8002,0.0,0.0,0.0,0.0,0.0,0.0,0.0,0.0,0.0,0.0,0.0,0.0,0.0,0.0,0.0,0.0,0.0,0.0,0.0,0.0,0.0,0.0,0.0,0.0,-3.9605,-3.9082,-3.3716,0.0,0.0,0.0,0.0,0.0,0.0,0.0,0.0,0.0,0.0,0.0,-3.7771,-4.269,-4.6507,-4.8122,-4.8306,-4.7957,-4.7186,-4.6361,-4.4305,-4.0561,-3.8065,-3.4724,0.0,0.0,0.0,0.0,0.0,0.0,0.0,0.0,0.0,0.0,0.0,0.0,0.0,0.0,0.0,0.0,0.0,0.0,0.0,0.0,0.0,0.0,0.0,0.0,0.0,0.0,0.0,0.0,0.0,0.0,0.0,0.0,-2.5779,-2.8098,0.0,0.0,0.0,0.0,0.0,0.0,0.0,0.0,0.0,0.0,0.0,0.0,0.0,-3.887,-4.0858,-4.2704,-4.3965,-4.4722,-4.7462,-4.8443,-4.7868,-4.868,-4.8781,-4.8274,-4.8409,0.0,-4.3749,-4.1485,0.0,0.0,0.0,0.0,0.0,0.0,0.0,0.0,0.0,0.0,0.0,0.0,0.0,0.0,0.0,0.0,0.0,0.0,0.0,0.0,0.0,0.0,-4.4558,-4.3274,-4.2691,-4.1907,0.0,-3.6271,-3.2669,-3.0653,-2.8848,0.0,0.0,0.0,0.0,0.0,0.0,0.0,-4.0072,-4.3718,-4.6507,-4.8122,-4.8306,-4.7957,-4.7186,-4.6361,-4.4782,-4.2139,-3.9717,-3.7132,-3.4307,-3.0748,0.0,0.0,0.0,0.0,0.0,0.0,0.0,0.0,0.0,0.0,0.0,0.0,0.0,0.0,0.0,0.0,0.0,0.0,0.0,0.0,0.0,0.0,0.0,0.0,0.0,0.0,0.0,0.0,0.0,-2.5429,-2.8603,-2.9562,-3.0257,-3.002,0.0,0.0,0.0,0.0,0.0,0.0,0.0,0.0,0.0,-4.1301,-4.2115,-4.3394,-4.5261,-4.6869,-4.7834,-4.8173,-4.9898,-5.0541,-5.027,-5.0574,-5.0777,-5.0845,-5.0777,-5.0033,-4.868,-4.5602,-4.2596,-3.9866,0.0,0.0,0.0,0.0,-3.8895,-3.8925,-4.1464,-4.155,-4.0406,-3.9585,0.0,0.0,0.0,0.0,0.0,0.0,0.0,0.0,0.0,0.0,-4.489,-4.5106,-4.472,-4.4056,-4.3107,-4.0526,-3.7293,0.0,-3.2867,-3.1654,-2.8116,0.0,0.0,0.0,0.0,-3.7713,-4.1319,-4.4599,-4.7021,-4.8196,-4.7883,-4.7296,-4.6507,-4.57,-4.4378,-4.2433,-4.0451,-3.8469,-3.6486,-3.2949,-3.0051,0.0,0.0,0.0,0.0,0.0,0.0,0.0,0.0,0.0,0.0,0.0,0.0,0.0,0.0,0.0,0.0,0.0,0.0,0.0,0.0,0.0,0.0,0.0,0.0,0.0,0.0,0.0,0.0,-2.8795,-3.1269,-3.1281,-3.2911,-3.3125,0.0,0.0,0.0,0.0,0.0,0.0,-3.892,-4.0373,-4.2466,-4.5275,-4.6311,-4.7462,-4.8717,-5.0033,-5.0642,-5.0676,-5.1454,-5.1792,-5.1792,-5.1792,-5.2097,-5.257,-5.2029,-5.1995,-5.2063,-4.8917,-4.5872,-4.3125,-4.2561,-4.1636,-4.0816,-4.2543,-4.2819,-4.2753,-4.5949,-4.6247,-4.5032,-4.3547,-4.2695,-4.1669,-3.8648,0.0,0.0,0.0,0.0,-4.0246,-4.2837,-4.3992,-4.477,-4.5975,-4.5738,-4.5129,-4.457,-4.3465,-4.1305,0.0,-3.6863,-3.5881,-3.1283,0.0,0.0,0.0,-3.5849,-3.9444,-4.2512,-4.5351,-4.7333,-4.792,-4.7443,-4.6672,-4.5663,-4.5039,-4.4011,-4.2396,-4.0965,-3.957,-3.8153,-3.4981,-3.2252,-3.0271,0.0,0.0,0.0,0.0,0.0,0.0,0.0,0.0,0.0,0.0,0.0,0.0,0.0,0.0,0.0,0.0,0.0,0.0,0.0,0.0,0.0,0.0,0.0,0.0,0.0,0.0,0.0,0.0,0.0,-3.4171,-3.6452,0.0,0.0,0.0,0.0,-3.5799,-3.8023,-4.0162,-4.1985,-4.4202,-4.6443,-4.8677,-4.9489,-5.0236,-5.1016,-5.1792,-5.2198,-5.2198,-5.301,-5.3382,-5.3382,-5.3382,-5.3416,-5.345,-5.3416,-5.2976,-5.2198,-5.0574,-4.939,-4.8477,-4.7052,-4.6418,-4.6152,-4.494,-4.5336,-4.6334,-4.5908,-4.661,-4.7568,-4.7371,-4.6025,-4.4509,-4.4289,-4.3133,0.0,0.0,-4.4268,-4.57,-4.6599,-4.6591,-4.6295,-4.6366,-4.552,-4.4637,-4.4603,-4.3938,-4.2834,0.0,-3.9783,-3.8352,-3.6649,0.0,-3.572,-3.68,-3.8498,-4.0826,-4.4162,-4.6049,-4.7113,-4.7149,-4.7113,-4.6452,-4.4874,-4.4728,-4.4011,-4.2396,-4.1515,-4.0671,-3.979,-3.6619,-3.4454,-3.3587,-2.833,0.0,0.0,0.0,0.0,0.0,0.0,0.0,0.0,0.0,0.0,0.0,0.0,0.0,0.0,0.0,0.0,0.0,0.0,0.0,0.0,0.0,0.0,0.0,0.0,0.0,0.0,0.0,0.0,-3.7159,-3.9155,0.0,-3.6922,-3.8504,-3.9813,-4.0075,-4.266,-4.4924,-4.6515,-4.7834,-4.9323,-5.1082,-5.1386,-5.1894,-5.2672,-5.3416,-5.3788,-5.3788,-5.4566,-5.4938,-5.4905,-5.4431,-5.4194,-5.416,-5.3721,-5.3613,-5.3754,-5.3204,-5.1997,-5.0504,-5.0397,-5.0109,-4.9581,-4.9048,-4.917,-4.9486,-4.8743,-4.9055,-4.9781,-4.9689,-4.8545,-4.7195,-4.7055,-4.6232,-4.537,-4.5287,-4.5662,-4.6279,-4.7098,-4.6851,-4.6507,-4.6955,-4.6088,-4.5267,-4.5673,-4.5234,-4.4708,-4.455,-4.3044,-4.1287,-3.9699,-4.0009,-4.0348,-4.0181,-4.1931,-4.3966,-4.5993,-4.6746,-4.7113,-4.7113,-4.6159,-4.5315,-4.4728,-4.3754,-4.291,-4.2323,-4.0561,-3.9423,-3.9129,-3.6472,-3.438,-3.306,-2.9909,-2.6763,0.0,0.0,0.0,0.0,0.0,0.0,0.0,0.0,0.0,0.0,0.0,0.0,0.0,0.0,0.0,0.0,0.0,0.0,0.0,0.0,0.0,0.0,0.0,0.0,0.0,0.0,-3.8582,-3.9742,-4.169,-4.2195,-4.0312,-4.1987,-4.3473,-4.4141,-4.6278,-4.8071,-4.9323,-5.0304,-5.1285,-5.2266,-5.257,-5.3078,-5.3856,-5.4363,-5.4702,-5.4972,-5.548,-5.5681,-5.5647,-5.5209,-5.4837,-5.4601,-5.4329,-5.4379,-5.4668,-5.5179,-5.4499,-5.3211,-5.3139,-5.3015,-5.2723,-5.218,-5.1957,-5.18,-5.0973,-5.0784,-5.0941,-5.113,-5.0336,-4.9268,-4.8869,-4.8379,-4.775,-4.6845,-4.6627,-4.6672,-4.7002,-4.6589,-4.6209,-4.6659,-4.6112,-4.5597,-4.6014,-4.594,-4.5915,-4.6318,-4.5268,-4.3945,-4.2626,-4.3202,-4.3515,-4.2589,-4.4239,-4.5754,-4.6213,-4.6746,-4.6892,-4.6342,-4.5351,-4.4599,-4.4305,-4.2837,-4.1919,-4.1919,-3.9643,-3.8285,-3.8285,-3.5899,-3.4087,-3.3036,-3.0186,-2.7261,-2.433,0.0,0.0,0.0,0.0,0.0,0.0,0.0,0.0,0.0,0.0,0.0,0.0,0.0,0.0,0.0,0.0,0.0,0.0,0.0,0.0,0.0,0.0,0.0,-3.6179,-3.9295,-4.1554,-4.1867,-4.4034,-4.4973,-4.3627,-4.4925,-4.6413,-4.7804,-4.868,-4.9424,-5.0135,-5.1555,-5.2334,-5.2334,-5.3112,-5.389,-5.4566,-5.4634,-5.504,-5.5715,-5.5784,-5.5749,-5.5749,-5.575,-5.5344,-5.4703,-5.54,-5.5299,-5.4787,-5.6259,-5.6912,-5.6814,-5.5294,-5.5142,-5.5599,-5.4144,-5.3453,-5.3159,-5.2401,-5.1584,-5.1026,-5.1767,-5.1479,-5.0692,-4.9904,-4.9647,-4.9308,-4.7844,-4.7442,-4.7255,-4.6553,-4.5965,-4.552,-4.5545,-4.552,-4.5494,-4.5545,-4.6014,-4.6389,-4.6413,-4.6436,-4.6247,-4.5491,-4.5372,-4.5076,-4.4189,-4.5337,0.0,-4.4894,-4.6085,-4.6415,-4.4874,-4.4654,-4.4342,-4.3588,-4.2029,-4.1095,-4.1058,-3.8799,-3.7456,-3.7419,-3.5105,-3.377,-3.3733,-2.9206,-2.5972,-2.4098,0.0,0.0,0.0,0.0,0.0,0.0,0.0,0.0,0.0,0.0,0.0,0.0,0.0,0.0,0.0,0.0,0.0,0.0,0.0,0.0,0.0,-3.5199,-3.7718,-3.8125,-4.0273,-4.2428,-4.4178,-4.5135,-4.5694,-4.5867,-4.7225,-4.8274,-4.868,-5.0371,-5.1488,-5.1691,-5.2638,-5.3179,-5.3179,-5.389,-5.4397,-5.46,-5.5649,-5.6292,-5.6494,-5.7036,-5.7306,-5.7273,-5.6731,-5.6404,-5.6157,-5.5833,-5.5909,-5.6286,-5.6757,-5.7227,-5.7642,-5.7243,-5.7194,-5.724,-5.6259,-5.4494,-5.261,-5.287,-5.2148,-5.1173,-5.1834,-5.1894,-5.161,-5.1389,-5.0528,-4.9418,-4.8532,-4.7854,-4.7255,-4.6553,-4.627,-4.6281,-4.6774,-4.6161,-4.5775,-4.6682,-4.6635,-4.653,-4.7021,-4.7491,-4.7565,-4.691,-4.7187,-4.7385,-4.7141,-4.6959,0.0,-4.647,-4.5792,-4.5168,-4.4728,-4.4195,-4.3718,-4.3515,-4.2029,-4.0838,-4.0267,-3.7955,-3.634,-3.5701,-3.4468,-3.3256,-3.2082,-2.9995,-2.8098,0.0,0.0,0.0,0.0,0.0,0.0,0.0,0.0,0.0,0.0,0.0,0.0,0.0,0.0,0.0,0.0,0.0,0.0,0.0,0.0,0.0,0.0,-3.851,-4.0689,-4.1117,-4.2428,-4.4129,-4.6116,-4.651,-4.7022,-4.8071,-4.8951,-4.9729,-5.0338,-5.1589,-5.2469,-5.2773,-5.3247,-5.3518,-5.3518,-5.4228,-5.4735,-5.5074,-5.6224,-5.6968,-5.7273,-5.7679,-5.8065,-5.8389,-5.7978,-5.7634,-5.7332,-5.7243,-5.7071,-5.6912,-5.7216,-5.7631,0.0,0.0,0.0,0.0,0.0,-5.5305,-5.3289,-5.3639,-5.2798,-5.1618,-5.2335,-5.2543,-5.2454,-5.2087,-5.0916,-4.9492,-4.8506,-4.7426,-4.6448,-4.579,-4.5648,-4.5749,-4.6112,-4.5875,-4.5775,-4.6774,-4.691,-4.6932,-4.732,-4.7879,0.0,-4.7491,-4.7879,-4.8086,-4.7388,-4.7186,-4.6746,-4.5736,-4.5076,-4.4544,-4.4232,-4.3791,-4.3515,-4.3515,-4.1735,0.0,0.0,0.0,-3.5224,-3.405,-3.3537,0.0,0.0,0.0,0.0,0.0,0.0,0.0,0.0,-2.6077,-2.5929,0.0,0.0,0.0,0.0,0.0,0.0,0.0,0.0,0.0,0.0,0.0,0.0,0.0,0.0,0.0,0.0,-4.1416,-4.3418,-4.442,-4.5165,-4.6079,-4.7451,-4.7778,-4.8477,-4.9965,-5.0168,-5.0811,-5.2198,-5.2367,-5.2739,-5.345,0.0,0.0,0.0,0.0,-5.504,-5.5681,-5.6528,-5.7239,-5.7881,-5.7881,-5.8317,-5.9111,-5.9008,-5.8663,-5.8272,-5.8816,-5.831,-5.7065,-5.7726,-5.7997,-5.7997,-5.7997,-5.795,-5.7794,-5.7075,-5.5776,-5.4359,-5.4292,0.0,0.0,-5.285,-5.3124,-5.3078,-5.2344,-5.1034,-4.9519,-4.8306,-4.6804,-4.5442,-4.4852,-4.4692,-4.4692,-4.4692,-4.5062,-4.5571,-4.6246,-4.6864,-4.732,-4.7385,-4.7879,-4.8114,-4.7575,-4.7955,-4.7792,-4.625,-4.6562,-4.6159,-4.3901,-4.4195,-4.4305,-4.3588,0.0,0.0,-4.3515,-4.1458,-4.0414,-4.0912,-3.7316,-3.4491,-3.306,-3.3023,-3.2632,-3.1837,-3.2329,-3.285,-3.34,-3.3404,-3.3384,-3.3261,-2.9229,-2.8416,0.0,0.0,0.0,0.0,0.0,0.0,0.0,0.0,0.0,0.0,0.0,0.0,0.0,0.0,0.0,-4.1556,-4.3508,-4.507,-4.6031,-4.6371,-4.6651,-4.6922,-4.7518,-4.8477,-4.9965,-5.0642,-5.1352,-5.2232,-5.2909,-5.3348,-5.3484,-5.3518,-5.3518,-5.3518,-5.4803,-5.5581,-5.5681,-5.7036,-5.7746,-5.7881,0.0,0.0,-5.9111,-5.8421,-5.8421,-5.897,-5.8466,-5.8061,-5.7797,-5.795,-5.7997,-5.7997,-5.7997,-5.7655,-5.7091,-5.6946,-5.5151,-5.2895,-5.3407,-5.2569,-5.1393,-5.2089,-5.2725,-5.3167,-5.3041,-5.1486,0.0,-4.946,-4.7843,-4.6088,-4.5468,-4.532,-4.532,-4.532,-4.5035,-4.5062,-4.615,-4.6483,-4.6774,-4.7299,-4.7879,-4.8267,-4.8134,-4.8229,-4.7957,-4.7003,-4.6471,-4.5736,-4.4599,-4.4048,-4.3644,-4.3515,-4.3515,-4.3515,-4.3515,-4.247,-4.1332,-4.0194,-3.7551,-3.5899,-3.5605,-3.5569,-3.5202,-3.4307,-3.5072,-3.5213,-3.4635,-3.4966,-3.5117,-3.5048,-3.2426,-3.1447,0.0,0.0,0.0,0.0,0.0,0.0,0.0,0.0,0.0,0.0,0.0,-3.5312,-3.8138,0.0,-4.2774,-4.4177,-4.5191,-4.5974,-4.6508,-4.6731,-4.6921,-4.7327,-4.8003,-4.9052,-5.0507,-5.098,-5.1691,-5.2807,-5.3281,-5.3518,-5.3518,-5.3518,-5.3518,-5.3518,-5.4938,-5.5681,-5.5681,-5.7171,-5.7881,-5.7881,-5.8317,-5.8943,-5.9733,-5.9338,-5.9388,-5.9754,-5.8953,-5.8385,-5.7997,-5.7997,-5.7997,-5.7997,-5.7997,-5.7774,-5.7401,-5.704,-5.5453,-5.362,-5.4295,-5.3253,-5.1692,-5.2404,-5.2915,-5.3203,-5.3203,-5.1651,-4.9818,-4.9447,-4.7763,-4.5909,-4.5218,-4.5035,-4.5035,-4.5035,-4.5035,-4.5294,-4.6174,-4.6646,-4.7088,-4.7736,-4.8094,-4.8082,-4.7408,-4.7296,-4.7119,-4.658,-4.581,-4.5002,-4.4195,-4.3754,-4.3515,-4.3515,-4.3515,-4.3515,-4.3515,-4.2763,-4.1442,-3.9423,-3.8175,-3.7147,-3.634,-3.6303,-3.6083,-3.5679,-3.645,-3.6684,-3.6266,-3.6604,-3.6772,-3.6702,-3.5395,-3.4412,0.0,0.0,0.0,0.0,0.0,0.0,0.0,0.0,-3.355,-3.6105,-3.7845,-3.9717,-4.2506,-4.4195,-4.5405,-4.611,-4.6466,-4.6653,-4.6635,-4.6857,-4.7293,-4.8037,-4.8646,-4.9526,-5.0879,-5.115,-5.1792,-5.3179,-5.3416,-5.3518,-5.3518,-5.3518,-5.3518,-5.3518,-5.4938,-5.5681,-5.5681,-5.7171,-5.7991,-5.8137,-5.8772,-5.9639,-6.0605,-6.0288,-6.0243,-6.0346,-5.9368,-5.8621,-5.7997,-5.7997,-5.7997,-5.7997,-5.7821,-5.7844,-5.7927,-5.7166,-5.5749,-5.4306,-5.5093,-5.3839,-5.2042,-5.2915,-5.3203,-5.3167,-5.3039,-5.1584,-4.9801,-4.8922,-4.7261,-4.5534,-4.4818,-4.4615,-4.4615,-4.4615,-4.4988,-4.552,-4.6222,-4.6842,-4.7428,-4.8153,-4.8196,-4.7694,-4.6642,-4.6101,-4.5707,-4.5384,-4.4765,-4.4127,-4.3431,-4.3339,-4.3374,-4.3497,-4.3515,-4.3515,-4.3515,-4.2763,-4.1479,-3.9533,-3.9239,-3.8505,-3.7074,-3.7,-3.6927,-3.678,-3.7404,-3.7749,-3.7749,-3.8101,-3.8282,-3.8282,-3.7953,-3.7113,-2.8656,-2.906,-3.0136,-3.1445,-3.1995,-3.3683,0.0,0.0,-3.8762,-4.1882,-4.3277,-4.4232,-4.5296,-4.625,-4.6713,-4.642,-4.7003,-4.7321,-4.6834,-4.7352,-4.8071,-4.8781,-4.8951,-4.9323,-5.0135,-5.0845,-5.1555,-5.2367,-5.3112,-5.3518,-5.3518,-5.3518,-5.3518,-5.3518,-5.4938,-5.5681,-5.5681,-5.7171,-5.8246,-5.8977,-5.9044,-5.9925,-6.142,-5.9998,-5.9735,-6.0309,-5.8804,-5.807,-5.7997,-5.7997,-5.7997,-5.795,-5.7302,-5.7425,-5.7927,-5.7166,-5.507,-5.2844,-5.4143,-5.3128,-5.1419,-5.2783,-5.3203,-5.3082,-5.2404,-5.1179,-4.97,-4.8303,-4.6859,-4.5534,-4.4818,-4.4615,-4.4615,-4.4615,-4.4637,-4.5008,-4.6161,-4.6436,-4.6887,-4.8075,-4.77,-4.7204,-4.7056,-4.545,-4.4,-4.3408,-4.3252,-4.3099,-4.2821,-4.277,-4.2958,-4.3463,-4.3515,-4.3515,-4.3515,-4.2763,-4.2176,-4.1919,-4.1222,-4.0451,-3.9533,-3.9512,-3.9166,-3.8469,-3.8505,-3.8579,-3.8579,-3.9302,-3.969,-3.9674,-3.9857,-3.9262,-3.322,-3.3133,-3.339,-3.5055,-3.6523,-3.827,-4.1001,-4.1552,-4.2139,-4.4415,-4.5553,-4.6342,-4.7168,-4.7572,-4.7748,0.0,-4.7881,-4.7974,-4.7378,-4.7942,-4.8266,-4.7785,-4.8051,-4.8753,-4.9994,-5.0777,-5.1522,-5.2232,-5.3044,-5.3518,-5.3518,-5.3913,-5.4151,-5.4161,-5.5587,-5.6338,-5.6359,-5.784,-5.8772,-5.9111,-6.0113,-6.0902,-6.1559,-6.0441,-5.9566,-5.8951,-5.829,-5.7997,-5.7997,-5.7997,-5.7997,-5.7973,-5.7679,-5.7726,-5.7927,-5.7166,-5.5764,-5.4345,-5.4953,-5.3899,-5.2417,-5.3017,-5.3203,-5.306,-5.2335,-5.1106,-4.9674,-4.8232,-4.6803,-4.5534,-4.4818,-4.4615,-4.4615,-4.4615,-4.5142,-4.566,-4.5705,-4.6297,-4.6839,-4.6891,-4.6617,-4.6158,-4.5362,-4.4201,-4.3017,-4.1946,-4.2356,-4.2817,-4.2691,-4.2958,-4.325,-4.348,-4.3515,-4.3515,-4.3515,-4.3167,-4.28,-4.2323,-4.1992,-4.1442,-4.0634,-4.0598,-4.0451,-4.0104,-4.0104,-4.0104,-4.0104,-4.0451,-4.0598,-4.0581,-4.071,-4.0546,-3.5495,-3.5826,-3.6399,-3.8065,-4.0304,-4.2196,-4.2636,-4.3681,-4.4892,-4.6287,-4.7021,-4.759,-4.8196,-4.8306,-4.8248,-4.8075,-4.8508,-4.8605,-4.77,-4.8477,-4.8678,-4.7464,-4.7699,-4.8536,-4.9919,-5.0385,-5.098,-5.1928,-5.2936,-5.3513,-5.3484,-5.42,-5.4608,-5.4601,-5.5824,-5.6577,-5.6799,-5.8117,-5.8875,-5.9111,-6.0575,-6.1407,-6.1559,-6.0758,-5.9538,-5.7997,-5.7997,-5.7997,-5.7997,-5.7997,-5.7997,-5.7997,-5.7997,-5.7997,-5.789,-5.6949,-5.6079,-5.5336,-5.553,-5.44,-5.2937,-5.3124,-5.3203,-5.3039,-5.2089,-5.0959,-4.9649,-4.7989,-4.6641,-4.5534,-4.4818,-4.4615,-4.4637,-4.4831,-4.552,-4.6046,-4.5559,-4.6194,-4.6649,-4.603,-4.559,-4.5038,-4.4055,-4.3102,-4.2061,-4.1059,-4.1625,-4.2262,-4.2422,-4.3051,-4.3515,-4.3515,-4.3515,-4.3515,-4.3515,-4.3515,-4.324,-4.2653,-4.2616,-4.2286,-4.1462,-4.1425,-4.1315,-4.1095,-4.1095,-4.1095,-4.1095,-4.1315,-4.1425,-4.1425,-4.1645,-4.1773,-3.4064,-3.6193,-3.8982,-4.0581,-4.282,-4.4984,-4.6562,-4.6966,-4.7223,-4.8086,-4.8269,-4.8269,-4.8306,-4.8306,-4.8094,-4.7512,-4.8684,-4.9193,-4.7771,-4.8912,-4.9558,-4.8731,-4.866,-4.9003,-4.9851,-4.9407,-4.9661,-5.115,-5.2626,-5.3507,-5.3484,-5.42,-5.4608,-5.4601,-5.5345,-5.6055,-5.6799,-5.7546,-5.8317,-5.9111,-6.0023,-6.0849,-6.1559,-6.0758,-5.9538,-5.7997,-5.7997,-5.7997,-5.7997,-5.7997,-5.7997,-5.7997,-5.7997,-5.7997,-5.7817,-5.6345,-5.5327,-5.4713,-5.5359,-5.4082,-5.2229,-5.2959,-5.3203,-5.2937,-5.1579,-5.0606,-4.9581,-4.7449,-4.6307,-4.5534,-4.4818,-4.4615,-4.4748,-4.5346,-4.5494,-4.5666,-4.6076,-4.6209,-4.6178,-4.5938,-4.4853,-4.396,-4.3924,-4.2277,-4.0943,-4.092,-4.0909,-4.1161,-4.1768,-4.281,-4.3515,-4.3515,-4.3515,-4.3515,-4.3515,-4.3515,-4.3515,-4.3478,-4.3478,-4.3094,-4.2286,-4.2249,-4.1919,-4.1132,-4.1095,-4.1095,-4.1095,-4.1882,-4.2249,-4.2286,-4.3057,-4.3141,-3.7331,-3.9423,-4.1589,-4.3754,-4.5278,-4.6562,-4.7626,-4.7883,-4.781,-4.7553,-4.748,-4.7333,-4.6801,-4.7131,-4.7423,-4.7212,-4.9017,-4.974,-4.7743,-4.9244,-4.9577,-4.6905,-4.7392,-4.8101,-4.8461,-4.9602,0.0,-5.2561,-5.3596,-5.4402,-5.4934,-5.5173,-5.5348,-5.5333,-5.6023,-5.6543,-5.6799,-5.8082,-5.884,-5.9111,-6.0514,-6.1063,-6.077,-6.0543,-5.9538,-5.7997,-5.7997,-5.7997,-5.7997,-5.7997,-5.7997,-5.7997,-5.7997,-5.7997,-5.7863,-5.6812,-5.5667,-5.4568,-5.4205,-5.3204,-5.2206,-5.2959,-5.2893,-5.2312,-5.1368,-4.9916,-4.8309,-4.714,-4.5906,-4.4891,-4.4682,-4.4615,-4.4748,-4.5372,-4.579,-4.5976,-4.5501,-4.5698,-4.568,-4.4544,-4.3924,-4.3634,-4.3634,-4.2779,-4.2083,-4.2083,-4.1768,-4.1725,-4.2322,-4.3032,-4.3515,-4.3515,-4.3515,-4.3515,-4.3515,-4.3515,-4.3515,-4.3515,-4.3515,-4.3404,-4.3094,-4.3094,-4.2947,-4.269,-4.269,-4.269,-4.269,-4.2947,-4.3094,-4.3094,-4.3351,-4.3214,-3.9937,-4.1919,-4.3681,-4.581,-4.6948,-4.7663,-4.8196,-4.8067,-4.7626,-4.6819,-4.6195,-4.5663,-4.5149,-4.5223,-4.5682,-4.6526,-4.8489,-4.9508,-4.8343,-4.9539,-4.9613,-4.7269,-4.7547,-4.8211,-4.8841,-5.0396,0.0,-5.2891,-5.3958,-5.4767,-5.5235,-5.5834,-5.6106,-5.6082,-5.6296,-5.667,-5.719,-5.7912,-5.87,-5.9574,-6.0682,-6.0897,-6.0382,-6.0126,-5.9245,-5.7997,-5.7997,-5.7997,-5.7997,-5.7997,-5.7997,-5.7997,-5.7997,-5.7997,-5.7827,-5.652,-5.5425,-5.4471,-5.358,-5.2618,-5.185,-5.2289,-5.2149,-5.1618,-5.0929,-4.9342,-4.7644,-4.6986,-4.5766,-4.4615,-4.4615,-4.4615,-4.4831,-4.5622,-4.6136,-4.6196,-4.5466,-4.5624,-4.5406,-4.3791,-4.3339,-4.3214,-4.3214,-4.2751,-4.2382,-4.2382,-4.2241,-4.2342,-4.2902,-4.3286,-4.3515,-4.3515,-4.3515,-4.3515,-4.3515,-4.3515,-4.3515,-4.3515,-4.3515,-4.3515,-4.3515,-4.3515,-4.3515,-4.3515,-4.3515,-4.3515,-4.3515,-4.3515,-4.3515,-4.3515,-4.3515,-4.3303,-4.1772,-4.3644,-4.5241,-4.6782,-4.7736,-4.8306,-4.8269,-4.7626,-4.6782,-4.5847,-4.4415,-4.3294,0.0,0.0,-4.2983,-4.5333,-4.7168,-4.86,-4.95,-4.9762,-4.9825,0.0,0.0,0.0,0.0,0.0,0.0,-5.2377,0.0,-5.4665,-5.4674,-5.608,-5.6886,-5.6815,-5.6086,-5.6411,-5.79,-5.7294,-5.8117,-6.0361,-6.0382,-6.0362,-6.0309,-5.9551,-5.8767,-5.7997,-5.7997,-5.7997,-5.7997,-5.7997,-5.7997,-5.7997,-5.7997,-5.7997,-5.7707,-5.5499,-5.464,-5.4447,-5.352,-5.2251,-5.1086,-5.1086,-5.106,-5.0903,-5.023,-4.8931,-4.7617,-4.6986,-4.5766,-4.4615,-4.4615,-4.4643,-4.4961,-4.6136,-4.6413,-4.6333,-4.599,-4.5883,-4.5406,-4.3791,-4.3105,-4.2732,-4.2732,-4.2282,-4.1895,-4.1895,-4.2382,-4.2902,-4.3374,-4.3497,-4.3515,-4.3515,-4.3515,-4.3515,-4.3515,-4.3515,-4.3515,-4.3515,-4.3515,-4.3515,-4.3515,-4.3515,-4.3515,-4.3515,-4.3515,-4.3515,-4.3515,-4.3515,-4.3515,-4.3515,-4.3515,-4.3515,-4.3608,-4.57,-4.7498,-4.7902,-4.8159,-4.8159,-4.7553,-4.6782,-4.548,-4.2856,-4.1515,-4.0283,0.0,0.0,0.0,-4.302,-4.6067,0.0,-4.95,-5.0192,0.0,-4.9825,0.0,-5.1355,-5.1834,-5.301,0.0,0.0,-5.5135,-5.5866,-5.7049,-5.6982,-5.6881,-5.6877,-5.6109,-5.6453,-5.8048,-5.9022,-5.9503,-5.9517,-6.0095,-6.0108,-5.9478,-5.9294,-5.8767,-5.7997,-5.7997,-5.7997,-5.7997,-5.7997,-5.7997,-5.7997,-5.7997,-5.7997,-5.7753,-5.6003,-5.5036,-5.4325,-5.233,-5.1418,-5.1086,-5.1086,-5.0716,-5.0258,-5.0061,-4.8633,-4.7014,-4.6844,-4.5766,-4.4615,-4.4615,-4.4934,-4.5477,-4.6233,-4.6796,-4.693,-4.6065,-4.5883,-4.5406,-4.3791,-4.3374,-4.3286,-4.3286,-4.316,-4.3069,-4.3069,-4.3214,-4.3196,-4.2957,-4.325,-4.3515,-4.3515,-4.3515,-4.3515,-4.3515,-4.3515,-4.3515,-4.3515,-4.3515,-4.3515,-4.3515,-4.3515,-4.3515,-4.3515,-4.3515,-4.3515,-4.3515,-4.3515,-4.3515,-4.3515,-4.3515,-4.3515,-4.5315,-4.7003,-4.8306,-4.8306,-4.8049,-4.7369,-4.5883,-4.4635,-4.2763,-3.915,-3.7514,-3.6266,-3.4945,-3.6729,-3.915,0.0,0.0,0.0,-4.9414,-5.0075,-5.0433,0.0,-5.143,0.0,-5.2629,-5.4054,-5.5244,0.0,-5.6124,-5.6528,-5.7446,-5.7448,-5.7376,-5.7376,-5.6633,-5.6846,-5.8096,-5.9627,-6.0195,-5.973,-6.0196,-5.9953,-5.9184,-5.8817,-5.8437,-5.7997,0.0,-5.7997,-5.7997,-5.7997,-5.7997,-5.7997,-5.7997,-5.7997,-5.7813,-5.6198,-5.5176,-5.4265,-5.1912,-5.0876,-5.0554,-5.0286,-4.9896,-4.958,-4.958,-4.826,-4.6786,-4.6786,-4.5766,-4.4615,-4.4615,-4.4852,-4.532,-4.6209,-4.6705,-4.6766,-4.6046,-4.5883,-4.5406,-4.3791,-4.3515,-4.3515,-4.3515,-4.3515,-4.3515,-4.3515,-4.3515,-4.3374,-4.3105,-4.3303,-4.3515,-4.3515,-4.3515,-4.3515,-4.3515,-4.3515,-4.3515,-4.3515,-4.3515,-4.3515,-4.3515,-4.3515,-4.3515,-4.3515,-4.3515,-4.3515,-4.3515,-4.3515,-4.3515,-4.3515,-4.3515,-4.3515,-4.6709,-4.77,-4.8306,-4.8306,-4.759,-4.6305,-4.3901,-4.1919,-3.9444,-3.5371,-3.3243,-3.2069,-3.1959,-3.3463,-3.6032,-4.0104,0.0,-4.6595,-4.9452,-4.9901,-5.0298,-5.1265,-5.2126,-5.2915,-5.3543,-5.4989,-5.6198,-5.6932,-5.6969,-5.6969,-5.6969,-5.7629,-5.7973,-5.7844,-5.7436,-5.7442,-5.7954,-5.9598,-6.0287,-6.0061,-6.0186,-5.9832,-5.9001,-5.8327,-5.7997,-5.7997,-5.7997,-5.7997,-5.7997,-5.7997,-5.7997,-5.7997,-5.7997,-5.7997,-5.7813,-5.6198,-5.5222,-5.4387,-5.2065,-5.077,-5.0033,-4.9256,-4.9018,-4.9018,-4.9018,-4.797,-4.6786,-4.6786,-4.5766,-4.4615,-4.4615,-4.472,-4.5115,-4.6161,-4.6507,-4.6525,-4.6009,-4.5736,-4.5149,-4.3772,-4.3515,-4.3515,-4.3515,-4.3515,-4.3515,-4.3515,-4.3515,-4.3515,-4.3515,-4.3515,-4.3515,-4.3515,-4.3515,-4.3515,-4.3515,-4.3515,-4.3515,-4.3515,-4.3515,-4.3515,-4.3515,-4.3515,-4.3515,-4.3515,-4.3515,-4.3515,-4.3515,-4.3515,-4.3515,-4.3515,-4.3515,-4.3515,-4.7003,-4.77,-4.8306,-4.8306,-4.7205,-4.548,-4.3057,-4.023,0.0,0.0,-3.0748,-2.9427,-2.8741,-3.1017,-3.4344,-3.8453,-4.1809,-4.548,-4.9964,-5.0623,-5.1167,0.0,-5.4129,-5.5074,-5.5184,-5.6667,0.0,0.0,-5.7776,-5.7776,-5.7776,-5.7923,-5.7726,-5.7091,-5.8203,-5.8264,-5.714,-5.9289,-5.9732,-5.8411,-5.9091,-5.8988,-5.8217,-5.807,-5.7997,-5.7997,-5.7997,0.0,-5.7997,-5.7997,-5.7997,-5.7997,-5.7997,-5.7997,-5.7813,-5.6198,-5.553,-5.5094,-5.2761,-5.1494,-5.0689,-4.9436,-4.9018,-4.9018,-4.9018,-4.797,-4.6786,-4.6786,-4.5766,-4.4615,-4.4615,-4.5346,-4.6161,-4.6342,-4.7198,-4.7597,-4.6214,-4.4856,-4.3828,-4.3551,-4.3515,-4.3515,-4.3515,-4.3515,-4.3515,-4.3515,-4.3515,-4.3515,-4.3515,-4.3515,-4.3515,-4.3515,-4.3515,-4.3515,-4.3515,-4.3515,-4.3515,-4.3515,-4.3515,-4.3515,-4.3515,-4.3515,-4.3515,-4.3515,-4.3515,-4.3515,-4.3515,-4.3515,-4.3515,-4.3515,-4.3515,-4.3515,-4.7113,-4.77,-4.8306,-4.8306,-4.6801,-4.4305,-4.0634,0.0,0.0,0.0,-2.7651,-2.7016,-2.6623,-2.9182,0.0,-3.5642,-3.8872,-4.2587,-4.7126,-4.8404,-4.9655,-5.177,-5.4151,-5.5596,-5.5596,-5.7042,-5.7997,-5.7997,-5.7997,-5.7997,-5.7997,-5.7997,-5.7679,-5.6912,-5.7615,-5.7851,-5.752,-5.8647,-5.9015,-5.8626,-5.9005,-5.8804,-5.7997,-5.7997,-5.7997,-5.7997,-5.7997,-5.7997,-5.7997,-5.7997,-5.7997,-5.7997,-5.7997,-5.7997,-5.7813,-5.6198,-5.5395,-5.4782,-5.2808,-5.1643,-5.0929,-4.9867,-4.9286,-4.9018,-4.9018,-4.797,-4.6786,-4.6786,-4.5766,-4.4615,-4.4615,-4.5241,-4.6014,-4.6353,-4.706,-4.7352,-4.6177,-4.4966,-4.4011,-4.3588,-4.3515,-4.3515,-4.3515,-4.3515,-4.3515,-4.3515,-4.3515,-4.3515,-4.3515,-4.3515,-4.3515,-4.3515,-4.3515,-4.3515,-4.3515,-4.3515,-4.3515,-4.3515,-4.3515,-4.3515,-4.3515,-4.3515,-4.3515,-4.3515,-4.3515,-4.3515,-4.3515,-4.3515,-4.3515,-4.3515,-4.3515,-4.3515,-4.7113,-4.77,-4.8306,-4.8306,-4.625,-4.302,-3.8521,-3.5179,0.0,-2.6439,-2.5264,-2.5191,-2.5374,-2.7614,-3.0393,0.0,-3.6266,-3.9812,-4.4473,-4.6387,-4.8314,0.0,-5.3784,0.0,-5.5596,-5.7042,0.0,-5.7997,-5.7997,-5.7997,-5.7997,-5.7997,-5.7726,-5.7141,-5.7116,-5.7467,-5.8083,-5.8083,-5.8371,-5.8927,-5.8927,-5.8621,-5.7997,-5.7997,-5.7997,-5.7997,-5.7997,-5.7997,-5.7997,-5.7997,-5.7997,-5.7997,-5.7997,-5.7886,-5.7556,-5.6124,-5.5158,-5.4339,-5.2865,-5.1898,-5.1189,-5.0472,-4.978,-4.9199,-4.9046,-4.797,-4.6786,-4.6786,-4.5766,-4.4615,-4.4615,-4.5142,-4.5865,-4.6623,-4.6975,-4.6892,-4.6067,-4.5259,-4.4452,-4.3644,-4.3515,-4.3515,-4.3515,-4.3515,-4.3515,-4.3515,-4.3515,-4.3515,-4.3515,-4.3515,-4.3515,-4.3515,-4.3515,-4.3515,-4.3515,-4.3515,-4.3515,-4.3515,-4.3515,-4.3515,-4.3515,-4.3515,-4.3515,-4.3515,-4.3515,-4.3515,-4.3515,-4.3515,-4.3515,-4.3515,-4.3515,-4.3515,-4.7113,-4.77,-4.8306,-4.8306,-4.5406,-4.1625,-3.8264,0.0,-2.9549,-2.6109,-2.4824,-2.453,-2.5264,-2.6245,-2.8448,-3.3036,0.0,-3.8673,-4.493,-4.7167,-4.9131,-5.1621,0.0,0.0,-5.5596,-5.7042,-5.7997,-5.7997,-5.7997,-5.7997,-5.7997,-5.7997,-5.7973,-5.7927,-5.7904,-5.7904,-5.8014,-5.8014,-5.806,-5.8107,-5.8107,-5.807,-5.7997,-5.7997,-5.7997,-5.7997,-5.7997,-5.7997,0.0,-5.7997,-5.7997,-5.7997,-5.7997,-5.7556,-5.6822,-5.5904,-5.5111,-5.4276,-5.3396,-5.2599,-5.1922,-5.1215,-5.05,-4.9809,-4.9165,-4.797,-4.6786,-4.6786,-4.5766,-4.4615,-4.4615,-4.5442,-4.66,-4.7838,-4.7606,-4.6892,-4.6067,-4.5259,-4.4452,-4.3644,-4.3515,-4.3515,-4.3515,-4.3515,-4.3515,-4.3515,-4.3515,-4.3515,-4.3515,-4.3515,-4.3515,-4.3515,-4.3515,-4.3515,-4.3515,-4.3515,-4.3515,-4.3515,-4.3515,-4.3515,-4.3515,-4.3515,-4.3515,-4.3515,-4.3515,-4.3515,-4.3515,-4.3515,-4.3515,-4.3515,-4.3515,-4.3515,-4.5498,-4.6929,-4.8086,-4.7095,-4.4562,-4.1185,-3.7,-3.3036,-2.9145,-2.5448,-2.441,-2.43,-2.464,-2.5338,-2.6843,-2.9732,-3.1164,-3.3844,-3.935,-4.1919,-4.4709,-4.86,-5.2087,0.0,0.0,0.0,-5.7997,-5.7997,-5.7997,-5.7997,-5.7997,-5.7997,-5.7797,-5.7351,-5.7351,-5.7351,-5.7351,-5.7351,-5.7546,-5.7997,-5.7997,-5.7997,-5.7997,-5.7997,-5.7997,-5.7997,-5.7997,-5.7997,0.0,-5.7997,-5.7997,-5.796,-5.7483,-5.7079,-5.6638,-5.5354,-5.4656,-5.4289,-5.3482,-5.3002,-5.2576,-5.1444,-5.0903,-5.0445,-4.9346,-4.797,-4.6786,-4.6786,-4.5766,-4.4665,-4.5035,-4.6063,-4.7198,-4.8094,-4.8086,-4.7462,-4.6177,-4.5663,-4.5039,-4.3754,-4.3515,-4.3515,-4.3515,-4.3515,-4.3515,-4.3515,-4.3515,-4.3515,-4.3515,-4.3515,-4.3515,-4.3515,-4.3515,-4.3515,-4.3515,-4.3515,-4.3515,-4.3515,-4.3515,-4.3515,-4.3515,-4.3515,-4.3515,-4.3515,-4.3515,-4.3515,-4.3515,-4.3515,-4.3515,-4.3515,-4.3515,-4.3515,-4.4324,-4.6104,-4.7315,-4.6177,-4.3718,-4.0451,-3.6068,-3.2362,-2.8767,-2.4961,-2.419,-2.419,-2.419,-2.4677,-2.5668,0.0,-2.8668,-3.1152,-3.6303,-3.9093,-4.2213,0.0,0.0,-5.3115,0.0,-5.6785,-5.7997,-5.7997,-5.7997,-5.7997,-5.7997,-5.7997,-5.775,-5.7252,-5.7252,-5.7252,-5.7252,-5.7252,-5.7474,-5.7997,-5.7997,-5.7997,-5.7997,-5.7997,-5.7997,-5.7997,-5.7997,-5.7997,0.0,-5.7997,-5.785,-5.7593,-5.7042,-5.6528,-5.5941,-5.484,-5.4252,-5.3959,-5.3387,-5.3203,-5.2959,-5.1579,-5.1086,-5.0788,-4.9163,-4.78,-4.6752,-4.6549,-4.5705,-4.5035,-4.584,-4.6728,-4.7533,-4.8134,-4.8306,-4.7865,-4.625,-4.5883,-4.5406,-4.3791,-4.3515,-4.3515,-4.3515,-4.3515,-4.3515,-4.3515,-4.3515,-4.3515,-4.3515,-4.3515,-4.3515,-4.3515,-4.3515,-4.3515,-4.3515,-4.3515,-4.3515,-4.3515,-4.3515,-4.3515,-4.3515,-4.3515,-4.3515,-4.3515,-4.3515,-4.3515,-4.3515,-4.3515,-4.3515,-4.3515,-4.3515,-4.3515,-4.4048,-4.5296,-4.592,-4.5883,-4.2873,-3.9056,-3.5738,-3.1885,-2.8106,-2.4887,-2.419,-2.419,-2.419,-2.419,-2.4997,-2.7431,-2.9145,-3.2192,-3.7881,-4.0744,-4.3497,0.0,0.0,-5.1463,-5.3057,-5.6124,-5.7997,-5.7997,-5.7997,0.0,-5.7997,-5.7997,-5.7997,-5.7997,-5.7997,-5.7997,-5.7997,-5.7997,-5.7997,-5.7997,-5.7997,-5.7997,-5.7997,-5.7997,-5.7997,-5.7997,-5.7997,-5.7997,0.0,-5.7997,-5.7519,-5.6822,-5.6822,-5.5831,-5.4436,-5.4399,-5.3922,-5.3203,-5.3203,-5.3203,-5.2959,-5.1579,-5.1086,-5.0682,-4.8548,-4.7394,-4.665,-4.594,-4.5624,-4.58,-4.7044,-4.7385,-4.7533,-4.8134,-4.8306,-4.7865,-4.625,-4.5883,-4.5406,-4.3791,-4.3515,-4.3515,-4.3515,-4.3515,-4.3515,-4.3515,-4.3515,-4.3515,-4.3515,-4.3515,-4.3515,-4.3515,-4.3515,-4.3515,-4.3515,-4.3515,-4.3515,-4.3515,-4.3515,-4.3515,-4.3515,-4.3515,-4.3515,-4.3515,-4.3515,-4.3515,-4.3515,-4.3515,-4.3515,-4.3515,-4.3515,-4.3515,-3.8579,-4.0341,-4.1405,-3.9753,-3.7918,-3.5701,-3.2472,-2.9879,-2.742,-2.474,-2.419,-2.419,-2.419,-2.419,-2.5364,-2.8888,-2.9879,0.0,0.0,0.0,0.0,-4.592,-5.0912,-5.4509,0.0,0.0,-5.7997,-5.7997,-5.7997,-5.7997,-5.7997,-5.7997,-5.7997,-5.7997,-5.7997,-5.7997,-5.7997,-5.7997,-5.7997,-5.7997,-5.7997,-5.7997,-5.7997,-5.7997,-5.7997,-5.7997,-5.7997,-5.7997,-5.796,-5.7409,-5.7042,-5.6712,-5.5611,-5.484,-5.4326,-5.3775,-5.3445,-5.3203,-5.3203,-5.3203,-5.306,-5.2089,-5.1137,-5.0037,-4.8342,-4.7358,-4.6515,-4.5297,-4.5492,-4.6233,-4.66,-4.7385,-4.8055,-4.8267,-4.8306,-4.8012,-4.6929,-4.6287,-4.559,-4.4525,-4.3864,-4.3515,-4.3515,-4.3515,-4.3515,-4.3515,-4.3515,-4.3515,-4.3515,-4.3515,-4.3515,-4.3515,-4.3515,-4.3515,-4.3515,-4.3515,-4.3515,-4.3515,-4.3515,-4.3515,-4.3515,-4.3515,-4.3515,-4.3515,-4.3515,-4.3515,-4.3515,-4.3515,-4.3515,-4.3515,-4.3515,-4.3515,-3.4724,-3.6927,-3.8175,-3.667,-3.5188,-3.3426,-3.0797,-2.8705,-2.6759,-2.463,-2.419,-2.419,-2.419,-2.419,-2.5217,-2.8338,-2.9365,-3.1458,0.0,0.0,0.0,-4.6801,0.0,0.0,0.0,-5.7152,-5.7997,-5.7997,-5.7997,-5.7997,-5.7997,-5.7997,-5.7997,-5.7997,-5.7997,-5.7997,-5.7997,-5.7997,-5.7997,-5.7997,-5.7997,-5.7997,-5.7997,-5.7997,-5.7997,-5.7997,-5.7997,-5.7813,0.0,-5.7005,-5.6455,-5.5794,-5.4803,-5.4216,-5.3885,-5.3408,-5.3203,-5.3203,-5.3203,-5.3203,-5.3082,-5.2335,-5.078,-4.889,-4.7444,-4.651,-4.5852,-4.5383,-4.5815,-4.6507,-4.6999,-4.7736,-4.8306,-4.8306,-4.8306,-4.8067,-4.7259,-4.6471,-4.5663,-4.4856,-4.4048,-4.3515,-4.3515,-4.3515,-4.3515,-4.3515,-4.3515,-4.3515,-4.3515,-4.3515,-4.3515,-4.3515,-4.3515,-4.3515,-4.3515,-4.3515,-4.3515,-4.3515,-4.3515,-4.3515,-4.3515,-4.3515,-4.3515,-4.3515,-4.3515,-4.3515,-4.3515,-4.3515,-4.3515,-4.3515,-4.3515,-4.3563,0.0,-3.4431,-3.5679,-3.5605,-3.388,-3.1775,-3.021,-2.8117,0.0,-2.452,-2.419,-2.4263,-2.441,-2.4373,-2.4924,-2.6796,-2.84,-3.1115,0.0,-3.946,0.0,0.0,-5.183,0.0,-5.4326,-5.6528,-5.7923,-5.7923,-5.796,-5.7997,-5.7997,-5.7997,-5.7997,-5.7997,-5.7997,-5.7997,-5.7997,-5.7997,-5.7997,-5.7997,-5.7997,-5.7997,-5.7997,-5.7997,-5.796,0.0,-5.7923,-5.7446,-5.6712,-5.6638,-5.5757,-5.4399,-5.4326,-5.3849,-5.3203,-5.3203,-5.3203,-5.3203,-5.3203,-5.3203,-5.3045,-5.2213,-5.0129,-4.758,-4.6119,-4.5185,-4.4824,-4.6014,-4.6365,-4.6669,-4.7899,-4.8267,-4.8306,-4.8306,-4.8306,-4.8067,-4.7259,-4.6471,-4.5663,-4.4856,-4.4048,-4.3515,-4.3515,-4.3515,-4.3515,-4.3515,-4.3515,-4.3515,-4.3515,-4.3515,-4.3515,-4.3515,-4.3515,-4.3515,-4.3515,-4.3515,-4.3515,-4.3515,-4.3515,-4.3515,-4.3515,-4.3515,-4.3515,-4.3515,-4.3515,-4.3515,-4.3515,-4.3515,-4.3515,-4.3515,-4.3495,-4.3693,-2.7064,0.0,-2.9659,-2.9035,-2.8436,-2.775,0.0,-2.6072,-2.5411,-2.441,-2.419,-2.474,-2.6612,-2.5962,-2.666,-3.1347,-3.2949,-3.4857,-3.8542,0.0,0.0,-5.0215,-5.2637,-5.4179,-5.4363,-5.6014,-5.7079,-5.7079,-5.7666,-5.7997,-5.7997,-5.7997,-5.7997,-5.7997,-5.7997,-5.7997,-5.7997,-5.7997,-5.7997,-5.7997,-5.7997,-5.7997,-5.7997,-5.7997,-5.7666,-5.7079,-5.7079,-5.6638,-5.5831,-5.5207,-5.473,-5.4326,-5.3739,-5.335,-5.3203,-5.3203,-5.3203,-5.3203,-5.3203,-5.3203,-5.2862,-5.0967,-4.9555,-4.8262,-4.6187,-4.5097,-4.4776,-4.5494,-4.6039,-4.6577,-4.7406,-4.7975,-4.8306,-4.8306,-4.8306,-4.8067,-4.7259,-4.6471,-4.5663,-4.4856,-4.4048,-4.3515,-4.3515,-4.3515,-4.3515,-4.3515,-4.3515,-4.3515,-4.3515,-4.3515,-4.3515,-4.3515,-4.3515,-4.3515,-4.3515,-4.3515,-4.3515,-4.3515,-4.3515,-4.3515,-4.3515,-4.3515,-4.3515,-4.3515,-4.3515,-4.3515,-4.3515,-4.3515,-4.3515,-4.3515,-4.3775,-4.3943,-2.486,-2.6576,-2.8264,-2.7813,-2.7409,-2.7053,-2.6586,-2.5631,-2.4713,-2.43,0.0,-2.4704,-2.6403,-2.6586,-2.7725,-3.1531,-3.3757,0.0,0.0,0.0,-4.9224,-5.161,-5.3371,-5.4399,0.0,-5.5537,-5.6235,-5.6235,-5.6638,-5.6895,-5.6895,-5.6895,-5.6895,-5.6895,-5.6895,-5.7262,-5.7997,-5.7997,-5.7997,-5.7997,-5.7997,-5.7997,-5.7997,-5.7629,-5.7226,-5.6785,-5.6418,-5.5794,-5.5023,-5.4583,-5.4179,-5.3812,-5.335,-5.3203,-5.3203,-5.3203,-5.3203,-5.3203,-5.3203,-5.3203,-5.2825,-5.0532,-4.9572,-4.8913,-4.6594,-4.5468,-4.5089,-4.5425,-4.594,-4.653,-4.7234,-4.7838,-4.8306,-4.8306,-4.8306,-4.8067,-4.7259,-4.6471,-4.5663,-4.4856,-4.4048,-4.3515,-4.3515,-4.3515,-4.3515,-4.3515,-4.3515,-4.3515,-4.3515,-4.3515,-4.3515,-4.3515,-4.3515,-4.3515,-4.3515,-4.3515,-4.3515,-4.3515,-4.3515,-4.3515,-4.3515,-4.3515,-4.3515,-4.3515,-4.3515,-4.3515,-4.3515,-4.3515,-4.358,-4.3742,-4.3927,-4.419,-2.463,-2.6943,-2.9023,-2.8436,-2.8044,-2.775,-2.7504,0.0,0.0,0.0,0.0,0.0,-2.6109,-2.7431,0.0,-3.0834,0.0,0.0,-4.5149,-4.7462,-4.9627,-5.2674,-5.3739,0.0,-5.4216,-5.495,-5.5427,-5.5427,-5.5537,-5.5596,-5.5596,-5.5596,-5.5596,-5.5596,-5.5596,-5.6235,-5.7629,-5.774,-5.7813,-5.7813,-5.7813,-5.774,-5.7593,-5.6932,-5.6565,-5.6418,0.0,0.0,-5.4216,-5.4216,-5.3812,-5.3203,-5.3203,-5.3203,-5.3203,-5.3203,-5.3203,-5.3203,-5.3203,-5.3203,-5.2846,-5.0642,-4.9878,-4.9397,-4.7214,-4.6136,-4.5648,-4.5648,-4.6014,-4.6589,-4.7342,-4.7935,-4.8306,-4.8306,-4.8306,-4.8049,-4.7113,-4.6397,-4.5626,-4.4709,-4.3975,-4.3515,-4.3515,-4.3515,-4.3515,-4.3515,-4.3515,-4.3515,-4.3515,-4.3515,-4.3515,-4.3515,-4.3515,-4.3515,-4.3515,-4.3515,-4.3515,-4.3515,-4.3515,-4.3495,-4.3563,-4.3549,-4.3495,-4.358,-4.358,-4.358,-4.358,-4.3647,-4.3823,-4.4087,-4.4146,-4.4508,-2.6686,-2.8594,-2.9219,-2.5805,-2.6392,-2.7431,-2.6072,0.0,0.0,0.0,0.0,0.0,0.0,-3.0699,-3.1825,0.0,0.0,-4.1756,0.0,0.0,-5.0031,-5.194,0.0,-5.3408,-5.3408,-5.4106,-5.4583,-5.4583,-5.5207,-5.5596,-5.5596,-5.5596,-5.5596,-5.5596,-5.5596,-5.5743,-5.5978,-5.6638,-5.6969,-5.6969,-5.6969,-5.6638,-5.5941,-5.5831,-5.539,-5.4766,0.0,-5.4142,-5.3408,-5.3408,-5.3314,-5.3203,-5.3203,-5.3203,-5.3203,-5.3203,-5.3203,-5.3203,-5.3203,-5.3203,-5.291,-5.1213,-5.0277,-4.9464,-4.7767,-4.6796,-4.6246,-4.6246,-4.6318,-4.6669,-4.7858,-4.8248,-4.8306,-4.8306,-4.8306,-4.7902,-4.6397,-4.5993,-4.5443,-4.3975,-4.3571,-4.3515,-4.3515,-4.3515,-4.3515,-4.3515,-4.3515,-4.3515,-4.3515,-4.3515,-4.3515,-4.3515,-4.3515,-4.3515,-4.3515,-4.3515,-4.3515,-4.3515,-4.3515,-4.3631,-4.3927,-4.3664,-4.3647,-4.3927,-4.3943,-4.3943,-4.3943,-4.4285,-4.4479,-4.4495,-4.4812,-4.4988,-2.5548,-2.7346,-2.8448,-2.6612,-2.8594,-3.0723,-2.9549,-2.9255,0.0,0.0,0.0,0.0,0.0,0.0,-3.5399,-3.9496,0.0,-4.4305,-4.7902,-4.904,-5.0325,0.0,0.0,-5.3203,-5.3203,-5.3555,-5.3739,-5.3739,-5.4106,-5.4289,-5.4289,-5.4289,-5.4289,-5.4289,-5.4289,-5.4509,-5.495,-5.5317,-5.5721,-5.6161,-5.6161,-5.5941,-5.5574,-5.5133,-5.473,-5.4363,0.0,-5.3555,-5.3203,-5.3203,-5.3203,-5.3203,-5.3203,-5.3203,-5.3203,-5.3203,-5.3203,-5.3203,-5.3203,-5.3203,-5.3004,-5.183,-5.0931,-5.0122,-4.8956,-4.7832,-4.7021,-4.7327,-4.7176,-4.7066,-4.7674,-4.8055,-4.8306,-4.8306,-4.8306,-4.7976,-4.6801,-4.6214,-4.5553,-4.4378,-4.3791,-4.3515,-4.3515,-4.3515,-4.3515,-4.3515,-4.3515,-4.3515,-4.3515,-4.3515,-4.3515,-4.3515,-4.3515,-4.3515,-4.3515,-4.3515,-4.3515,-4.3515,-4.3515,-4.3664,-4.3967,-4.3677,-4.3758,-4.4304,-4.4102,-4.4102,-4.4318,-4.4495,-4.4701,-4.4872,-4.5011,-4.5201,-2.5181,-2.6686,-2.8154,-2.8569,-3.0834,-3.2926,-3.2889,-3.2265,-3.1861,0.0,0.0,0.0,0.0,-3.5752,0.0,-4.3094,-4.4452,-4.603,-4.9077,-4.9738,-5.0692,-5.2968,-5.3203,-5.3203,-5.3203,-5.3203,-5.3203,-5.3203,-5.3203,-5.3203,-5.3203,-5.3203,-5.3203,-5.3203,-5.3203,-5.3518,-5.4106,-5.4106,-5.4509,-5.5317,-5.5317,-5.5207,-5.5023,-5.4399,-5.4106,-5.4069,-5.3482,-5.3203,-5.3203,-5.3203,-5.3203,-5.3203,-5.3203,-5.3203,-5.3203,-5.3203,-5.3203,-5.3203,-5.3203,-5.3203,-5.3078,-5.227,-5.1463,-5.0655,-4.9831,-4.8673,-4.7715,-4.8153,-4.7975,-4.7632,-4.7632,-4.7975,-4.8306,-4.8306,-4.8306,-4.8067,-4.7259,-4.6599,-4.5957,-4.5149,-4.4342,-4.3791,-4.3791,-4.3608,-4.3515,-4.3515,-4.3515,-4.3515,-4.3515,-4.3515,-4.3515,-4.3515,-4.3515,-4.3515,-4.3515,-4.3515,-4.3512,-4.3614,-4.3631,-4.3775,-4.4117,-4.3881,-4.402,-4.4599,-4.4373,-4.4373,-4.4612,-4.4763,-4.4966,-4.5222,-4.5222,-4.5371,-2.8033,-2.8767,-2.928,-3.0772,-3.0797,-3.1017,-3.322,-3.3109,0.0,-3.5459,0.0,0.0,0.0,-3.9129,-4.1609,-4.4195,-4.5296,-4.6691,-4.9243,0.0,-5.1353,-5.2983,-5.3203,-5.3203,-5.3203,-5.3203,-5.3203,-5.3203,-5.3203,-5.3203,-5.3203,-5.3203,-5.3203,-5.3203,-5.3203,-5.3203,-5.3277,-5.3277,-5.3702,-5.4473,-5.4473,-5.4106,-5.335,-5.3314,-5.3277,-5.3277,-5.3203,-5.3203,-5.3203,-5.3203,-5.3203,-5.3203,-5.3203,-5.3203,-5.3203,-5.3203,-5.3203,-5.3203,-5.3203,-5.3203,-5.3078,-5.227,-5.1463,-5.0655,-4.9831,-4.8947,-4.8248,-4.8287,-4.8267,-4.8248,-4.8248,-4.8267,-4.8306,-4.8306,-4.8306,-4.8067,-4.7259,-4.7039,-4.6782,-4.5957,-4.5149,-4.4635,-4.4635,-4.3975,-4.3515,-4.3515,-4.3515,-4.3515,-4.3515,-4.3515,-4.3515,-4.3515,-4.3515,-4.3515,-4.3515,-4.3515,-4.3647,-4.3921,-4.3952,-4.4132,-4.4559,-4.4546,-4.4559,-4.4612,-4.4884,-4.4884,-4.4612,-4.5232,-4.555,-4.5568,-4.5568,-4.5577,-2.5768,-2.7482,-2.928,-3.0393,-3.1531,0.0,0.0,-3.5899,-3.6949,-3.8909,-3.9276,0.0,0.0,0.0,-4.3204,-4.5149,-4.614,-4.7352,-4.9317,-4.9867,-5.0655,-5.227,-5.2454,-5.2637,-5.313,-5.3203,-5.3203,-5.3203,-5.3203,-5.3203,-5.3203,-5.3203,-5.3203,-5.3203,-5.3203,-5.3203,-5.3203,-5.3203,-5.3371,-5.3665,-5.3665,-5.3482,-5.3203,-5.3203,-5.3203,-5.3203,-5.3203,-5.3203,-5.3203,-5.3203,-5.3203,-5.3203,-5.3203,-5.3203,-5.3203,-5.3203,-5.3203,-5.3203,-5.3203,-5.3203,-5.3078,-5.227,-5.1463,-5.0655,-4.9831,-4.8967,-4.8229,-4.7838,-4.7736,-4.7818,-4.8209,-4.8306,-4.8306,-4.8306,-4.8306,-4.8233,-4.7883,-4.7443,-4.7003,-4.6709,-4.5993,-4.5443,-4.5443,-4.4782,-4.4268,-4.4268,-4.3828,-4.3515,-4.3515,-4.3515,-4.3515,-4.3515,-4.3515,-4.3515,-4.3515,-4.3693,-4.3865,-4.3982,-4.3982,-4.4276,-4.4884,-4.4726,-4.4714,-4.4908,-4.506,-4.5022,-4.4908,-4.539,-4.5594,-4.5594,-4.5594,-4.5594,-2.4961,-2.6759,-2.8877,-2.9953,0.0,0.0,-3.656,-3.7918,-3.946,-4.2049,-4.2416,-4.2379,-4.2947,0.0,0.0,0.0,-4.6581,-4.7663,-4.9353,-4.961,-5.0088,-5.1463,-5.161,-5.183,-5.238,-5.2433,-5.2564,-5.2821,-5.2821,-5.2931,-5.3188,-5.3203,-5.3203,-5.3203,-5.3203,-5.3203,-5.3203,-5.3203,-5.3203,-5.3203,-5.3203,-5.3203,-5.3203,-5.3203,-5.3203,-5.3203,-5.3203,-5.3203,-5.3203,-5.3203,-5.3203,-5.3203,-5.3203,-5.3203,-5.3203,-5.3203,-5.3203,-5.3203,-5.3203,-5.3203,-5.3078,-5.227,-5.1463,-5.0655,-4.9831,-4.8869,-4.7919,-4.7512,-4.7255,-4.7176,-4.7596,-4.7858,-4.8015,-4.8015,-4.8153,-4.8248,-4.8055,-4.775,-4.748,-4.748,-4.6838,-4.6287,-4.6287,-4.5626,-4.5002,-4.4745,-4.4232,-4.3791,-4.3551,-4.3515,-4.3515,-4.3515,-4.3515,-4.3515,-4.3515,-4.3802,-4.4043,-4.4175,-4.429,-4.4574,-4.5066,-4.4884,-4.4825,-4.4931,-4.5033,-4.5033,-4.4943,-4.539,-4.5594,-4.5594,-4.5594,-4.5748,-2.6602,-2.72,-2.8202,0.0,0.0,0.0,-3.7991,-3.8726,-4.0084,-4.4892,-4.5259,-4.4709,-4.4691,-4.4709,0.0,-4.5773,-4.6581,-4.7663,-4.9353,-4.961,-4.9904,-5.0692,-5.0802,-5.0802,-5.0802,-5.0802,-5.1132,-5.194,-5.1977,-5.2344,-5.3151,-5.3167,-5.3167,-5.3167,-5.3167,-5.3167,-5.3203,-5.3203,-5.3203,-5.3203,-5.3203,-5.3203,-5.3203,-5.3203,-5.3203,-5.3203,-5.3203,-5.3203,-5.3203,-5.3203,-5.3203,-5.3203,-5.3203,-5.3203,-5.3203,-5.3203,-5.3203,-5.3203,-5.3203,-5.3167,-5.3078,-5.2234,-5.1426,-5.0655,-4.9831,-4.8571,-4.7406,-4.7385,-4.691,-4.6389,-4.6389,-4.6887,-4.7385,-4.7385,-4.7838,-4.8114,-4.7512,-4.7858,-4.8287,-4.8306,-4.7663,-4.7113,-4.7113,-4.6434,-4.5626,-4.4838,-4.4728,-4.4415,-4.3608,-4.3515,-4.3515,-4.3515,-4.3515,-4.3515,-4.3515,-4.3802,-4.4175,-4.4599,-4.4919,-4.5077,-4.5077,-4.5115,-4.4943,-4.4612,-4.4919,-4.4931,-4.4612,-4.5263,-4.5594,-4.5594,-4.5594,-4.6086,-2.5925,-2.7567,0.0,-3.1494,0.0,0.0,0.0,-4.1222,0.0,0.0,-4.57,-4.5369,-4.4819,-4.5149,0.0,-4.5847,-4.6581,-4.748,-4.8526,-4.8673,-4.9003,-4.9867,-4.9978,-5.0178,-5.0765,-5.0802,-5.0912,-5.1132,-5.1169,-5.1242,-5.1499,-5.1499,-5.1756,-5.2344,-5.2344,-5.2637,-5.3167,-5.3203,-5.3203,-5.3203,-5.3203,-5.3203,-5.3203,-5.3203,-5.3203,-5.3203,-5.3203,-5.3203,-5.3203,-5.3203,-5.3203,-5.3203,-5.3203,-5.3203,-5.3203,-5.3203,-5.3203,-5.3203,-5.3203,-5.2821,-5.2234,-5.1426,-5.0618,-4.9794,-4.893,-4.8097,-4.7299,-4.6842,-4.6257,-4.5775,-4.5775,-4.589,-4.6161,-4.6612,-4.6806,-4.7044,-4.7342,-4.7533,-4.7797,-4.8229,-4.8122,-4.792,-4.792,-4.7259,-4.6636,-4.6415,-4.592,-4.5259,-4.4452,-4.4342,-4.4121,-4.3534,-4.3515,-4.3597,-4.3818,-4.419,-4.4561,-4.4931,-4.5263,-4.5448,-4.5448,-4.5222,-4.4943,-4.4612,-4.4714,-4.4714,-4.4612,-4.5022,-4.5381,-4.5594,-4.5594,-4.6086,-2.7578,-2.9439,0.0,-3.399,-3.689,-3.99,-4.2616,0.0,0.0,0.0,-4.6397,-4.625,-4.5718,-4.6049,0.0,-4.6397,-4.7039,-4.7736,-4.8233,-4.8306,-4.8489,-4.9003,-4.9077,-4.926,-4.9774,-4.9811,-4.9958,-5.0288,-5.0325,-5.0472,-5.0765,-5.0802,-5.1022,-5.1499,-5.1499,-5.1756,-5.2234,-5.2564,-5.2711,-5.2711,-5.2711,-5.2711,-5.2747,-5.3078,-5.3203,-5.3203,-5.3203,-5.3203,-5.3203,-5.3203,-5.3203,-5.3203,-5.3203,-5.3203,-5.3203,-5.3203,-5.3004,-5.2711,-5.2711,-5.2197,-5.1389,-5.0582,-5.0014,-4.9463,-4.8563,-4.7715,-4.6932,-4.6507,-4.5765,-4.5142,-4.5142,-4.5142,-4.5294,-4.589,-4.6233,-4.6507,-4.691,-4.7198,-4.7554,-4.8173,-4.8306,-4.8306,-4.8306,-4.7883,-4.748,-4.7149,-4.6434,-4.5736,-4.5259,-4.5186,-4.5002,-4.4488,-4.4589,-4.477,-4.4988,-4.5488,-4.5896,-4.6069,-4.6417,-4.6502,-4.6349,-4.5398,-4.4812,-4.4612,-4.4612,-4.4612,-4.4612,-4.5055,-4.5602,-4.6124,-4.6124,-4.674,-3.0356,0.0,0.0,-3.6758,-3.8924,0.0,-4.4011,-4.5828,-4.6892,-4.6966,0.0,-4.7003,-4.7003,-4.7039,-4.7113,-4.7113,-4.7773,-4.8306,-4.8306,-4.8306,-4.8306,-4.8306,-4.8306,-4.8306,-4.8306,-4.8306,-4.8636,-4.9427,-4.95,-4.9774,-5.0545,-5.0582,-5.0618,-5.0692,-5.0692,-5.0729,-5.0802,-5.1536,-5.1867,-5.1867,-5.1867,-5.1867,-5.1903,-5.2637,-5.2983,-5.2983,-5.2983,-5.2983,-5.2983,-5.2983,-5.2983,-5.2983,-5.2983,-5.2983,-5.2983,-5.2983,-5.2527,-5.1867,-5.1867,-5.1353,-5.0582,-4.9831,-4.9537,-4.9353,-4.8526,-4.7428,-4.6389,-4.6389,-4.552,-4.4615,-4.4615,-4.4615,-4.4748,-4.5294,-4.5865,-4.6318,-4.6365,-4.6932,-4.7554,-4.8173,-4.8306,-4.8306,-4.8306,-4.8306,-4.803,-4.7333,-4.6581,-4.6104,-4.603,-4.5993,-4.5993,-4.592,-4.6248,-4.6525,-4.652,-4.7187,-4.7602,-4.7624,-4.7923,-4.7923,-4.7533,-4.5761,-4.4825,-4.4748,-4.4785,-4.4812,-4.4838,-4.5472,-4.6222,-4.7,-4.7,-4.7855,-2.9182,-3.1041,0.0,0.0,-4.0598,-4.3057,-4.4415,-4.4948,-4.5406,-4.603,-4.6177,-4.6177,-4.6177,-4.6672,-4.7113,-4.7113,-4.7773,-4.8306,-4.8306,-4.8306,-4.8306,-4.8306,-4.8306,-4.8306,-4.8306,-4.8306,-4.8379,-4.8563,-4.86,-4.8673,-4.882,-4.8857,-4.915,-4.9831,-4.9867,-5.0141,-5.0802,-5.0986,-5.1059,-5.1059,-5.1059,-5.1059,-5.1059,-5.1242,-5.1316,-5.1316,-5.1316,-5.1316,-5.1316,-5.1316,-5.1316,-5.1316,-5.1316,-5.1316,-5.1316,-5.1316,-5.1206,-5.1059,-5.1059,-5.0508,-4.9831,-4.9647,-4.9114,-4.8526,-4.8379,-4.7428,-4.6389,-4.6389,-4.552,-4.4615,-4.4615,-4.4615,-4.4643,-4.4776,-4.5241,-4.5815,-4.6305,-4.6932,-4.7554,-4.8173,-4.8306,-4.8306,-4.8306,-4.8306,-4.8233,-4.8086,-4.7902,-4.7572,-4.6929,-4.6819,-4.6599,-4.5957,-4.6248,-4.6598,-4.6873,-4.7315,-4.7718,-4.8001,-4.8058,-4.7923,-4.7533,-4.6846,-4.6332,-4.6044,-4.6075,-4.6202,-4.6485,-4.6953,-4.7402,-4.7855,-4.7855,-4.8394,-3.0087,0.0,0.0,-3.99,0.0,-4.3608,-4.4011,-4.4121,-4.4232,-4.4672,-4.5369,-4.5883,-4.5883,-4.625,-4.6544,-4.6544,-4.6874,-4.7278,-4.7663,-4.7736,-4.7846,-4.8269,-4.8306,-4.8306,-4.8306,-4.8306,-4.8306,-4.8306,-4.8306,-4.8306,-4.8306,-4.8306,-4.8526,-4.8967,-4.8967,-4.9187,-4.9591,-5.0031,-5.0215,-5.0215,-5.0215,-4.9994,-4.9627,-5.0435,-5.0802,-5.0802,-5.0802,-5.0802,-5.0802,-5.0802,-5.0802,-5.0802,-5.0802,-5.0802,-5.0802,-5.0802,-5.0545,-5.0215,-5.0215,-4.9664,-4.8967,-4.8967,-4.8673,-4.8248,-4.7975,-4.7406,-4.6751,-4.6136,-4.552,-4.4961,-4.4665,-4.4615,-4.4615,-4.4615,-4.4824,-4.532,-4.6233,-4.6646,-4.7176,-4.8114,-4.8306,-4.8306,-4.8306,-4.8306,-4.8306,-4.8306,-4.8306,-4.8159,-4.7736,-4.7663,-4.7535,-4.7095,-4.7582,-4.8003,-4.8169,-4.8753,-4.9151,-4.9308,-4.9356,-4.9161,-4.8777,-4.8568,-4.794,-4.6697,-4.6916,-4.7121,-4.729,-4.7674,-4.8153,-4.8702,-4.8702,-4.9202,-3.0785,0.0,-3.7588,-4.2139,-4.3387,0.0,-4.3515,-4.3515,-4.3515,-4.3515,-4.4562,-4.5516,-4.5663,-4.57,-4.5736,-4.5883,-4.5883,-4.614,-4.6782,-4.6892,-4.7149,-4.7829,-4.7902,-4.7902,-4.7902,-4.8012,-4.8086,-4.8086,-4.8233,-4.8306,-4.8306,-4.8306,-4.8306,-4.8306,-4.8306,-4.8306,-4.8306,-4.9003,-4.939,-4.939,-4.939,-4.9003,-4.8343,-4.9738,-5.0362,-5.0362,-5.0362,-5.0362,-5.0362,-5.0362,-5.0362,-5.0362,-5.0362,-5.0362,-5.0362,-5.0362,-4.9958,-4.939,-4.939,-4.8893,-4.8306,-4.8306,-4.8306,-4.8229,-4.7715,-4.747,-4.7168,-4.5965,-4.5571,-4.5372,-4.4776,-4.4615,-4.4615,-4.4615,-4.4665,-4.5062,-4.6185,-4.6483,-4.6932,-4.8075,-4.8306,-4.8306,-4.8306,-4.8306,-4.8306,-4.8306,-4.8306,-4.8306,-4.8306,-4.8306,-4.8306,-4.8306,-4.8965,-4.9431,-4.9489,-5.0171,-5.0624,-5.0702,-5.0712,-5.0514,-5.0123,-5.0171,-4.9364,-4.7575,-4.7857,-4.8037,-4.8037,-4.8393,-4.8933,-4.9625,-4.9625,-5.001,0.0,0.0,-3.8153,0.0,-4.2983,-4.3515,0.0,0.0,-4.3515,0.0,-4.3662,-4.4011,-4.4745,-4.4856,-4.5112,-4.5773,-4.5883,-4.5957,-4.6067,-4.6067,-4.6104,-4.6214,-4.6214,-4.6214,-4.6214,-4.6874,-4.7259,-4.7259,-4.7883,-4.8306,-4.8306,-4.8306,-4.8306,-4.8306,-4.8306,-4.8306,-4.8306,-4.8416,-4.8489,-4.8489,-4.8489,-4.8416,-4.8306,-4.8526,-4.8636,-4.8636,-4.8636,-4.8636,-4.8636,-4.8636,-4.8636,-4.8636,-4.8636,-4.8636,-4.8636,-4.8636,-4.8563,-4.8489,-4.8489,-4.8416,-4.8306,-4.8306,-4.8306,-4.8287,-4.8192,-4.7818,-4.7255,-4.6483,-4.589,-4.5372,-4.4776,-4.4615,-4.4615,-4.4615,-4.4981,-4.5571,-4.6222,-4.6864,-4.747,-4.819,-4.8306,-4.8306,-4.8306,-4.8306,-4.8306,-4.8306,-4.8306,-4.8306,-4.8306,-4.8306,-4.8306,-4.8306,-4.8692,-4.9123,-4.9475,-4.9924,-5.0336,-5.0692,-5.0712,-5.0514,-5.0123,-5.0451,-5.0336,-4.9719,-4.9756,-4.9768,-4.978,-5.0148,-5.0404,-5.0519,-5.0519,-5.0596,-2.9989,-3.3917,-3.7713,0.0,-4.258,-4.2947,-4.3387,0.0,-4.3515,-4.3515,-4.3515,-4.3608,-4.3975,-4.4011,-4.4121,-4.4488,-4.4562,-4.4709,-4.5149,-4.5223,-4.5406,-4.5847,-4.5883,-4.5883,-4.5883,-4.6214,-4.6434,-4.6434,-4.7149,-4.7626,-4.7626,-4.8086,-4.8306,-4.8306,-4.8306,-4.8306,-4.8306,-4.8306,-4.8306,-4.8306,-4.8306,-4.8306,-4.8306,-4.8306,-4.8306,-4.8306,-4.8306,-4.8306,-4.8306,-4.8306,-4.8306,-4.8306,-4.8306,-4.8306,-4.8306,-4.8306,-4.8306,-4.8306,-4.8306,-4.8306,-4.8306,-4.8306,-4.8306,-4.8248,-4.7879,-4.7838,-4.7596,-4.6281,-4.594,-4.5765,-4.4824,-4.4615,-4.4615,-4.4615,-4.5062,-4.5673,-4.6246,-4.6932,-4.7554,-4.8173,-4.8306,-4.8306,-4.8306,-4.8306,-4.8306,-4.8306,-4.8306,-4.8306,-4.8306,-4.8306,-4.8306,-4.8306,-4.8676,-4.8961,-4.9139,-4.9728,-5.0171,-5.0347,-5.0584,-5.0614,-5.0451,-5.0604,-5.0614,-5.0451,-5.0451,-5.0451,-5.0451,-5.0614,-5.0712,-5.0712,-5.0712,-5.0712,-3.043,-3.3183,-3.5459,-3.9717,-4.1075,-4.1699,0.0,0.0,-4.324,0.0,-4.3515,-4.3515,-4.3515,-4.3515,-4.3515,-4.3515,-4.3515,-4.3718,-4.4305,-4.4415,-4.4635,-4.5223,-4.5296,-4.5296,-4.5296,-4.548,-4.559,-4.559,-4.6361,-4.6782,-4.6782,-4.7352,-4.7792,-4.7993,-4.8012,-4.8086,-4.8306,-4.8306,-4.8306,-4.8306,-4.8306,-4.8306,-4.8306,-4.8306,-4.8306,-4.8306,-4.8306,-4.8306,-4.8306,-4.8306,-4.8306,-4.8306,-4.8306,-4.8306,-4.8306,-4.8306,-4.8306,-4.8306,-4.8306,-4.8306,-4.8306,-4.8306,-4.8306,-4.8229,-4.7756,-4.7919,-4.7919,-4.6209,-4.6063,-4.6136,-4.4906,-4.4615,-4.4615,-4.4615,-4.5196,-4.589,-4.6542,-4.7154,-4.7756,-4.8229,-4.8306,-4.8306,-4.8306,-4.8306,-4.8306,-4.8306,-4.8306,-4.8306,-4.8306,-4.8306,-4.8306,-4.8306,-4.8568,-4.8796,-4.8878,-4.9547,-4.9987,-5.0111,-5.0483,-5.0712,-5.0712,-5.0712,-5.0712,-5.0712,-5.0712,-5.0712,-5.0712,-5.0712,-5.0712,-5.0712,-5.0712,-5.0712,-2.6062,-2.8143,-3.0528,-3.5385,-3.7771,0.0,0.0,0.0,0.0,-4.3314,-4.3515,-4.3515,-4.3515,-4.3515,-4.3515,-4.3515,-4.3515,-4.3497,-4.3551,-4.3534,-4.3588,-4.3608,-4.3608,-4.3608,-4.3608,-4.4305,-4.4764,-4.4764,-4.5516,-4.5957,-4.5957,-4.5993,-4.6361,-4.7149,-4.7149,-4.7516,-4.8306,-4.8306,-4.8306,-4.8306,-4.8306,-4.8306,-4.8306,-4.8306,-4.8306,-4.8306,-4.8306,-4.8306,-4.8306,-4.8306,-4.8306,-4.8306,-4.8306,-4.8306,-4.8306,-4.8306,-4.8306,-4.8306,-4.8306,-4.8306,-4.8306,-4.8306,-4.8306,-4.8287,-4.8267,-4.8287,-4.8035,-4.6715,-4.6365,-4.6136,-4.4906,-4.4615,-4.4615,-4.4615,-4.5494,-4.6566,-4.7176,-4.7818,-4.8267,-4.8287,-4.8306,-4.8306,-4.8306,-4.8306,-4.8306,-4.8306,-4.8306,-4.8306,-4.8306,-4.8306,-4.8306,-4.8306,-4.8325,-4.8495,-4.8881,-4.9295,-4.9687,-5.0087,-5.0483,-5.0712,-5.0712,-5.0712,-5.0712,-5.0712,-5.0712,-5.0712,-5.0712,-5.0712,-5.0712,-5.0712,-5.0712,-5.0712,-2.5227,-2.7383,0.0,-3.2449,-3.5165,-3.7514,-3.8924,-4.0818,-4.2396,-4.2653,-4.313,-4.3515,-4.3515,-4.3515,-4.3515,-4.3515,-4.3515,-4.3515,-4.3515,-4.3515,-4.3515,-4.3515,-4.3515,-4.3515,-4.3515,-4.3754,-4.3938,-4.3938,-4.4672,-4.5149,-4.5149,-4.5626,-4.603,-4.6324,-4.6324,-4.6728,-4.7516,-4.7516,-4.7773,-4.8306,-4.8306,-4.8306,-4.8306,-4.8306,-4.8306,-4.8306,-4.8306,-4.8306,-4.8306,-4.8306,-4.8306,-4.8306,-4.8306,-4.8306,-4.8306,-4.8306,-4.8306,-4.8306,-4.8306,-4.8306,-4.8306,-4.8306,-4.8306,-4.8306,-4.8306,-4.8306,-4.8114,-4.7299,-4.7044,-4.6842,-4.5965,-4.5775,-4.584,-4.6281,-4.6728,-4.7198,-4.7838,-4.8134,-4.8306,-4.8306,-4.8306,-4.8306,-4.8306,-4.8306,-4.8306,-4.8306,-4.8306,-4.8306,-4.8306,-4.8306,-4.8383,-4.8676,-4.8458,-4.8477,-4.8881,-4.9265,-4.9561,-4.9725,-5.0336,-5.0712,-5.0712,-5.0712,-5.0712,-5.0712,-5.0712,-5.0712,-5.0712,-5.0712,-5.0712,-5.0712,-5.0712,-5.0712,-2.3832,-2.5768,0.0,0.0,0.0,-3.4578,-3.7257,0.0,-4.0598,-4.1662,-4.2543,-4.3167,-4.3441,-4.3515,-4.3515,-4.3515,-4.3515,-4.3515,-4.3515,-4.3515,-4.3515,-4.3515,-4.3515,-4.3515,-4.3515,-4.3515,-4.3515,-4.3515,-4.4011,0.0,-4.4305,-4.4782,-4.5223,-4.548,-4.5773,-4.6177,-4.6672,-4.6709,-4.6985,-4.7498,-4.7792,-4.7883,-4.7883,-4.8196,-4.8306,-4.8306,-4.8306,-4.8306,-4.8306,-4.8306,-4.8306,-4.8306,-4.8306,-4.8306,-4.8306,-4.8306,-4.8306,-4.8306,-4.8306,-4.8306,-4.8306,-4.8306,-4.8306,-4.8306,-4.8306,-4.8306,-4.8153,-4.7554,-4.7406,-4.7255,-4.6553,-4.6389,-4.6589,-4.7255,-4.7406,-4.7591,-4.8153,-4.8306,-4.8306,-4.8306,-4.8306,-4.8306,-4.8306,-4.8306,-4.8306,-4.8306,-4.8306,-4.8306,-4.8306,-4.8306,-4.8402,-4.8656,-4.8586,-4.855,-4.8674,-4.9311,-4.9631,-4.9504,-5.0279,-5.0712,-5.0712,-5.0712,-5.0712,-5.0712,-5.0712,-5.0712,-5.0712,-5.0712,-5.0712,-5.0712,-5.0712,-5.0712,0.0,0.0,0.0,0.0,0.0,0.0,-3.6927,0.0,-3.711,-4.0288,-4.1589,-4.2433,-4.3294,-4.3441,-4.3478,-4.3478,-4.3478,-4.3515,-4.3515,-4.3515,-4.3515,-4.3515,-4.3515,-4.3515,-4.3515,-4.3515,-4.3515,-4.3515,-4.3515,-4.3515,-4.3515,-4.3515,-4.3864,-4.4635,-4.5406,-4.5847,-4.5847,-4.5847,-4.5883,-4.592,-4.6672,-4.7076,-4.7076,-4.7883,-4.8269,-4.8269,-4.8306,-4.8306,-4.8306,-4.8306,-4.8306,-4.8306,-4.8306,-4.8306,-4.8306,-4.8306,-4.8306,-4.8306,-4.8306,-4.8306,-4.8306,-4.8306,-4.8306,-4.8306,-4.8306,-4.8306,-4.819,-4.7575,-4.7428,-4.7277,-4.66,-4.6436,-4.66,-4.7277,-4.7428,-4.7611,-4.8153,-4.8306,-4.8306,-4.8306,-4.8306,-4.8306,-4.8306,-4.8306,-4.8306,-4.8306,-4.8306,-4.8306,-4.8343,-4.8343,-4.8343,-4.8399,-4.875,-4.8818,-4.8419,-4.9506,-5.0012,-4.9608,-5.0356,-5.0789,-5.0789,-5.075,-5.075,-5.075,-5.0712,-5.0702,-5.0692,-5.0692,-5.0692,-5.0692,-5.0692,-5.0702,-2.1886,0.0,0.0,0.0,0.0,0.0,0.0,0.0,-3.4394,-3.7074,-3.8248,-3.9423,-4.1405,-4.2249,-4.2616,-4.2616,-4.313,-4.3515,-4.3515,-4.3515,-4.3515,-4.3515,-4.3515,-4.3515,-4.3515,-4.3515,-4.3515,0.0,-4.3515,-4.3515,-4.3515,-4.3515,-4.3625,-4.3828,-4.4048,-4.4452,-4.5039,-4.5039,-4.5333,-4.5883,-4.614,-4.625,-4.625,-4.7076,-4.7443,-4.7443,-4.803,-4.8306,-4.8306,-4.8306,-4.8306,-4.8306,-4.8306,-4.8306,-4.8306,-4.8306,-4.8306,-4.8306,-4.8306,-4.8306,-4.8306,-4.8306,-4.8306,-4.8306,-4.8306,-4.8306,-4.8267,-4.8094,-4.8055,-4.8015,-4.7818,-4.7777,-4.7818,-4.8015,-4.8055,-4.8094,-4.8267,-4.8306,-4.8306,-4.8306,-4.8306,-4.8306,-4.8306,-4.8306,-4.8306,-4.8306,-4.8306,-4.8526,-4.917,-4.9243,-4.9562,-5.0379,-5.0596,-5.077,-5.097,-5.1537,-5.1853,-5.1763,-5.2203,-5.251,-5.251,-5.1895,-5.1587,-5.1587,-5.101,-5.0573,-5.0279,-5.0279,-5.0279,-5.0279,-5.0279,-5.0402,-2.3134,-2.3969,0.0,0.0,0.0,0.0,-2.8936,-3.0246,-3.1995,0.0,-3.6413,-3.7624,-3.9717,-4.0744,-4.1295,-4.1295,-4.2249,-4.313,-4.3441,-4.3515,-4.3515,-4.3515,-4.3515,-4.3515,-4.3515,-4.3515,-4.3515,-4.3515,-4.3515,-4.3515,-4.3515,-4.3515,-4.3515,-4.3515,-4.3515,-4.3718,-4.4195,-4.4195,-4.4415,-4.4892,-4.5259,-4.5406,-4.5443,-4.625,-4.6782,-4.7113,-4.759,-4.7993,-4.8306,-4.8306,-4.8306,-4.8306,-4.8306,-4.8306,-4.8306,-4.8306,-4.8306,-4.8306,-4.8306,-4.8306,-4.8306,-4.8306,-4.8306,-4.8306,-4.8306,-4.8306,-4.8306,-4.8306,-4.8306,-4.8306,-4.8306,-4.8306,-4.8306,-4.8306,-4.8306,-4.8306,-4.8306,-4.8306,-4.8306,-4.8306,-4.8306,-4.8416,-4.8783,-4.882,-4.8967,-4.9297,-4.9334,-4.9517,-5.0031,-5.0105,-5.037,-5.1008,-5.1249,-5.1459,-5.1727,-5.2271,-5.2603,-5.259,-5.2976,-5.3203,-5.3203,-5.2692,-5.2269,-5.1923,-5.1433,-5.0736,-4.9859,-5.0012,-5.0111,-5.0111,-5.0111,-5.0325,-2.5206,-2.5768,-2.7152,-2.8436,-2.731,0.0,-2.9891,-2.9696,-2.9867,0.0,-3.4835,-3.5862,-3.7588,-3.8615,-3.9203,-3.9093,-4.0671,-4.2249,-4.3204,-4.3441,-4.3515,-4.3515,-4.3515,-4.3515,-4.3515,-4.3515,-4.3515,-4.3515,-4.3515,-4.3515,-4.3515,-4.3515,-4.3515,-4.3515,-4.3515,-4.3515,-4.3515,-4.3515,-4.3515,-4.3515,-4.4232,-4.4562,-4.4599,-4.5406,-4.6214,-4.6966,-4.7076,-4.7553,-4.8306,-4.8306,-4.8306,-4.8306,-4.8306,-4.8306,-4.8306,-4.8306,-4.8306,-4.8306,-4.8306,-4.8306,-4.8306,-4.8306,-4.8306,-4.8306,-4.8306,-4.8306,-4.8306,-4.8306,-4.8306,-4.8306,-4.8306,-4.8306,-4.8306,-4.8306,-4.8306,-4.8306,-4.8306,-4.8379,-4.8453,-4.8453,-4.8453,-4.871,-4.9574,-4.9721,-4.9978,-5.0692,-5.0802,-5.0839,-5.0912,-5.0949,-5.0986,-5.1059,-5.1361,-5.1617,-5.1652,-5.2431,-5.2882,-5.2883,-5.3245,-5.3472,-5.3472,-5.3395,-5.2972,-5.2192,-5.191,-5.1085,-4.9655,-4.987,-4.9987,-5.0024,-5.0024,-5.0291,-2.8401,-2.829,-2.829,-2.7299,-2.8191,0.0,-2.6172,-2.6869,-2.8264,0.0,-2.9329,-3.0136,-3.2412,-3.399,-3.4798,-3.4137,-3.7037,-4.0157,-4.2249,-4.3094,-4.3515,-4.3515,-4.3515,-4.3515,-4.3515,-4.3515,-4.3515,-4.3515,-4.3515,-4.3515,-4.3515,-4.3515,-4.3515,-4.3515,-4.3515,-4.3515,-4.3515,-4.3515,-4.3515,-4.3515,-4.3644,-4.3718,-4.3754,-4.4562,-4.5369,-4.6177,-4.6819,-4.7553,-4.8306,-4.8306,-4.8306,-4.8306,-4.8306,-4.8306,-4.8306,-4.8306,-4.8306,-4.8306,-4.8306,-4.8306,-4.8306,-4.8306,-4.8306,-4.8306,-4.8306,-4.8306,-4.8306,-4.8306,-4.8306,-4.8306,-4.8306,-4.8306,-4.8306,-4.8306,-4.8306,-4.8306,-4.8306,-4.8857,-4.9353,-4.9353,-4.9353,-4.961,-5.0435,-5.0582,-5.0618,-5.0765,-5.0802,-5.1022,-5.1683,-5.1756,-5.2013,-5.2653,-5.3064,-5.333,-5.3348,-5.4133,-5.4611,-5.4625,-5.501,-5.5203,-5.5203,-5.4587,-5.4164,-5.401,-5.2044,-5.0847,-5.0537,-4.9602,-4.9311,-4.9603,-4.9603,-4.9999,-3.0231,-2.9867,-2.9989,-2.9182,-2.8998,0.0,0.0,-2.6612,-2.7064,-2.8668,-2.8374,-2.8532,-3.0956,-3.2045,-3.2485,-3.2082,-3.5092,-3.7771,-3.8527,-4.0781,-4.2286,-4.2286,-4.2286,-4.247,-4.2873,-4.291,-4.3057,-4.3478,-4.3515,-4.3515,-4.3515,-4.3515,-4.3515,-4.3515,-4.3515,-4.3515,-4.3515,-4.3515,-4.3515,-4.3515,-4.3515,-4.3515,-4.3497,-4.3901,-4.4525,-4.5333,-4.5718,-4.6599,-4.77,-4.77,-4.792,-4.8306,-4.8306,-4.8306,-4.8306,-4.8306,-4.8306,-4.8306,-4.8306,-4.8306,-4.8306,-4.8306,-4.8306,-4.8306,-4.8306,-4.8306,-4.8306,-4.8306,-4.8306,-4.8306,-4.8306,-4.8306,-4.8306,-4.8306,-4.8306,-4.8416,-4.8857,-4.9297,-4.9831,-5.0639,-5.0822,-5.0932,-5.1316,-5.1389,-5.1536,-5.194,-5.2013,-5.216,-5.2564,-5.2601,-5.2747,-5.3188,-5.338,-5.3585,-5.3758,-5.4183,-5.4541,-5.4775,-5.5173,-5.5399,-5.5399,-5.5204,-5.4895,-5.4511,-5.2447,-5.1405,-5.1405,-5.0567,-4.9931,-4.9504,-4.9725,-5.0135,-3.244,-3.2082,-3.2364,-3.1458,0.0,-2.901,0.0,0.0,0.0,-2.8594,-2.8007,0.0,0.0,0.0,0.0,0.0,0.0,0.0,0.0,-3.6986,0.0,-4.0104,-4.0435,-4.0875,-4.1552,-4.1625,-4.1992,-4.2947,-4.2873,-4.2964,-4.324,-4.3441,-4.3515,-4.3515,-4.3515,-4.3515,-4.3515,-4.3515,-4.3515,-4.3515,-4.3515,-4.3515,-4.3515,-4.3515,-4.3938,-4.4691,-4.4691,-4.5535,-4.6892,-4.7039,-4.748,-4.8067,-4.8233,-4.8306,-4.8306,-4.8306,-4.8306,-4.8306,-4.8306,-4.8306,-4.8306,-4.8306,-4.8306,-4.8306,-4.8306,-4.8306,-4.8306,-4.8306,-4.8306,-4.8306,-4.8306,-4.8306,-4.8306,-4.8306,-4.8416,-4.8746,-4.9463,-4.9831,-5.0455,-5.1756,-5.2123,-5.2234,-5.2234,-5.2234,-5.2454,-5.3093,-5.3203,-5.3203,-5.3203,-5.3203,-5.3203,-5.3203,-5.3203,-5.3318,-5.3644,-5.3758,-5.3959,-5.4338,-5.4819,-5.5107,-5.5107,-5.547,-5.5395,-5.4741,-5.3093,-5.2235,-5.2235,-5.1753,-5.0986,-4.9994,-5.0253,-5.0505,0.0,0.0,0.0,0.0,-3.2428,-3.2573,0.0,0.0,-2.7027,-2.5254,0.0,0.0,0.0,0.0,0.0,0.0,0.0,0.0,-2.8815,-3.1458,-3.438,-3.6597,-3.8102,-3.9019,-3.9093,-3.9129,-3.9753,-4.1242,-4.0708,-4.0928,-4.2359,-4.3094,-4.3515,-4.3515,-4.3515,-4.3515,-4.3515,-4.3515,-4.3515,-4.3515,-4.3515,-4.3515,-4.3515,-4.3515,-4.3938,-4.4691,-4.4691,-4.5223,-4.6104,-4.6819,-4.7149,-4.7296,-4.7993,-4.8306,-4.8306,-4.8306,-4.8306,-4.8306,-4.8306,-4.8306,-4.8306,-4.8306,-4.8306,-4.8306,-4.8306,-4.8306,-4.8306,-4.8306,-4.8306,-4.8306,-4.8306,-4.8306,-4.8306,-4.8306,-4.8893,-4.95,-4.9574,-5.0712,-5.1756,-5.194,-5.2564,-5.3078,-5.3078,-5.3078,-5.3093,-5.3188,-5.3203,-5.3203,-5.3203,-5.3203,-5.3203,-5.3203,-5.3203,-5.3246,-5.3272,-5.3604,-5.3814,-5.3869,-5.4633,-5.5107,-5.5107,-5.547,-5.5665,-5.5549,-5.393,-5.3081,-5.3066,-5.2303,-5.185,-5.1707,-5.1507,-5.1159,0.0,0.0,0.0,0.0,0.0,0.0,-2.7473,0.0,-2.6256,0.0,0.0,0.0,0.0,0.0,0.0,0.0,-2.71,0.0,0.0,0.0,-3.1225,0.0,0.0,0.0,-3.6399,-3.7,-3.7991,-3.9606,-3.8946,-3.9423,-4.1499,-4.2359,-4.302,-4.3515,-4.3515,-4.3515,-4.3515,-4.3515,-4.3515,-4.3515,-4.3515,-4.3515,-4.3515,-4.3515,-4.3681,-4.4011,-4.4011,-4.4452,-4.5223,-4.5572,-4.6269,-4.7113,-4.748,-4.7902,-4.8306,-4.8306,-4.8306,-4.8306,-4.8306,-4.8306,-4.8306,-4.8306,-4.8306,-4.8306,-4.8306,-4.8306,-4.8306,-4.8306,-4.8306,-4.8306,-4.8306,-4.8306,-4.8416,-4.893,-4.9353,-4.9867,-5.0785,-5.1499,-5.2123,-5.2601,-5.2968,-5.3203,-5.3203,-5.3203,-5.3203,-5.3203,-5.3203,-5.3203,-5.3203,-5.3203,-5.3203,-5.3203,-5.3203,-5.3203,-5.3203,-5.3359,-5.3444,-5.3444,-5.4272,-5.4947,-5.5423,-5.5599,-5.5703,-5.5703,-5.4778,-5.424,-5.4202,-5.386,-5.358,-5.3428,-5.2511,-5.1585,-3.9097,0.0,0.0,0.0,0.0,0.0,0.0,0.0,0.0,0.0,0.0,0.0,0.0,0.0,0.0,0.0,0.0,-2.7383,0.0,-2.7163,0.0,0.0,0.0,0.0,0.0,-3.405,-3.5165,-3.7221,-3.6597,-3.7404,-4.0288,-4.1405,-4.2323,-4.313,-4.3404,-4.3515,-4.3515,-4.3515,-4.3515,-4.3515,-4.3515,-4.3515,-4.3515,-4.3515,-4.3515,-4.3515,-4.3515,-4.3828,-4.4378,-4.4635,-4.5498,-4.6782,-4.7003,-4.759,-4.8306,-4.8306,-4.8306,-4.8306,-4.8306,-4.8306,-4.8306,-4.8306,-4.8306,-4.8306,-4.8306,-4.8306,-4.8306,-4.8306,-4.8306,-4.8379,-4.86,-4.8673,-4.8857,-4.9738,-5.0088,-5.0602,-5.1756,-5.216,-5.2491,-5.3115,-5.3203,-5.3203,-5.3203,-5.3203,-5.3203,-5.3203,-5.3203,-5.3203,-5.3203,-5.3203,-5.3203,-5.3203,-5.3203,-5.3203,-5.3203,-5.3203,-5.3314,-5.3543,-5.4156,-5.4848,-5.5682,-5.5703,-5.5703,-5.5703,-5.5287,-5.4993,-5.4917,-5.4827,-5.4547,-5.4114,-5.3579,-5.2864,0.0,0.0,0.0,-3.3883,0.0,0.0,0.0,0.0,-2.8656,0.0,0.0,0.0,0.0,0.0,0.0,0.0,0.0,0.0,0.0,0.0,0.0,0.0,0.0,0.0,0.0,-2.9684,-3.0564,0.0,-3.3206,-3.4527,-3.8579,-4.0288,-4.1499,-4.2323,-4.3094,-4.3515,-4.3515,-4.3515,-4.3515,-4.3515,-4.3515,-4.3515,-4.3515,-4.3515,-4.3515,-4.3515,-4.3515,-4.3497,-4.3625,-4.4378,-4.5186,-4.603,-4.6782,-4.759,-4.8306,-4.8306,-4.8306,-4.8306,-4.8306,-4.8306,-4.8306,-4.8306,-4.8306,-4.8306,-4.8306,-4.8306,-4.8306,-4.8306,-4.8306,-4.8489,-4.9353,-4.9574,-4.9757,-5.0582,-5.1353,-5.194,-5.1977,-5.2601,-5.3167,-5.3167,-5.3203,-5.3203,-5.3203,-5.3203,-5.3203,-5.3203,-5.3203,-5.3203,-5.3203,-5.3203,-5.3203,-5.3203,-5.3203,-5.3203,-5.3203,-5.3203,-5.3563,-5.4425,-5.4468,-5.4848,-5.5682,-5.5703,-5.5703,-5.5703,-5.5173,-5.4917,-5.4917,-5.4636,-5.4076,-5.3274,-5.4856,-5.5549,0.0,0.0,-4.2326,-3.7145,0.0,0.0,0.0,0.0,0.0,0.0,0.0,0.0,0.0,0.0,0.0,0.0,0.0,0.0,0.0,0.0,0.0,0.0,0.0,0.0,0.0,0.0,0.0,-3.2021,-3.1971,0.0,-3.7713,-3.9423,-4.0928,-4.2249,-4.3057,-4.3515,-4.3515,-4.3515,-4.3515,-4.3515,-4.3515,-4.3515,-4.3515,-4.3515,-4.3515,-4.3515,-4.3515,-4.3515,-4.3515,-4.3791,-4.4672,-4.592,-4.6214,-4.7131,-4.8306,-4.8306,-4.8306,-4.8306,-4.8306,-4.8306,-4.8306,-4.8306,-4.8306,-4.8306,-4.8306,-4.8306,-4.8306,-4.8306,-4.871,-4.9224,-4.9537,-5.0014,-5.0582,-5.1389,-5.1793,-5.216,-5.2674,-5.3004,-5.3203,-5.3203,-5.3203,-5.3203,-5.3203,-5.3203,-5.3203,-5.3203,-5.3203,-5.3203,-5.3203,-5.3203,-5.3203,-5.3203,-5.3203,-5.3203,-5.3203,-5.3203,-5.3563,-5.4436,-5.4484,-5.4848,-5.5682,-5.5703,-5.5703,-5.5703,-5.5527,-5.5443,-5.5443,-5.5355,-5.5125,-5.4883,-5.5429,-5.5703,-4.3739,-4.3893,0.0,-3.9184,-3.7755,0.0,-3.2108,0.0,-3.3441,0.0,0.0,0.0,0.0,0.0,0.0,0.0,0.0,0.0,0.0,-2.4626,0.0,0.0,0.0,0.0,0.0,0.0,-2.7346,-3.032,-3.0283,0.0,0.0,-3.8006,-3.979,-4.1405,-4.2506,-4.3221,-4.3515,-4.3515,-4.3515,-4.3515,-4.3515,-4.3515,-4.3515,-4.3515,-4.3515,-4.3515,-4.3515,-4.3515,-4.3515,-4.3515,-4.4268,-4.5516,-4.5773,-4.6728,-4.7883,-4.8196,-4.8306,-4.8306,-4.8306,-4.8306,-4.8306,-4.8306,-4.8306,-4.8306,-4.8306,-4.8306,-4.8379,-4.8673,-4.915,-4.9721,-5.0308,-5.0839,-5.1426,-5.2234,-5.2417,-5.2564,-5.3115,-5.3203,-5.3203,-5.3203,-5.3203,-5.3203,-5.3203,-5.3203,-5.3203,-5.3203,-5.3203,-5.3203,-5.3203,-5.3203,-5.3203,-5.3203,-5.3203,-5.3203,-5.3203,-5.3318,-5.3739,-5.4436,-5.4625,-5.4988,-5.5692,-5.5703,-5.5703,-5.5703,-5.5703,-5.5703,-5.5703,-5.5703,-5.5703,-5.5703,-5.5703,-5.5703]},{"header":{"parameterUnit":"m.s-1","parameterCategory":1,"la1":30.6,"la2":29.2853,"lo1":-89.7004,"lo2":-87.6739,"dy":0.0162,"dx":0.0183,"nx":112,"ny":82,"refTime":"2026-04-29T00:00:00:Z","depth":0,"parameterNumber":3,"parameterNumberName":"V-component_of_WINDS"},"data":[0.0,0.0,0.0,0.0,0.0,0.0,0.0,0.0,0.0,0.0,0.0,0.0,0.0,0.0,0.0,0.0,0.0,0.0,0.0,0.0,0.0,0.0,0.0,0.0,0.0,0.0,0.0,0.0,0.0,0.0,0.0,0.0,0.0,0.0,0.0,0.0,0.0,0.0,0.0,0.0,0.0,0.0,0.0,0.0,0.0,0.0,0.0,0.0,0.0,0.0,0.0,0.0,0.0,0.0,0.0,0.0,0.0,0.0,0.0,0.0,0.0,0.0,0.0,0.0,0.0,0.0,0.0,0.0,0.0,0.0,0.0,0.0,0.0,0.0,0.0,0.0,0.0,0.0,0.0,0.0,0.0,0.0,0.0,0.0,0.0,0.0,0.0,0.0,0.0,0.0,-1.376,-1.4763,-1.6486,-1.7527,-1.7286,-1.7192,-1.6112,-1.3813,0.0,0.0,0.0,0.0,0.0,0.0,0.0,0.0,0.0,0.0,0.0,0.0,0.0,0.0,0.0,0.0,0.0,0.0,0.0,0.0,0.0,0.0,0.0,0.0,0.0,0.0,0.0,0.0,0.0,0.0,0.0,0.0,0.0,0.0,0.0,0.0,0.0,0.0,0.0,0.0,0.0,0.0,0.0,0.0,0.0,0.0,0.0,0.0,0.0,0.0,0.0,0.0,0.0,0.0,0.0,0.0,0.0,0.0,0.0,0.0,0.0,0.0,0.0,0.0,0.0,0.0,0.0,0.0,0.0,0.0,0.0,0.0,0.0,0.0,0.0,0.0,0.0,0.0,0.0,0.0,0.0,0.0,0.0,0.0,0.0,0.0,0.0,0.0,0.0,0.0,0.0,0.0,0.0,0.0,0.0,0.0,0.0,0.0,0.0,0.0,0.0,0.0,0.0,0.0,-1.3494,-1.6099,-1.7101,-1.7569,-1.7515,-1.7061,-1.5992,-1.4135,0.0,0.0,0.0,0.0,0.0,0.0,0.0,0.0,0.0,0.0,0.0,0.0,0.0,0.0,0.0,0.0,0.0,0.0,0.0,0.0,0.0,0.0,0.0,0.0,0.0,0.0,0.0,0.0,0.0,0.0,0.0,0.0,0.0,0.0,0.0,0.0,0.0,0.0,0.0,0.0,0.0,0.0,0.0,0.0,0.0,0.0,0.0,0.0,0.0,0.0,0.0,0.0,0.0,0.0,0.0,0.0,0.0,0.0,0.0,0.0,0.0,0.0,0.0,0.0,0.0,0.0,0.0,0.0,0.0,0.0,0.0,0.0,0.0,0.0,0.0,0.0,0.0,0.0,0.0,0.0,0.0,0.0,0.0,0.0,0.0,0.0,0.0,0.0,0.0,0.0,0.0,0.0,0.0,0.0,0.0,0.0,0.0,0.0,0.0,0.0,0.0,0.0,0.0,-1.3253,-1.4389,-1.67,-1.7328,-1.7582,-1.7582,-1.7048,-1.5952,-1.4202,-1.3093,0.0,0.0,0.0,0.0,0.0,0.0,0.0,0.0,0.0,0.0,0.0,0.0,0.0,0.0,0.0,0.0,0.0,0.0,0.0,0.0,0.0,0.0,0.0,0.0,0.0,0.0,0.0,0.0,0.0,0.0,0.0,0.0,0.0,0.0,0.0,0.0,0.0,0.0,0.0,0.0,0.0,0.0,0.0,0.0,0.0,0.0,0.0,0.0,0.0,0.0,0.0,0.0,0.0,0.0,0.0,0.0,0.0,0.0,0.0,0.0,0.0,0.0,0.0,0.0,0.0,0.0,0.0,0.0,0.0,0.0,0.0,0.0,0.0,0.0,0.0,0.0,0.0,0.0,0.0,0.0,0.0,0.0,0.0,0.0,0.0,0.0,0.0,0.0,0.0,0.0,0.0,0.0,0.0,0.0,0.0,0.0,0.0,0.0,0.0,0.0,0.0,0.0,-1.4643,-1.5578,-1.7045,-1.746,-1.7582,-1.7582,-1.6847,-1.5738,-1.4188,-1.2772,0.0,0.0,0.0,0.0,0.0,0.0,0.0,0.0,0.0,0.0,0.0,0.0,0.0,0.0,0.0,0.0,0.0,0.0,0.0,0.0,0.0,0.0,0.0,0.0,0.0,0.0,0.0,0.0,0.0,0.0,0.0,0.0,0.0,0.0,0.0,0.0,0.0,0.0,0.0,0.0,0.0,0.0,0.0,0.0,0.0,0.0,0.0,0.0,0.0,0.0,0.0,0.0,0.0,0.0,0.0,0.0,0.0,0.0,0.0,0.0,0.0,0.0,0.0,0.0,0.0,0.0,0.0,0.0,0.0,0.0,0.0,0.0,0.0,0.0,0.0,0.0,0.0,0.0,0.0,0.0,0.0,0.0,0.0,0.0,0.0,0.0,0.0,0.0,0.0,0.0,0.0,0.0,0.0,0.0,0.0,0.0,0.0,0.0,0.0,0.0,0.0,0.0,-1.503,-1.67,-1.7152,-1.746,-1.7582,-1.7582,-1.6299,-1.5084,-1.4148,-1.2198,0.0,0.0,0.0,0.0,0.0,0.0,0.0,0.0,0.0,0.0,0.0,0.0,0.0,0.0,0.0,0.0,0.0,0.0,0.0,0.0,0.0,0.0,0.0,0.0,0.0,0.0,0.0,0.0,0.0,0.0,0.0,0.0,0.0,0.0,0.0,0.0,0.0,0.0,0.0,0.0,0.0,0.0,0.0,0.0,0.0,0.0,0.0,0.0,0.0,0.0,0.0,0.0,0.0,0.0,0.0,0.0,0.0,0.0,0.0,0.0,0.0,0.0,0.0,0.0,0.0,0.0,0.0,0.0,0.0,0.0,0.0,0.0,0.0,0.0,0.0,0.0,0.0,0.0,0.0,0.0,0.0,0.0,0.0,0.0,0.0,0.0,0.0,0.0,0.0,0.0,0.0,0.0,0.0,0.0,0.0,0.0,0.0,0.0,0.0,0.0,0.0,0.0,-1.4593,-1.6086,-1.734,-1.7515,-1.7515,-1.738,-1.6633,-1.5444,-1.3654,0.0,0.0,0.0,0.0,0.0,0.0,0.0,0.0,0.0,0.0,0.0,0.0,0.0,0.0,0.0,0.0,0.0,0.0,0.0,0.0,0.0,0.0,0.0,0.0,0.0,0.0,0.0,0.0,0.0,0.0,0.0,0.0,0.0,0.0,0.0,0.0,0.0,0.0,0.0,0.0,0.0,0.0,0.0,0.0,0.0,0.0,0.0,0.0,0.0,0.0,0.0,0.0,0.0,0.0,0.0,0.0,0.0,0.0,0.0,0.0,0.0,0.0,0.0,0.0,0.0,0.0,0.0,0.0,0.0,0.0,0.0,0.0,0.0,0.0,0.0,0.0,0.0,0.0,0.0,0.0,0.0,0.0,0.0,0.0,0.0,0.0,0.0,0.0,0.0,0.0,0.0,0.0,0.0,0.0,0.0,0.0,0.0,0.0,0.0,0.0,0.0,0.0,-1.3026,-1.4563,-1.6046,-1.7435,-1.7582,-1.7554,-1.7353,-1.6593,-1.5351,-1.3467,0.0,0.0,0.0,0.0,0.0,0.0,0.0,0.0,0.0,0.0,0.0,0.0,0.0,0.0,0.0,0.0,0.0,0.0,0.0,0.0,0.0,0.0,0.0,0.0,0.0,0.0,0.0,0.0,0.0,0.0,0.0,0.0,0.0,0.0,0.0,0.0,0.0,0.0,0.0,0.0,0.0,0.0,0.0,0.0,0.0,0.0,0.0,0.0,0.0,0.0,0.0,0.0,0.0,0.0,0.0,0.0,0.0,0.0,0.0,0.0,0.0,0.0,0.0,0.0,0.0,0.0,0.0,0.0,0.0,0.0,0.0,0.0,0.0,0.0,0.0,0.0,0.0,0.0,0.0,0.0,0.0,0.0,0.0,0.0,0.0,0.0,0.0,0.0,0.0,0.0,0.0,0.0,0.0,0.0,0.0,0.0,0.0,0.0,0.0,0.0,0.0,0.0,-1.3133,-1.5257,-1.6927,-1.7515,-1.7582,-1.7582,-1.7582,-1.6027,-1.4589,0.0,0.0,0.0,0.0,0.0,0.0,0.0,0.0,0.0,0.0,0.0,0.0,0.0,0.0,0.0,0.0,0.0,0.0,0.0,0.0,0.0,0.0,0.0,0.0,0.0,0.0,0.0,0.0,0.0,0.0,0.0,0.0,0.0,0.0,0.0,0.0,0.0,0.0,0.0,0.0,0.0,0.0,0.0,0.0,0.0,0.0,0.0,0.0,0.0,0.0,0.0,0.0,0.0,0.0,0.0,0.0,0.0,0.0,0.0,0.0,0.0,0.0,0.0,0.0,0.0,0.0,0.0,0.0,0.0,0.0,0.0,0.0,0.0,0.0,0.0,0.0,0.0,0.0,0.0,0.0,0.0,0.0,0.0,0.0,0.0,0.0,0.0,0.0,0.0,0.0,0.0,0.0,0.0,0.0,0.0,0.0,0.0,0.0,0.0,0.0,0.0,0.0,0.0,-1.3133,-1.5257,-1.6927,-1.7515,-1.7582,-1.7502,-1.734,-1.6469,-1.5115,-1.3172,0.0,0.0,0.0,0.0,0.0,0.0,0.0,0.0,0.0,0.0,0.0,0.0,0.0,0.0,0.0,0.0,0.0,0.0,0.0,0.0,0.0,0.0,0.0,0.0,0.0,0.0,0.0,0.0,0.0,0.0,0.0,0.0,0.0,0.0,0.0,0.0,0.0,0.0,0.0,0.0,0.0,0.0,0.0,0.0,0.0,0.0,0.0,0.0,0.0,0.0,0.0,0.0,0.0,0.0,0.0,0.0,0.0,0.0,0.0,0.0,0.0,0.0,0.0,0.0,0.0,0.0,0.0,0.0,0.0,0.0,0.0,0.0,0.0,0.0,0.0,0.0,0.0,0.0,0.0,0.0,0.0,0.0,0.0,0.0,0.0,0.0,0.0,0.0,0.0,0.0,0.0,0.0,0.0,0.0,0.0,0.0,0.0,0.0,0.0,0.0,0.0,0.0,-1.3133,-1.5257,-1.6927,-1.7515,-1.7582,-1.7515,-1.7393,-1.6723,-1.541,-1.324,0.0,0.0,0.0,0.0,0.0,0.0,0.0,0.0,0.0,0.0,0.0,0.0,0.0,0.0,0.0,0.0,0.0,0.0,0.0,0.0,0.0,0.0,0.0,0.0,0.0,0.0,0.0,0.0,0.0,0.0,0.0,0.0,0.0,0.0,0.0,0.0,0.0,0.0,0.0,0.0,0.0,0.0,0.0,0.0,0.0,0.0,0.0,0.0,0.0,0.0,0.0,0.0,0.0,0.0,0.0,0.0,0.0,0.0,0.0,0.0,0.0,0.0,0.0,0.0,0.0,0.0,0.0,0.0,0.0,0.0,0.0,0.0,0.0,0.0,0.0,0.0,0.0,0.0,0.0,0.0,0.0,0.0,0.0,0.0,0.0,0.0,0.0,0.0,0.0,0.0,0.0,0.0,0.0,0.0,0.0,0.0,0.0,0.0,0.0,0.0,0.0,0.0,-1.3173,-1.5271,-1.6927,-1.7515,-1.7582,-1.7582,-1.7582,-1.678,-1.5538,-1.3746,0.0,0.0,0.0,0.0,0.0,0.0,0.0,0.0,0.0,0.0,0.0,0.0,0.0,0.0,0.0,0.0,0.0,0.0,0.0,0.0,0.0,0.0,0.0,0.0,0.0,0.0,0.0,0.0,0.0,0.0,0.0,0.0,0.0,0.0,0.0,0.0,0.0,0.0,0.0,0.0,0.0,0.0,0.0,0.0,0.0,0.0,0.0,0.0,0.0,0.0,0.0,0.0,0.0,0.0,0.0,0.0,0.0,0.0,0.0,0.0,-1.8592,0.0,0.0,0.0,0.0,0.0,0.0,0.0,0.0,0.0,0.0,0.0,0.0,0.0,0.0,0.0,0.0,0.0,0.0,0.0,0.0,0.0,0.0,0.0,0.0,0.0,0.0,0.0,0.0,0.0,0.0,0.0,0.0,0.0,0.0,0.0,0.0,0.0,0.0,0.0,0.0,0.0,-1.34,-1.5391,-1.6927,-1.7515,-1.7582,-1.7582,-1.7582,-1.678,-1.5618,-1.4095,-1.269,0.0,0.0,0.0,0.0,0.0,0.0,0.0,0.0,0.0,0.0,0.0,0.0,0.0,0.0,0.0,0.0,0.0,0.0,0.0,0.0,0.0,0.0,0.0,0.0,0.0,0.0,0.0,0.0,0.0,0.0,0.0,0.0,0.0,0.0,0.0,0.0,0.0,0.0,0.0,0.0,0.0,0.0,0.0,0.0,0.0,0.0,0.0,0.0,0.0,0.0,0.0,0.0,0.0,0.0,0.0,0.0,0.0,0.0,0.0,0.0,-1.9792,0.0,0.0,0.0,0.0,0.0,0.0,0.0,0.0,0.0,0.0,0.0,0.0,0.0,0.0,0.0,0.0,0.0,0.0,0.0,0.0,0.0,0.0,0.0,0.0,0.0,0.0,0.0,0.0,0.0,0.0,0.0,0.0,0.0,0.0,0.0,0.0,0.0,0.0,0.0,0.0,-1.3493,-1.5385,-1.6927,-1.7515,-1.7582,-1.7528,-1.7434,-1.682,-1.5858,-1.4389,-1.3173,0.0,0.0,0.0,0.0,0.0,0.0,0.0,0.0,0.0,0.0,0.0,0.0,0.0,0.0,0.0,0.0,0.0,0.0,0.0,0.0,0.0,0.0,0.0,0.0,0.0,0.0,0.0,0.0,0.0,0.0,0.0,0.0,0.0,0.0,0.0,0.0,0.0,0.0,0.0,0.0,0.0,0.0,0.0,0.0,0.0,0.0,0.0,0.0,0.0,0.0,0.0,0.0,0.0,-2.3627,-2.4121,-2.4127,-2.4863,-2.5352,-2.5575,-2.3848,-2.2673,-2.182,-2.0633,0.0,0.0,0.0,0.0,0.0,0.0,0.0,0.0,0.0,0.0,0.0,0.0,0.0,0.0,0.0,0.0,0.0,0.0,0.0,0.0,0.0,0.0,0.0,0.0,-1.6052,-1.6994,-1.4836,0.0,0.0,0.0,0.0,0.0,0.0,0.0,0.0,0.0,0.0,0.0,-1.3748,-1.5538,-1.6927,-1.7515,-1.7582,-1.7514,-1.7233,-1.6874,-1.6126,-1.4763,-1.3854,-1.2639,0.0,0.0,0.0,0.0,0.0,0.0,0.0,0.0,0.0,0.0,0.0,0.0,0.0,0.0,0.0,0.0,0.0,0.0,0.0,0.0,0.0,0.0,0.0,0.0,0.0,0.0,0.0,0.0,0.0,0.0,0.0,0.0,-1.0645,-1.0401,0.0,0.0,0.0,0.0,0.0,0.0,0.0,0.0,0.0,0.0,0.0,0.0,0.0,-2.0668,-2.1839,-2.3916,-2.5256,-2.582,-2.7402,-2.7969,-2.7637,-2.8105,-2.8164,-2.7871,-2.7949,0.0,-2.5005,-2.3771,0.0,0.0,0.0,0.0,0.0,0.0,0.0,0.0,0.0,0.0,0.0,0.0,0.0,0.0,0.0,0.0,0.0,0.0,0.0,0.0,0.0,0.0,-1.8286,-1.7814,-1.8784,-1.9933,0.0,-1.8035,-1.589,-1.5033,-1.4187,0.0,0.0,0.0,0.0,0.0,0.0,0.0,-1.4734,-1.5912,-1.6927,-1.7515,-1.7582,-1.7514,-1.7233,-1.6874,-1.6299,-1.5337,-1.4456,-1.3561,-1.2529,-1.1229,0.0,0.0,0.0,0.0,0.0,0.0,0.0,0.0,0.0,0.0,0.0,0.0,0.0,0.0,0.0,0.0,0.0,0.0,0.0,0.0,0.0,0.0,0.0,0.0,0.0,0.0,0.0,0.0,0.0,-0.9729,-1.1051,-1.0833,-1.1539,-1.1825,0.0,0.0,0.0,0.0,0.0,0.0,0.0,0.0,0.0,-2.15,-2.3045,-2.4364,-2.5347,-2.6788,-2.7617,-2.7812,-2.8809,-2.918,-2.9023,-2.9199,-2.9316,-2.9355,-2.9316,-2.8887,-2.8105,-2.6328,-2.4346,-2.2269,0.0,0.0,0.0,0.0,-1.9339,-1.9887,-2.0223,-2.049,-2.0422,-1.8722,0.0,0.0,0.0,0.0,0.0,0.0,0.0,0.0,0.0,0.0,-1.8709,-1.8799,-2.0557,-2.2206,-2.2261,-2.1548,-2.0301,0.0,-1.7892,-1.7097,-1.4597,0.0,0.0,0.0,0.0,-1.4998,-1.5192,-1.6233,-1.7114,-1.7542,-1.7487,-1.7273,-1.6927,-1.6633,-1.6152,-1.5444,-1.4723,-1.4001,-1.328,-1.2033,-1.0975,0.0,0.0,0.0,0.0,0.0,0.0,0.0,0.0,0.0,0.0,0.0,0.0,0.0,0.0,0.0,0.0,0.0,0.0,0.0,0.0,0.0,0.0,0.0,0.0,0.0,0.0,0.0,0.0,-1.0766,-1.1847,-1.1812,-1.2799,-1.3425,0.0,0.0,0.0,0.0,0.0,0.0,-2.0153,-2.175,-2.3298,-2.4839,-2.6268,-2.7402,-2.8198,-2.8887,-2.9238,-2.9258,-2.9707,-2.9902,-2.9902,-2.9902,-3.0078,-3.0351,-3.0039,-3.0019,-3.0059,-2.8242,-2.6484,-2.4836,-2.3531,-2.2372,-2.1417,-2.1735,-2.2053,-2.2434,-2.3223,-2.35,-2.3131,-2.1298,-1.9065,-1.6888,-1.5811,0.0,0.0,0.0,0.0,-1.4599,-1.5591,-1.7496,-1.9293,-1.9753,-2.2062,-2.4122,-2.3761,-2.4155,-2.3848,0.0,-2.1229,-2.0508,-1.7207,0.0,0.0,0.0,-1.5217,-1.6137,-1.5683,-1.6563,-1.7286,-1.7501,-1.7326,-1.7045,-1.662,-1.6393,-1.6019,-1.5431,-1.491,-1.4402,-1.384,-1.2732,-1.1779,-1.1055,0.0,0.0,0.0,0.0,0.0,0.0,0.0,0.0,0.0,0.0,0.0,0.0,0.0,0.0,0.0,0.0,0.0,0.0,0.0,0.0,0.0,0.0,0.0,0.0,0.0,0.0,0.0,0.0,0.0,-1.4067,-1.6182,0.0,0.0,0.0,0.0,-1.9286,-2.043,-2.1976,-2.3997,-2.5392,-2.6746,-2.8033,-2.8501,-2.9004,-2.9528,-2.9902,-3.0137,-3.0137,-3.0605,-3.082,-3.082,-3.082,-3.084,-3.0859,-3.084,-3.0586,-3.0137,-2.9199,-2.8516,-2.7988,-2.7097,-2.5597,-2.4025,-2.5039,-2.4808,-2.4184,-2.571,-2.5571,-2.4434,-2.2722,-1.9537,-1.6365,-1.6284,-1.5806,0.0,0.0,-1.6112,-1.6633,-1.7018,-1.9299,-2.1526,-2.1559,-2.3633,-2.5577,-2.5557,-2.5304,-2.4793,0.0,-2.2969,-2.2087,-2.1053,0.0,-1.9596,-1.7209,-1.7443,-1.7488,-1.6402,-1.6817,-1.7206,-1.7219,-1.7206,-1.6965,-1.6388,-1.6335,-1.6019,-1.5431,-1.511,-1.4803,-1.4482,-1.3373,-1.2583,-1.2225,-1.1735,0.0,0.0,0.0,0.0,0.0,0.0,0.0,0.0,0.0,0.0,0.0,0.0,0.0,0.0,0.0,0.0,0.0,0.0,0.0,0.0,0.0,0.0,0.0,0.0,0.0,0.0,0.0,0.0,-1.563,-1.7792,0.0,-1.8914,-1.9937,-2.1225,-2.2615,-2.4074,-2.5546,-2.6855,-2.7617,-2.8476,-2.9492,-2.9668,-2.9961,-3.041,-3.084,-3.1055,-3.1055,-3.1504,-3.1719,-3.1699,-3.1426,-3.1289,-3.1269,-3.1016,-3.0179,-2.9034,-2.8737,-2.8012,-2.6995,-2.5679,-2.4508,-2.3715,-2.4188,-2.4115,-2.4002,-2.5645,-2.4525,-2.2164,-2.0392,-1.9367,-1.8531,-1.7476,-1.6884,-1.6738,-1.7725,-1.816,-1.8405,-1.8671,-2.0189,-2.144,-2.0538,-2.2416,-2.4196,-2.3335,-2.3673,-2.3834,-2.2699,-2.2467,-2.178,-1.9739,-1.973,-1.9299,-1.7108,-1.7583,-1.7875,-1.6968,-1.7072,-1.7206,-1.7206,-1.6857,-1.6549,-1.6335,-1.5925,-1.5618,-1.5404,-1.4763,-1.4349,-1.4242,-1.332,-1.2556,-1.2074,-1.1895,-1.1429,0.0,0.0,0.0,0.0,0.0,0.0,0.0,0.0,0.0,0.0,0.0,0.0,0.0,0.0,0.0,0.0,0.0,0.0,0.0,0.0,0.0,0.0,0.0,0.0,0.0,0.0,-1.6576,-1.7435,-1.9662,-2.1384,-2.1945,-2.3035,-2.4222,-2.5421,-2.6719,-2.7754,-2.8476,-2.9043,-2.9609,-3.0176,-3.0351,-3.0644,-3.1094,-3.1387,-3.1582,-3.1738,-3.2031,-3.2229,-3.2209,-3.1875,-3.166,-3.1444,-3.0659,-2.9602,-2.8307,-2.7211,-2.6287,-2.5451,-2.4779,-2.4021,-2.3336,-2.378,-2.361,-2.3198,-2.4245,-2.3077,-2.084,-1.918,-1.9071,-1.9345,-1.8089,-1.7609,-1.7735,-1.8986,-1.9314,-1.9511,-2.0133,-2.1355,-2.2165,-2.1202,-2.2366,-2.3484,-2.2567,-2.2717,-2.2767,-2.1845,-2.1957,-2.1552,-1.9594,-1.9745,-1.9431,-1.7424,-1.793,-1.8139,-1.7049,-1.7072,-1.7125,-1.6924,-1.6563,-1.6233,-1.6126,-1.5591,-1.5257,-1.5257,-1.4429,-1.3935,-1.3935,-1.3066,-1.2449,-1.2024,-1.2043,-1.1853,-1.1507,0.0,0.0,0.0,0.0,0.0,0.0,0.0,0.0,0.0,0.0,0.0,0.0,0.0,0.0,0.0,0.0,0.0,0.0,0.0,0.0,0.0,0.0,0.0,-1.3437,-1.5777,-1.8068,-1.9467,-2.2075,-2.4165,-2.5061,-2.5937,-2.6797,-2.7669,-2.8105,-2.8535,-2.8945,-2.9766,-3.0215,-3.0215,-3.0664,-3.1113,-3.1504,-3.1543,-3.1777,-3.2248,-3.2207,-3.2268,-3.2268,-3.2187,-3.1953,-3.1345,-2.9767,-2.8787,-2.7991,-2.4901,-2.3574,-2.3606,-2.4763,-2.4335,-2.3172,-2.4177,-2.352,-2.2019,-2.1705,-2.1433,-2.094,-1.9484,-1.88,-1.845,-1.8102,-1.8009,-1.8252,-1.933,-1.9591,-1.9937,-2.1338,-2.2667,-2.3633,-2.3583,-2.3633,-2.3683,-2.3583,-2.2567,-2.1693,-2.1643,-2.1592,-2.1443,-2.1032,-2.0917,-2.0246,-1.836,-1.8548,0.0,-1.6562,-1.6831,-1.6951,-1.6388,-1.6308,-1.6139,-1.5811,-1.5297,-1.5008,-1.4995,-1.4122,-1.3586,-1.3573,-1.2734,-1.2291,-1.2278,-1.2172,-1.2146,-1.2246,0.0,0.0,0.0,0.0,0.0,0.0,0.0,0.0,0.0,0.0,0.0,0.0,0.0,0.0,0.0,0.0,0.0,0.0,0.0,0.0,0.0,-1.4132,-1.5913,-1.5646,-1.8726,-2.1444,-2.257,-2.4442,-2.5852,-2.6415,-2.7266,-2.7871,-2.8105,-2.9082,-2.9726,-2.9844,-3.0391,-3.0703,-3.0703,-3.1113,-3.1406,-3.1523,-3.2129,-3.25,-3.2617,-3.293,-3.3086,-3.3066,-3.2754,-3.175,-3.0174,-2.9453,-2.7496,-2.484,-2.3946,-2.2904,-2.1839,-2.2117,-2.2026,-2.1686,-2.1737,-2.2572,-2.3492,-2.2306,-2.2405,-2.2784,-2.1338,-1.992,-1.8784,-1.8704,-1.8328,-1.8293,-1.9608,-1.9822,-1.9937,-2.1338,-2.1946,-2.2013,-2.0947,-2.2265,-2.3135,-2.1151,-2.1253,-2.1389,-2.0385,-1.9369,-1.8977,-1.9852,-1.9184,-1.8367,-1.7801,-1.7732,0.0,-1.7029,-1.6723,-1.6496,-1.6335,-1.6086,-1.5912,-1.5784,-1.5297,-1.4914,-1.4656,-1.3814,-1.3227,-1.3038,-1.2545,-1.2104,-1.1677,-1.1891,-1.1783,0.0,0.0,0.0,0.0,0.0,0.0,0.0,0.0,0.0,0.0,0.0,0.0,0.0,0.0,0.0,0.0,0.0,0.0,0.0,0.0,0.0,0.0,-1.6347,-1.8382,-1.9228,-2.1444,-2.3341,-2.4263,-2.5914,-2.7148,-2.7754,-2.8262,-2.8711,-2.9062,-2.9785,-3.0293,-3.0469,-3.0742,-3.0898,-3.0898,-3.1309,-3.1601,-3.1797,-3.2461,-3.2891,-3.3066,-3.3301,-3.3019,-3.2282,-3.2055,-3.0725,-2.8584,-2.7611,-2.5859,-2.3574,-2.2827,-2.1978,0.0,0.0,0.0,0.0,0.0,-2.1925,-2.3309,-2.1672,-2.187,-2.2645,-2.1145,-1.9972,-1.9092,-1.8958,-1.8973,-1.9308,-2.059,-2.1115,-2.1659,-2.3018,-2.3384,-2.3185,-2.2366,-2.2935,-2.3135,-2.0947,-2.0641,-2.059,-1.9782,-1.8499,0.0,-1.9369,-1.8499,-1.7502,-1.7248,-1.7233,-1.7072,-1.6647,-1.6406,-1.6268,-1.6099,-1.5939,-1.5784,-1.5784,-1.519,0.0,0.0,0.0,-1.2864,-1.2435,-1.2248,0.0,0.0,0.0,0.0,0.0,0.0,0.0,0.0,-1.4753,-1.4933,0.0,0.0,0.0,0.0,0.0,0.0,0.0,0.0,0.0,0.0,0.0,0.0,0.0,0.0,0.0,0.0,-1.8765,-2.1118,-2.3123,-2.3889,-2.45,-2.5164,-2.6688,-2.7988,-2.8848,-2.8965,-2.9336,-3.0137,-3.0234,-3.0449,-3.0859,0.0,0.0,0.0,0.0,-3.1777,-3.2229,-3.2637,-3.3047,-3.3418,-3.3418,-3.2492,-3.0771,-3.0799,-2.9328,-2.671,-2.5193,-2.4078,-2.3201,-2.1727,-2.1109,-2.1109,-2.1109,-2.1235,-2.1321,-2.1127,-2.1901,-2.2795,-2.0977,0.0,0.0,-2.0155,-1.9533,-1.9319,-1.9052,-1.9654,-2.0701,-2.1634,-2.2639,-2.3782,-2.5118,-2.5479,-2.5479,-2.5479,-2.4658,-2.3534,-2.1996,-2.0743,-1.9782,-1.9627,-1.8499,-1.7989,-1.9161,-1.8408,-1.7395,-1.6834,-1.7005,-1.6857,-1.5979,-1.6086,-1.6126,-1.5811,0.0,0.0,-1.5784,-1.5038,-1.471,-1.4941,-1.3628,-1.2596,-1.2074,-1.206,-1.1877,-1.1549,-1.2572,-1.3272,-1.3579,-1.571,-1.6736,-1.6719,-1.6077,-1.6406,0.0,0.0,0.0,0.0,0.0,0.0,0.0,0.0,0.0,0.0,0.0,0.0,0.0,0.0,0.0,-1.7266,-1.9542,-2.1739,-2.3835,-2.544,-2.6461,-2.6615,-2.7227,-2.7988,-2.8848,-2.9238,-2.9648,-3.0156,-3.0547,-3.0801,-3.0879,-3.0898,-3.0898,-3.0898,-3.1641,-3.209,-3.2229,-3.293,-3.334,-3.3418,0.0,0.0,-3.0771,-3.0574,-2.8494,-2.5031,-2.4517,-2.3238,-2.1538,-2.1235,-2.1109,-2.1109,-2.1109,-2.1915,-2.3139,-2.308,-2.4411,-2.6013,-2.448,-2.368,-2.3151,-2.1643,-2.0371,-1.9417,-1.9305,-1.9893,0.0,-2.074,-2.1426,-2.2416,-2.3732,-2.4097,-2.4097,-2.4097,-2.4707,-2.4658,-2.2198,-2.1491,-2.0947,-1.9834,-1.8499,-1.7687,-1.7937,-1.7793,-1.7514,-1.7166,-1.6914,-1.6647,-1.6233,-1.6032,-1.5885,-1.5784,-1.5784,-1.5784,-1.5784,-1.5458,-1.5044,-1.4629,-1.3667,-1.3066,-1.2959,-1.2946,-1.2812,-1.2529,-1.2939,-1.3122,-1.2993,-1.4394,-1.5042,-1.5103,-1.706,-1.811,0.0,0.0,0.0,0.0,0.0,0.0,0.0,0.0,0.0,0.0,0.0,-1.2852,-1.3881,0.0,-1.6099,-1.8186,-2.018,-2.2113,-2.4018,-2.5837,-2.709,-2.7324,-2.7715,-2.832,-2.916,-2.9434,-2.9844,-3.0488,-3.0762,-3.0898,-3.0898,-3.0898,-3.0898,-3.0898,-3.1719,-3.2229,-3.2229,-3.3008,-3.3418,-3.3418,-3.2492,-3.1176,-2.9457,-2.8303,-2.6131,-2.3312,-2.3,-2.2193,-2.1109,-2.1109,-2.1109,-2.1109,-2.1109,-2.1601,-2.2466,-2.3263,-2.4112,-2.4577,-2.3047,-2.2604,-2.2476,-2.0973,-1.9982,-1.943,-1.943,-2.0541,-2.1791,-2.1565,-2.2718,-2.4154,-2.4616,-2.4707,-2.4707,-2.4707,-2.4707,-2.4146,-2.2148,-2.1135,-2.0231,-1.8864,-1.8042,-1.7738,-1.8198,-1.8274,-1.797,-1.7069,-1.6673,-1.638,-1.6086,-1.5925,-1.5784,-1.5784,-1.5784,-1.5784,-1.5784,-1.5565,-1.5084,-1.4349,-1.3895,-1.352,-1.3227,-1.3213,-1.3133,-1.2986,-1.3267,-1.3307,-1.32,-1.4511,-1.5137,-1.5203,-1.7072,-1.8153,0.0,0.0,0.0,0.0,0.0,0.0,0.0,0.0,-1.2211,-1.3186,-1.3774,-1.4456,-1.5471,-1.6086,-1.7202,-1.9336,-2.087,-2.2503,-2.4536,-2.6174,-2.7305,-2.7734,-2.8086,-2.8594,-2.9375,-2.9531,-2.9902,-3.0703,-3.084,-3.0898,-3.0898,-3.0898,-3.0898,-3.0898,-3.1719,-3.2229,-3.2229,-3.3008,-3.3228,-3.2892,-3.1497,-2.9735,-2.7619,-2.5824,-2.3882,-2.1964,-2.1681,-2.1336,-2.1109,-2.1109,-2.1109,-2.1109,-2.1475,-2.1411,-2.1299,-2.2952,-2.3521,-2.3121,-2.1286,-2.1276,-2.1756,-1.9982,-1.943,-1.9417,-1.9764,-2.1433,-2.3157,-2.3008,-2.4602,-2.6289,-2.581,-2.5693,-2.5693,-2.5693,-2.4873,-2.3633,-2.2047,-2.0794,-1.9524,-1.7884,-1.7542,-1.7773,-1.8549,-1.8743,-1.8467,-1.7478,-1.7128,-1.6828,-1.6238,-1.615,-1.6055,-1.5832,-1.5784,-1.5784,-1.5784,-1.5565,-1.5097,-1.4389,-1.4282,-1.4015,-1.3494,-1.3467,-1.344,-1.3387,-1.3614,-1.3693,-1.3693,-1.4865,-1.5467,-1.5467,-1.6651,-1.7553,-1.0466,-1.0613,-1.0969,-1.1484,-1.1685,-1.2301,0.0,0.0,-1.4108,-1.5244,-1.5752,-1.6099,-1.6486,-1.6834,-1.8048,-2.0972,-2.1856,-2.3272,-2.6295,-2.7201,-2.7754,-2.8164,-2.8262,-2.8476,-2.8945,-2.9355,-2.9766,-3.0234,-3.0664,-3.0898,-3.0898,-3.0898,-3.0898,-3.0898,-3.1719,-3.2229,-3.2229,-3.3008,-3.2619,-3.1111,-3.09,-2.9065,-2.5755,-2.5005,-2.3681,-2.1951,-2.1403,-2.1136,-2.1109,-2.1109,-2.1109,-2.1235,-2.2716,-2.2404,-2.1299,-2.2952,-2.488,-2.6203,-2.3402,-2.2894,-2.3095,-2.0328,-1.943,-1.9649,-2.0973,-2.2187,-2.3374,-2.4281,-2.5442,-2.6289,-2.581,-2.5693,-2.5693,-2.5693,-2.5577,-2.4756,-2.2265,-2.1592,-2.0692,-1.8094,-1.742,-1.7298,-1.736,-1.7846,-1.8507,-1.9383,-1.954,-1.902,-1.7682,-1.7498,-1.703,-1.5927,-1.5784,-1.5784,-1.5784,-1.5565,-1.5351,-1.5257,-1.5003,-1.4723,-1.4389,-1.4332,-1.4255,-1.4001,-1.4015,-1.4041,-1.4041,-1.4451,-1.4642,-1.4686,-1.6053,-1.7071,-1.2091,-1.21,-1.2194,-1.2759,-1.3293,-1.3976,-1.4923,-1.5124,-1.5337,-1.6166,-1.658,-1.6924,-1.7168,-1.7315,-1.7852,0.0,-2.0263,-2.18,-2.3946,-2.456,-2.5461,-2.7311,-2.6841,-2.7024,-2.8719,-2.9316,-2.9746,-3.0156,-3.0625,-3.0898,-3.0898,-2.9962,-3.0016,-3.1191,-3.0891,-3.1309,-3.2539,-3.2144,-3.1497,-3.0771,-2.8673,-2.6956,-2.542,-2.3808,-2.2493,-2.1456,-2.1216,-2.1109,-2.1109,-2.1109,-2.1109,-2.1172,-2.1853,-2.1727,-2.1299,-2.2952,-2.3384,-2.2928,-2.1646,-2.1231,-2.1045,-1.9822,-1.943,-1.9707,-2.1145,-2.2354,-2.3428,-2.4509,-2.5544,-2.6289,-2.581,-2.5693,-2.5693,-2.5693,-2.451,-2.3015,-2.1678,-2.019,-1.8687,-1.7357,-1.6967,-1.7086,-1.764,-1.8535,-1.9491,-2.0572,-1.9527,-1.8396,-1.7792,-1.703,-1.6386,-1.5879,-1.5784,-1.5784,-1.5784,-1.5712,-1.5578,-1.5404,-1.5284,-1.5084,-1.479,-1.4776,-1.4723,-1.4646,-1.4646,-1.4646,-1.4646,-1.4723,-1.4776,-1.4821,-1.5373,-1.633,-1.2919,-1.3039,-1.3293,-1.3854,-1.4669,-1.541,-1.5571,-1.5899,-1.6339,-1.6847,-1.7114,-1.738,-1.7542,-1.7582,-1.774,-1.8094,-1.9353,-2.0757,-2.2116,-2.267,-2.361,-2.5637,-2.5029,-2.5199,-2.7174,-2.8507,-2.9434,-2.998,-3.0026,-3.0276,-3.0879,-2.9275,-2.9342,-3.1444,-3.0785,-3.12,-3.2793,-3.1966,-3.1304,-3.0771,-2.7685,-2.5987,-2.542,-2.3095,-2.167,-2.1109,-2.1109,-2.1109,-2.1109,-2.1109,-2.1109,-2.1109,-2.1109,-2.1109,-2.1285,-2.2864,-2.2303,-2.0758,-2.0348,-2.0137,-1.9924,-1.9533,-1.943,-1.9764,-2.1643,-2.2688,-2.3482,-2.4981,-2.592,-2.6289,-2.581,-2.5693,-2.5577,-2.5235,-2.3633,-2.1963,-2.0883,-1.9134,-1.7557,-1.6867,-1.6932,-1.7288,-1.7967,-1.9303,-2.0514,-2.1204,-1.9798,-1.8596,-1.8226,-1.6796,-1.5784,-1.5784,-1.5784,-1.5784,-1.5784,-1.5784,-1.5738,-1.5524,-1.5511,-1.5391,-1.5142,-1.5129,-1.5089,-1.5008,-1.5008,-1.5008,-1.5008,-1.5089,-1.5129,-1.5129,-1.5209,-1.5983,-1.2398,-1.3173,-1.4188,-1.4821,-1.5638,-1.6429,-1.7005,-1.7152,-1.7246,-1.7502,-1.7569,-1.7569,-1.7582,-1.7582,-1.8042,-1.9317,-2.0166,-2.1071,-2.2149,-2.2938,-2.3307,-2.3048,-2.3014,-2.3111,-2.3511,-2.6478,-2.8672,-2.9531,-2.8574,-2.875,-3.0801,-2.9275,-2.9342,-3.1444,-3.1873,-3.2363,-3.2793,-3.314,-3.2492,-3.0771,-2.8952,-2.7172,-2.542,-2.3095,-2.167,-2.1109,-2.1109,-2.1109,-2.1109,-2.1109,-2.1109,-2.1109,-2.1109,-2.1109,-2.1258,-2.2479,-2.2705,-2.2245,-2.0698,-2.076,-2.1301,-1.9866,-1.943,-1.9924,-2.283,-2.3464,-2.3715,-2.6234,-2.6668,-2.6289,-2.581,-2.5693,-2.5382,-2.4048,-2.3683,-2.283,-1.9915,-1.9199,-1.8657,-1.7004,-1.7442,-1.8097,-1.8082,-1.9883,-2.1257,-2.1302,-2.1239,-2.0747,-1.9588,-1.7296,-1.5784,-1.5784,-1.5784,-1.5784,-1.5784,-1.5784,-1.5784,-1.5771,-1.5771,-1.5685,-1.5391,-1.5378,-1.5257,-1.5022,-1.5008,-1.5008,-1.5008,-1.5244,-1.5378,-1.5391,-1.5671,-1.6452,-1.3587,-1.4349,-1.5137,-1.5925,-1.6536,-1.7005,-1.7393,-1.7487,-1.746,-1.7367,-1.734,-1.7286,-1.7034,-1.7154,-1.7495,-1.7946,-1.8693,-1.9531,-2.0389,-2.1348,-2.2333,-2.3322,-2.2859,-2.3007,-2.4228,-2.5002,0.0,-2.6421,-2.6358,-2.6754,-2.7614,-2.7134,-2.7747,-2.9809,-3.0339,-3.1262,-3.2793,-3.203,-3.1368,-3.0771,-2.7817,-2.5293,-2.3175,-2.2335,-2.167,-2.1109,-2.1109,-2.1109,-2.1109,-2.1109,-2.1109,-2.1109,-2.1109,-2.1109,-2.1132,-2.1383,-2.1858,-2.2394,-2.1625,-2.1496,-2.1358,-1.9866,-2.004,-2.1202,-2.3207,-2.401,-2.4615,-2.6467,-2.6504,-2.5918,-2.5732,-2.5693,-2.5382,-2.3998,-2.3018,-2.1745,-1.9372,-1.8174,-1.725,-1.6268,-1.6368,-1.6586,-1.6586,-1.7884,-1.8902,-1.8902,-1.9588,-1.9679,-1.8457,-1.6842,-1.5784,-1.5784,-1.5784,-1.5784,-1.5784,-1.5784,-1.5784,-1.5784,-1.5784,-1.5744,-1.5685,-1.5685,-1.5631,-1.5538,-1.5538,-1.5538,-1.5538,-1.5631,-1.5685,-1.5685,-1.5778,-1.648,-1.4536,-1.5257,-1.5899,-1.6673,-1.7088,-1.7407,-1.7542,-1.7554,-1.7393,-1.7099,-1.6871,-1.662,-1.6433,-1.646,-1.6683,-1.6991,-1.7649,-1.8387,-1.8921,-2.0141,-2.138,-2.2483,-2.1982,-2.2035,-2.3361,-2.2702,0.0,-2.4664,-2.459,-2.4887,-2.583,-2.5371,-2.6088,-2.8114,-2.9072,-3.0291,-3.1946,-3.169,-3.0966,-2.9865,-2.678,-2.4142,-2.1977,-2.1884,-2.1563,-2.1109,-2.1109,-2.1109,-2.1109,-2.1109,-2.1109,-2.1109,-2.1109,-2.1109,-2.1119,-2.1273,-2.1833,-2.2424,-2.2125,-2.22,-2.2209,-2.1259,-2.1601,-2.2645,-2.4156,-2.4736,-2.5133,-2.6583,-2.6356,-2.5693,-2.5693,-2.5693,-2.5235,-2.3434,-2.2316,-2.0992,-1.8543,-1.7285,-1.6526,-1.5939,-1.615,-1.648,-1.648,-1.7544,-1.8319,-1.8319,-1.8642,-1.8411,-1.7171,-1.6292,-1.5784,-1.5784,-1.5784,-1.5784,-1.5784,-1.5784,-1.5784,-1.5784,-1.5784,-1.5784,-1.5784,-1.5784,-1.5784,-1.5784,-1.5784,-1.5784,-1.5784,-1.5784,-1.5784,-1.5784,-1.5784,-1.6244,-1.5204,-1.5885,-1.6522,-1.7085,-1.7434,-1.7582,-1.7569,-1.7393,-1.7085,-1.6687,-1.6166,-1.5704,0.0,0.0,-1.5645,-1.65,-1.7168,-1.7689,-1.7955,-1.9476,-2.0575,0.0,0.0,0.0,0.0,0.0,0.0,-2.4008,0.0,-2.3275,-2.5277,-2.4239,-2.444,-2.6418,-2.8193,-2.9444,-3.0221,-3.1759,-3.1064,-2.8147,-2.6098,-2.4006,-2.1951,-2.1748,-2.139,-2.1109,-2.1109,-2.1109,-2.1109,-2.1109,-2.1109,-2.1109,-2.1109,-2.1109,-2.1218,-2.2072,-2.2424,-2.2483,-2.2169,-2.2855,-2.3822,-2.3822,-2.3877,-2.4211,-2.5663,-2.554,-2.5185,-2.6583,-2.6356,-2.5693,-2.5693,-2.5645,-2.4922,-2.2316,-2.1643,-2.0689,-1.7424,-1.67,-1.6526,-1.5939,-1.6763,-1.7591,-1.7591,-1.8549,-1.9314,-1.9314,-1.8319,-1.7171,-1.6055,-1.5832,-1.5784,-1.5784,-1.5784,-1.5784,-1.5784,-1.5784,-1.5784,-1.5784,-1.5784,-1.5784,-1.5784,-1.5784,-1.5784,-1.5784,-1.5784,-1.5784,-1.5784,-1.5784,-1.5784,-1.5784,-1.5784,-1.5784,-1.5872,-1.6633,-1.7288,-1.7435,-1.7528,-1.7528,-1.7367,-1.7085,-1.6553,-1.5651,-1.511,-1.4612,0.0,0.0,0.0,-1.5658,-1.6767,0.0,-1.7955,-1.9771,0.0,-2.0575,0.0,-2.1272,-2.1338,-2.0282,0.0,0.0,-2.0958,-2.1235,-2.2185,-2.3095,-2.3852,-2.4363,-2.7442,-2.8764,-2.7921,-2.8867,-2.8861,-2.7832,-2.5974,-2.3905,-2.1722,-2.1655,-2.139,-2.1109,-2.1109,-2.1109,-2.1109,-2.1109,-2.1109,-2.1109,-2.1109,-2.1109,-2.1092,-2.0869,-2.1541,-2.2572,-2.3162,-2.3568,-2.3822,-2.3822,-2.4599,-2.5608,-2.5991,-2.6268,-2.6532,-2.691,-2.6356,-2.5693,-2.5693,-2.4971,-2.38,-2.2114,-2.0896,-1.9499,-1.7223,-1.67,-1.6526,-1.5939,-1.6055,-1.6292,-1.6292,-1.6513,-1.6749,-1.6749,-1.648,-1.6527,-1.7138,-1.6386,-1.5784,-1.5784,-1.5784,-1.5784,-1.5784,-1.5784,-1.5784,-1.5784,-1.5784,-1.5784,-1.5784,-1.5784,-1.5784,-1.5784,-1.5784,-1.5784,-1.5784,-1.5784,-1.5784,-1.5784,-1.5784,-1.5784,-1.6549,-1.7166,-1.7582,-1.7582,-1.7488,-1.73,-1.67,-1.6246,-1.5565,-1.4298,-1.3654,-1.32,-1.2719,-1.3414,-1.4298,0.0,0.0,0.0,-1.8968,-2.0168,-2.1148,0.0,-2.1699,0.0,-2.1665,-2.0614,-2.0107,0.0,-2.0428,-2.0575,-2.0909,-2.1909,-2.2529,-2.2529,-2.5214,-2.681,-2.709,-2.6938,-2.6722,-2.6516,-2.4627,-2.3014,-2.1614,-2.148,-2.1269,-2.1109,0.0,-2.1109,-2.1109,-2.1109,-2.1109,-2.1109,-2.1109,-2.1109,-2.1042,-2.0454,-2.118,-2.2616,-2.3521,-2.4267,-2.4931,-2.5553,-2.6391,-2.706,-2.706,-2.7027,-2.7012,-2.7012,-2.6356,-2.5693,-2.5693,-2.5118,-2.4097,-2.2165,-2.11,-1.9791,-1.7273,-1.67,-1.6526,-1.5939,-1.5784,-1.5784,-1.5784,-1.5784,-1.5784,-1.5784,-1.5784,-1.6055,-1.6763,-1.6244,-1.5784,-1.5784,-1.5784,-1.5784,-1.5784,-1.5784,-1.5784,-1.5784,-1.5784,-1.5784,-1.5784,-1.5784,-1.5784,-1.5784,-1.5784,-1.5784,-1.5784,-1.5784,-1.5784,-1.5784,-1.5784,-1.5784,-1.7058,-1.742,-1.7582,-1.7582,-1.738,-1.6911,-1.5979,-1.5257,-1.4405,-1.2918,-1.2141,-1.1712,-1.1672,-1.2221,-1.3159,-1.4646,0.0,-1.7479,-2.0043,-2.0288,-2.0963,-2.2959,-2.2059,-2.1379,-2.1701,-2.0902,-2.0454,-2.0722,-2.0735,-2.0735,-2.0735,-2.0975,-2.1172,-2.1411,-2.2697,-2.4531,-2.7024,-2.5451,-2.4818,-2.4955,-2.2953,-2.1777,-2.1547,-2.1229,-2.1109,-2.1109,-2.1109,-2.1109,-2.1109,-2.1109,-2.1109,-2.1109,-2.1109,-2.1109,-2.1042,-2.0454,-2.106,-2.232,-2.3181,-2.4488,-2.6045,-2.7726,-2.8301,-2.8301,-2.8301,-2.7695,-2.7012,-2.7012,-2.6356,-2.5693,-2.5693,-2.543,-2.4559,-2.2265,-2.144,-2.035,-1.7374,-1.6647,-1.6433,-1.5878,-1.5784,-1.5784,-1.5784,-1.5784,-1.5784,-1.5784,-1.5784,-1.5784,-1.5784,-1.5784,-1.5784,-1.5784,-1.5784,-1.5784,-1.5784,-1.5784,-1.5784,-1.5784,-1.5784,-1.5784,-1.5784,-1.5784,-1.5784,-1.5784,-1.5784,-1.5784,-1.5784,-1.5784,-1.5784,-1.5784,-1.5784,-1.5784,-1.7166,-1.742,-1.7582,-1.7582,-1.7181,-1.6553,-1.5671,-1.4643,0.0,0.0,-1.1229,-1.0747,-1.0461,-1.1289,-1.2543,-1.4043,-1.5217,-1.6666,-1.8619,-1.8864,-1.9194,0.0,-2.0305,-2.0455,-2.0495,-2.0765,0.0,0.0,-2.1029,-2.1029,-2.1029,-2.1082,-2.1727,-2.3139,-2.2342,-2.3466,-2.6645,-2.3954,-2.3153,-2.4344,-2.2535,-2.147,-2.1189,-2.1136,-2.1109,-2.1109,-2.1109,0.0,-2.1109,-2.1109,-2.1109,-2.1109,-2.1109,-2.1109,-2.1042,-2.0454,-2.0348,-2.0736,-2.1652,-2.2927,-2.4654,-2.7403,-2.8301,-2.8301,-2.8301,-2.7695,-2.7012,-2.7012,-2.6356,-2.5693,-2.5693,-2.4048,-2.2265,-2.1794,-1.9973,-1.8033,-1.6935,-1.6326,-1.5952,-1.5798,-1.5784,-1.5784,-1.5784,-1.5784,-1.5784,-1.5784,-1.5784,-1.5784,-1.5784,-1.5784,-1.5784,-1.5784,-1.5784,-1.5784,-1.5784,-1.5784,-1.5784,-1.5784,-1.5784,-1.5784,-1.5784,-1.5784,-1.5784,-1.5784,-1.5784,-1.5784,-1.5784,-1.5784,-1.5784,-1.5784,-1.5784,-1.5784,-1.7206,-1.742,-1.7582,-1.7582,-1.7034,-1.6126,-1.479,0.0,0.0,0.0,-1.003,-0.9833,-0.9657,-1.0621,0.0,-1.2973,-1.4148,-1.5817,-1.8386,-1.8218,-1.8442,-2.0132,-2.0246,-2.0167,-2.0167,-2.0762,-2.1109,-2.1109,-2.1109,-2.1109,-2.1109,-2.1109,-2.1853,-2.3574,-2.2986,-2.3447,-2.5235,-2.377,-2.295,-2.2872,-2.1988,-2.1403,-2.1109,-2.1109,-2.1109,-2.1109,-2.1109,-2.1109,-2.1109,-2.1109,-2.1109,-2.1109,-2.1109,-2.1109,-2.1042,-2.0454,-2.0711,-2.1441,-2.1537,-2.2589,-2.4156,-2.6445,-2.7672,-2.8301,-2.8301,-2.7695,-2.7012,-2.7012,-2.6356,-2.5693,-2.5693,-2.4245,-2.2567,-2.1862,-1.9493,-1.7235,-1.6807,-1.6366,-1.6019,-1.5811,-1.5784,-1.5784,-1.5784,-1.5784,-1.5784,-1.5784,-1.5784,-1.5784,-1.5784,-1.5784,-1.5784,-1.5784,-1.5784,-1.5784,-1.5784,-1.5784,-1.5784,-1.5784,-1.5784,-1.5784,-1.5784,-1.5784,-1.5784,-1.5784,-1.5784,-1.5784,-1.5784,-1.5784,-1.5784,-1.5784,-1.5784,-1.5784,-1.7206,-1.742,-1.7582,-1.7582,-1.6834,-1.5658,-1.3973,-1.2761,0.0,-0.959,-0.9164,-0.9138,-0.9204,-1.0017,-1.1062,0.0,-1.32,-1.4984,-1.8081,-1.7806,-1.8124,0.0,-2.0444,0.0,-2.0167,-2.0762,0.0,-2.1109,-2.1109,-2.1109,-2.1109,-2.1109,-2.1727,-2.3014,-2.3076,-2.3145,-2.3393,-2.3393,-2.2773,-2.1521,-2.1521,-2.1336,-2.1109,-2.1109,-2.1109,-2.1109,-2.1109,-2.1109,-2.1109,-2.1109,-2.1109,-2.1109,-2.1109,-2.1069,-2.0949,-2.0428,-2.0898,-2.1816,-2.1292,-2.2096,-2.3599,-2.5096,-2.6608,-2.7906,-2.8174,-2.7695,-2.7012,-2.7012,-2.6356,-2.5693,-2.5693,-2.451,-2.2868,-2.1186,-1.8979,-1.7125,-1.6767,-1.6473,-1.6179,-1.5885,-1.5784,-1.5784,-1.5784,-1.5784,-1.5784,-1.5784,-1.5784,-1.5784,-1.5784,-1.5784,-1.5784,-1.5784,-1.5784,-1.5784,-1.5784,-1.5784,-1.5784,-1.5784,-1.5784,-1.5784,-1.5784,-1.5784,-1.5784,-1.5784,-1.5784,-1.5784,-1.5784,-1.5784,-1.5784,-1.5784,-1.5784,-1.5784,-1.7206,-1.742,-1.7582,-1.7582,-1.6526,-1.515,-1.388,0.0,-1.0755,-0.9471,-0.9004,-0.8898,-0.9164,-0.9552,-1.0354,-1.2024,0.0,-1.4124,-1.6576,-1.7284,-1.7943,-1.898,0.0,0.0,-2.0167,-2.0762,-2.1109,-2.1109,-2.1109,-2.1109,-2.1109,-2.1109,-2.1172,-2.1299,-2.1362,-2.1362,-2.1402,-2.1402,-2.1276,-2.1149,-2.1149,-2.1136,-2.1109,-2.1109,-2.1109,-2.1109,-2.1109,-2.1109,0.0,-2.1109,-2.1109,-2.1109,-2.1109,-2.0949,-2.0681,-2.0347,-2.0127,-2.0023,-1.9699,-2.0587,-2.204,-2.3543,-2.5041,-2.6554,-2.7887,-2.7695,-2.7012,-2.7012,-2.6356,-2.5693,-2.5693,-2.3782,-2.1237,-1.8603,-1.7563,-1.7125,-1.6767,-1.6473,-1.6179,-1.5885,-1.5784,-1.5784,-1.5784,-1.5784,-1.5784,-1.5784,-1.5784,-1.5784,-1.5784,-1.5784,-1.5784,-1.5784,-1.5784,-1.5784,-1.5784,-1.5784,-1.5784,-1.5784,-1.5784,-1.5784,-1.5784,-1.5784,-1.5784,-1.5784,-1.5784,-1.5784,-1.5784,-1.5784,-1.5784,-1.5784,-1.5784,-1.5784,-1.6616,-1.7139,-1.7502,-1.7141,-1.6219,-1.499,-1.3467,-1.2024,-1.0608,-0.9231,-0.8884,-0.8844,-0.8938,-0.9191,-0.9737,-1.0822,-1.1343,-1.2318,-1.4322,-1.5257,-1.6273,-1.7689,-1.8958,0.0,0.0,0.0,-2.1109,-2.1109,-2.1109,-2.1109,-2.1109,-2.1109,-2.1538,-2.2591,-2.2591,-2.2591,-2.2591,-2.2591,-2.209,-2.1109,-2.1109,-2.1109,-2.1109,-2.1109,-2.1109,-2.1109,-2.1109,-2.1109,0.0,-2.1109,-2.1109,-2.1096,-2.0922,-2.0775,-2.0615,-2.0147,-1.9893,-1.976,-1.9466,-1.9751,-2.0644,-2.3039,-2.4211,-2.5151,-2.7565,-2.7695,-2.7012,-2.7012,-2.6356,-2.5528,-2.4707,-2.2466,-1.9973,-1.8042,-1.7502,-1.7275,-1.6807,-1.662,-1.6393,-1.5925,-1.5784,-1.5784,-1.5784,-1.5784,-1.5784,-1.5784,-1.5784,-1.5784,-1.5784,-1.5784,-1.5784,-1.5784,-1.5784,-1.5784,-1.5784,-1.5784,-1.5784,-1.5784,-1.5784,-1.5784,-1.5784,-1.5784,-1.5784,-1.5784,-1.5784,-1.5784,-1.5784,-1.5784,-1.5784,-1.5784,-1.5784,-1.5784,-1.6187,-1.678,-1.7221,-1.6807,-1.5912,-1.4723,-1.3172,-1.1819,-1.0506,-0.9085,-0.8804,-0.8804,-0.8804,-0.8951,-0.9311,0.0,-1.0434,-1.1377,-1.3213,-1.4229,-1.5364,0.0,0.0,-1.9332,0.0,-2.0668,-2.1109,-2.1109,-2.1109,-2.1109,-2.1109,-2.1109,-2.1664,-2.2841,-2.2841,-2.2841,-2.2841,-2.2841,-2.2278,-2.1109,-2.1109,-2.1109,-2.1109,-2.1109,-2.1109,-2.1109,-2.1109,-2.1109,0.0,-2.1109,-2.1056,-2.0962,-2.0762,-2.0575,-2.0361,-1.996,-1.9746,-1.9639,-1.9497,-1.943,-1.9866,-2.283,-2.3822,-2.4361,-2.7252,-2.7598,-2.6992,-2.6875,-2.599,-2.4707,-2.2918,-2.1049,-1.9265,-1.7937,-1.7582,-1.7422,-1.6834,-1.67,-1.6526,-1.5939,-1.5784,-1.5784,-1.5784,-1.5784,-1.5784,-1.5784,-1.5784,-1.5784,-1.5784,-1.5784,-1.5784,-1.5784,-1.5784,-1.5784,-1.5784,-1.5784,-1.5784,-1.5784,-1.5784,-1.5784,-1.5784,-1.5784,-1.5784,-1.5784,-1.5784,-1.5784,-1.5784,-1.5784,-1.5784,-1.5784,-1.5784,-1.5784,-1.6032,-1.6486,-1.6714,-1.67,-1.5605,-1.4215,-1.3052,-1.1645,-1.0265,-0.9058,-0.8804,-0.8804,-0.8804,-0.8804,-0.9098,-0.995,-1.0608,-1.1717,-1.3788,-1.483,-1.5832,0.0,0.0,-1.8731,-1.9377,-2.0428,-2.1109,-2.1109,-2.1109,0.0,-2.1109,-2.1109,-2.1109,-2.1109,-2.1109,-2.1109,-2.1109,-2.1109,-2.1109,-2.1109,-2.1109,-2.1109,-2.1109,-2.1109,-2.1109,-2.1109,-2.1109,-2.1109,0.0,-2.1109,-2.0935,-2.0681,-2.0681,-2.0321,-1.9813,-1.98,-1.9626,-1.943,-1.943,-1.943,-1.9866,-2.283,-2.3822,-2.431,-2.6911,-2.7363,-2.6934,-2.6523,-2.5095,-2.3085,-2.0333,-1.9627,-1.9265,-1.7937,-1.7582,-1.7422,-1.6834,-1.67,-1.6526,-1.5939,-1.5784,-1.5784,-1.5784,-1.5784,-1.5784,-1.5784,-1.5784,-1.5784,-1.5784,-1.5784,-1.5784,-1.5784,-1.5784,-1.5784,-1.5784,-1.5784,-1.5784,-1.5784,-1.5784,-1.5784,-1.5784,-1.5784,-1.5784,-1.5784,-1.5784,-1.5784,-1.5784,-1.5784,-1.5784,-1.5784,-1.5784,-1.5784,-1.4041,-1.4683,-1.507,-1.4469,-1.3801,-1.3038,-1.1859,-1.0875,-0.998,-0.9005,-0.8804,-0.8804,-0.8804,-0.8804,-0.9232,-1.0514,-1.0875,0.0,0.0,0.0,0.0,-1.6714,-1.8531,-1.984,0.0,0.0,-2.1109,-2.1109,-2.1109,-2.1109,-2.1109,-2.1109,-2.1109,-2.1109,-2.1109,-2.1109,-2.1109,-2.1109,-2.1109,-2.1109,-2.1109,-2.1109,-2.1109,-2.1109,-2.1109,-2.1109,-2.1109,-2.1109,-2.1096,-2.0895,-2.0762,-2.0641,-2.0241,-1.996,-1.9773,-1.9573,-1.9452,-1.943,-1.943,-1.943,-1.9707,-2.1643,-2.2768,-2.3666,-2.5232,-2.6318,-2.6855,-2.6152,-2.4189,-2.2114,-2.1237,-1.9627,-1.8146,-1.7687,-1.7582,-1.7475,-1.7139,-1.6847,-1.6593,-1.6206,-1.5965,-1.5784,-1.5784,-1.5784,-1.5784,-1.5784,-1.5784,-1.5784,-1.5784,-1.5784,-1.5784,-1.5784,-1.5784,-1.5784,-1.5784,-1.5784,-1.5784,-1.5784,-1.5784,-1.5784,-1.5784,-1.5784,-1.5784,-1.5784,-1.5784,-1.5784,-1.5784,-1.5784,-1.5784,-1.5784,-1.5784,-1.5784,-1.2639,-1.344,-1.3895,-1.3347,-1.2851,-1.2208,-1.1209,-1.0448,-0.974,-0.8965,-0.8804,-0.8804,-0.8804,-0.8804,-0.9178,-1.0314,-1.0688,-1.145,0.0,0.0,0.0,-1.7034,0.0,0.0,0.0,-2.0802,-2.1109,-2.1109,-2.1109,-2.1109,-2.1109,-2.1109,-2.1109,-2.1109,-2.1109,-2.1109,-2.1109,-2.1109,-2.1109,-2.1109,-2.1109,-2.1109,-2.1109,-2.1109,-2.1109,-2.1109,-2.1109,-2.1042,0.0,-2.0748,-2.0548,-2.0307,-1.9947,-1.9733,-1.9613,-1.9439,-1.943,-1.943,-1.943,-1.943,-1.9649,-2.1145,-2.2609,-2.3977,-2.5094,-2.5914,-2.6206,-2.4641,-2.2968,-2.144,-2.0436,-1.8864,-1.7582,-1.7582,-1.7582,-1.7554,-1.7259,-1.6914,-1.662,-1.6326,-1.6032,-1.5784,-1.5784,-1.5784,-1.5784,-1.5784,-1.5784,-1.5784,-1.5784,-1.5784,-1.5784,-1.5784,-1.5784,-1.5784,-1.5784,-1.5784,-1.5784,-1.5784,-1.5784,-1.5784,-1.5784,-1.5784,-1.5784,-1.5784,-1.5784,-1.5784,-1.5784,-1.5784,-1.5784,-1.5784,-1.5784,-1.5534,0.0,-1.2532,-1.2986,-1.2959,-1.2331,-1.1605,-1.0995,-1.0234,0.0,-0.8925,-0.8804,-0.8831,-0.8884,-0.8871,-0.9072,-0.9753,-1.0372,-1.1363,0.0,-1.4362,0.0,0.0,-1.8865,0.0,-1.9773,-2.0575,-2.1082,-2.1082,-2.1096,-2.1109,-2.1109,-2.1109,-2.1109,-2.1109,-2.1109,-2.1109,-2.1109,-2.1109,-2.1109,-2.1109,-2.1109,-2.1109,-2.1109,-2.1109,-2.1096,0.0,-2.1082,-2.0909,-2.0641,-2.0615,-2.0294,-1.98,-1.9773,-1.9599,-1.943,-1.943,-1.943,-1.943,-1.943,-1.943,-1.9635,-2.1029,-2.2911,-2.4835,-2.5894,-2.5956,-2.5167,-2.2567,-2.1744,-2.1084,-1.8447,-1.7687,-1.7582,-1.7582,-1.7582,-1.7554,-1.7259,-1.6914,-1.662,-1.6326,-1.6032,-1.5784,-1.5784,-1.5784,-1.5784,-1.5784,-1.5784,-1.5784,-1.5784,-1.5784,-1.5784,-1.5784,-1.5784,-1.5784,-1.5784,-1.5784,-1.5784,-1.5784,-1.5784,-1.5784,-1.5784,-1.5784,-1.5784,-1.5784,-1.5784,-1.5784,-1.5784,-1.5784,-1.5784,-1.5784,-1.5724,-1.5045,-0.9817,0.0,-1.0795,-1.0568,-1.0385,-1.01,0.0,-0.9457,-0.9217,-0.8884,-0.8804,-0.9005,-0.9686,-0.9417,-0.967,-1.141,-1.2033,-1.273,-1.4028,0.0,0.0,-1.8277,-1.9158,-1.972,-1.9786,-2.0388,-2.0775,-2.0775,-2.0989,-2.1109,-2.1109,-2.1109,-2.1109,-2.1109,-2.1109,-2.1109,-2.1109,-2.1109,-2.1109,-2.1109,-2.1109,-2.1109,-2.1109,-2.1109,-2.0989,-2.0775,-2.0775,-2.0615,-2.0321,-2.0094,-1.992,-1.9773,-1.9559,-1.9484,-1.943,-1.943,-1.943,-1.943,-1.943,-1.943,-1.9567,-2.0463,-2.1805,-2.3214,-2.4043,-2.4998,-2.5333,-2.3683,-2.2517,-2.1288,-1.9576,-1.8356,-1.7582,-1.7582,-1.7582,-1.7554,-1.7259,-1.6914,-1.662,-1.6326,-1.6032,-1.5784,-1.5784,-1.5784,-1.5784,-1.5784,-1.5784,-1.5784,-1.5784,-1.5784,-1.5784,-1.5784,-1.5784,-1.5784,-1.5784,-1.5784,-1.5784,-1.5784,-1.5784,-1.5784,-1.5784,-1.5784,-1.5784,-1.5784,-1.5784,-1.5784,-1.5784,-1.5784,-1.5784,-1.5784,-1.4806,-1.4172,-0.9018,-0.9673,-1.0287,-1.0157,-1.001,-0.9846,-0.9644,-0.9297,-0.8964,-0.8844,0.0,-0.8991,-0.9577,-0.9644,-1.0057,-1.1476,-1.2328,0.0,0.0,0.0,-1.7916,-1.8784,-1.9426,-1.98,0.0,-2.0214,-2.0468,-2.0468,-2.0615,-2.0708,-2.0708,-2.0708,-2.0708,-2.0708,-2.0708,-2.0842,-2.1109,-2.1109,-2.1109,-2.1109,-2.1109,-2.1109,-2.1109,-2.0975,-2.0828,-2.0668,-2.0535,-2.0307,-2.0027,-1.9867,-1.972,-1.9586,-1.9484,-1.943,-1.943,-1.943,-1.943,-1.943,-1.943,-1.943,-1.9554,-2.0288,-2.0978,-2.1713,-2.2537,-2.3732,-2.4609,-2.3899,-2.2717,-2.1389,-1.9989,-1.8603,-1.7582,-1.7582,-1.7582,-1.7554,-1.7259,-1.6914,-1.662,-1.6326,-1.6032,-1.5784,-1.5784,-1.5784,-1.5784,-1.5784,-1.5784,-1.5784,-1.5784,-1.5784,-1.5784,-1.5784,-1.5784,-1.5784,-1.5784,-1.5784,-1.5784,-1.5784,-1.5784,-1.5784,-1.5784,-1.5784,-1.5784,-1.5784,-1.5784,-1.5784,-1.5784,-1.5784,-1.5486,-1.4902,-1.422,-1.3247,-0.8965,-0.9806,-1.06,-1.0385,-1.0207,-1.01,-0.9977,0.0,0.0,0.0,0.0,0.0,-0.9471,-0.995,0.0,-1.1223,0.0,0.0,-1.6433,-1.7275,-1.8063,-1.9172,-1.9559,0.0,-1.9733,-2.0,-2.0174,-2.0174,-2.0214,-2.0167,-2.0167,-2.0167,-2.0167,-2.0167,-2.0167,-2.0468,-2.0975,-2.1015,-2.1042,-2.1042,-2.1042,-2.1015,-2.0962,-2.0722,-2.0588,-2.0535,0.0,0.0,-1.9733,-1.9733,-1.9586,-1.943,-1.943,-1.943,-1.943,-1.943,-1.943,-1.943,-1.943,-1.943,-1.9496,-2.0012,-2.0342,-2.0587,-2.1206,-2.2316,-2.3384,-2.3384,-2.2567,-2.1355,-1.9731,-1.8461,-1.7582,-1.7582,-1.7582,-1.7488,-1.7206,-1.6887,-1.6607,-1.6273,-1.6005,-1.5784,-1.5784,-1.5784,-1.5784,-1.5784,-1.5784,-1.5784,-1.5784,-1.5784,-1.5784,-1.5784,-1.5784,-1.5784,-1.5784,-1.5784,-1.5784,-1.5784,-1.5784,-1.5724,-1.5534,-1.5689,-1.5724,-1.5486,-1.5486,-1.5486,-1.5486,-1.5296,-1.4663,-1.3584,-1.3392,-1.2134,-0.9713,-1.0408,-1.0635,-0.9392,-0.9606,-0.995,-0.9457,0.0,0.0,0.0,0.0,0.0,0.0,-1.1136,-1.1583,0.0,0.0,-1.5249,0.0,0.0,-1.821,-1.8905,0.0,-1.9439,-1.9439,-1.9693,-1.9867,-1.9867,-2.0094,-2.0167,-2.0167,-2.0167,-2.0167,-2.0167,-2.0167,-2.022,-2.0374,-2.0615,-2.0735,-2.0735,-2.0735,-2.0615,-2.0361,-2.0321,-2.016,-1.9933,0.0,-1.9706,-1.9439,-1.9439,-1.947,-1.943,-1.943,-1.943,-1.943,-1.943,-1.943,-1.943,-1.943,-1.943,-1.9323,-1.8957,-1.9552,-2.0426,-2.003,-2.0896,-2.1996,-2.1996,-2.1845,-2.1084,-1.8551,-1.774,-1.7582,-1.7582,-1.7582,-1.7435,-1.6887,-1.674,-1.654,-1.6005,-1.5858,-1.5784,-1.5784,-1.5784,-1.5784,-1.5784,-1.5784,-1.5784,-1.5784,-1.5784,-1.5784,-1.5784,-1.5784,-1.5784,-1.5784,-1.5784,-1.5784,-1.5784,-1.5784,-1.5343,-1.422,-1.5248,-1.5296,-1.422,-1.4172,-1.4172,-1.4172,-1.3065,-1.2387,-1.2183,-1.1121,-1.0386,-0.9299,-0.9953,-1.0354,-0.9686,-1.0408,-1.1182,-1.0755,-1.0648,0.0,0.0,0.0,0.0,0.0,0.0,-1.2841,-1.4376,0.0,-1.6126,-1.7435,-1.7849,-1.8317,0.0,0.0,-1.943,-1.943,-1.9492,-1.9559,-1.9559,-1.9693,-1.976,-1.976,-1.976,-1.976,-1.976,-1.976,-1.984,-2.0,-2.0134,-2.0281,-2.0441,-2.0441,-2.0361,-2.0227,-2.0067,-1.992,-1.9786,0.0,-1.9492,-1.943,-1.943,-1.943,-1.943,-1.943,-1.943,-1.943,-1.943,-1.943,-1.943,-1.943,-1.943,-1.9292,-1.8865,-1.9042,-1.9303,-1.8854,-1.9568,-2.0385,-1.9664,-2.0025,-2.0282,-1.902,-1.8146,-1.7582,-1.7582,-1.7582,-1.7462,-1.7034,-1.682,-1.658,-1.6152,-1.5939,-1.5784,-1.5784,-1.5784,-1.5784,-1.5784,-1.5784,-1.5784,-1.5784,-1.5784,-1.5784,-1.5784,-1.5784,-1.5784,-1.5784,-1.5784,-1.5784,-1.5784,-1.5784,-1.5248,-1.3968,-1.5092,-1.4854,-1.2861,-1.3536,-1.3536,-1.2813,-1.2183,-1.156,-1.0877,-1.0288,-0.9608,-0.9165,-0.9713,-1.0247,-1.0363,-1.1223,-1.1984,-1.1971,-1.1744,-1.1597,0.0,0.0,0.0,0.0,-1.3013,0.0,-1.5685,-1.6179,-1.6754,-1.7862,-1.8103,-1.845,-1.9279,-1.943,-1.943,-1.943,-1.943,-1.943,-1.943,-1.943,-1.943,-1.943,-1.943,-1.943,-1.943,-1.943,-1.9479,-1.9693,-1.9693,-1.984,-2.0134,-2.0134,-2.0094,-2.0027,-1.98,-1.9693,-1.9679,-1.9466,-1.943,-1.943,-1.943,-1.943,-1.943,-1.943,-1.943,-1.943,-1.943,-1.943,-1.943,-1.943,-1.943,-1.9319,-1.9025,-1.8731,-1.8437,-1.8075,-1.8501,-1.8916,-1.7884,-1.8356,-1.9124,-1.9124,-1.8356,-1.7582,-1.7582,-1.7582,-1.7554,-1.7259,-1.7018,-1.6727,-1.6433,-1.6139,-1.5939,-1.5939,-1.5872,-1.5784,-1.5784,-1.5784,-1.5784,-1.5784,-1.5784,-1.5784,-1.5784,-1.5784,-1.5784,-1.5784,-1.5784,-1.5676,-1.5391,-1.5343,-1.4806,-1.3488,-1.4364,-1.3932,-1.195,-1.2619,-1.2619,-1.1901,-1.1317,-1.0485,-0.9509,-0.9509,-0.8973,-1.0238,-1.0506,-1.0693,-1.1162,-1.1209,-1.1289,-1.2091,-1.2051,0.0,-1.2906,0.0,0.0,0.0,-1.4242,-1.5196,-1.6086,-1.6486,-1.6994,-1.7862,0.0,-1.8691,-1.935,-1.943,-1.943,-1.943,-1.943,-1.943,-1.943,-1.943,-1.943,-1.943,-1.943,-1.943,-1.943,-1.943,-1.943,-1.9457,-1.9457,-1.9546,-1.9826,-1.9826,-1.9693,-1.9484,-1.947,-1.9457,-1.9457,-1.943,-1.943,-1.943,-1.943,-1.943,-1.943,-1.943,-1.943,-1.943,-1.943,-1.943,-1.943,-1.943,-1.943,-1.9319,-1.9025,-1.8731,-1.8437,-1.8075,-1.7876,-1.774,-1.7635,-1.7687,-1.774,-1.774,-1.7687,-1.7582,-1.7582,-1.7582,-1.7554,-1.7259,-1.7179,-1.7085,-1.6727,-1.6433,-1.6246,-1.6246,-1.6005,-1.5784,-1.5784,-1.5784,-1.5784,-1.5784,-1.5784,-1.5784,-1.5784,-1.5784,-1.5784,-1.5784,-1.5784,-1.5296,-1.4112,-1.4016,-1.344,-1.2096,-1.2145,-1.2096,-1.1901,-1.0828,-1.0828,-1.1901,-0.946,-0.8237,-0.8137,-0.8137,-0.8088,-0.9379,-1.0037,-1.0693,-1.1062,-1.1476,0.0,0.0,-1.3066,-1.3494,-1.4162,-1.4295,0.0,0.0,0.0,-1.5725,-1.6433,-1.6794,-1.7235,-1.7889,-1.8089,-1.8437,-1.9025,-1.9092,-1.9158,-1.9403,-1.943,-1.943,-1.943,-1.943,-1.943,-1.943,-1.943,-1.943,-1.943,-1.943,-1.943,-1.943,-1.943,-1.9426,-1.9533,-1.9533,-1.9466,-1.943,-1.943,-1.943,-1.943,-1.943,-1.943,-1.943,-1.943,-1.943,-1.943,-1.943,-1.943,-1.943,-1.943,-1.943,-1.943,-1.943,-1.943,-1.9319,-1.9025,-1.8731,-1.8437,-1.8075,-1.7822,-1.7793,-1.8603,-1.8864,-1.8655,-1.7845,-1.7582,-1.7582,-1.7582,-1.7582,-1.7555,-1.7487,-1.7326,-1.7166,-1.7058,-1.674,-1.654,-1.654,-1.6299,-1.6112,-1.6112,-1.5952,-1.5784,-1.5784,-1.5784,-1.5784,-1.5784,-1.5784,-1.5784,-1.5784,-1.5045,-1.4411,-1.392,-1.392,-1.2958,-1.0828,-1.1463,-1.1512,-1.073,-1.0248,-1.0239,-1.073,-0.8874,-0.7988,-0.7988,-0.7988,-0.7988,-0.9085,-0.974,-1.0546,-1.0902,0.0,0.0,-1.3307,-1.3801,-1.4362,-1.5357,-1.5491,-1.5477,-1.5631,0.0,0.0,0.0,-1.6954,-1.7407,-1.7902,-1.7995,-1.8169,-1.8731,-1.8784,-1.8865,-1.9065,-1.9149,-1.9132,-1.9225,-1.9225,-1.9265,-1.9359,-1.943,-1.943,-1.943,-1.943,-1.943,-1.943,-1.943,-1.943,-1.943,-1.943,-1.943,-1.943,-1.943,-1.943,-1.943,-1.943,-1.943,-1.943,-1.943,-1.943,-1.943,-1.943,-1.943,-1.943,-1.943,-1.943,-1.943,-1.943,-1.943,-1.9319,-1.9025,-1.8731,-1.8437,-1.8075,-1.8089,-1.8394,-1.9317,-1.9937,-2.0025,-1.9109,-1.8551,-1.8251,-1.8251,-1.7884,-1.774,-1.8146,-1.7735,-1.734,-1.734,-1.7048,-1.6847,-1.6847,-1.6607,-1.638,-1.6286,-1.6099,-1.5939,-1.5798,-1.5784,-1.5784,-1.5784,-1.5784,-1.5784,-1.5784,-1.4603,-1.3728,-1.3295,-1.2909,-1.1891,-1.0043,-1.0828,-1.1072,-1.0632,-1.019,-1.019,-1.0583,-0.8874,-0.7988,-0.7988,-0.7988,-0.8015,-0.9715,-0.99,-1.023,0.0,0.0,0.0,-1.3828,-1.4095,-1.4589,-1.6339,-1.6473,-1.6273,-1.6321,-1.6273,0.0,-1.666,-1.6954,-1.7407,-1.7902,-1.7995,-1.8102,-1.845,-1.849,-1.849,-1.849,-1.849,-1.8611,-1.8905,-1.8918,-1.9052,-1.9345,-1.9417,-1.9417,-1.9417,-1.9417,-1.9417,-1.943,-1.943,-1.943,-1.943,-1.943,-1.943,-1.943,-1.943,-1.943,-1.943,-1.943,-1.943,-1.943,-1.943,-1.943,-1.943,-1.943,-1.943,-1.943,-1.943,-1.943,-1.943,-1.943,-1.9417,-1.9319,-1.9011,-1.8718,-1.8437,-1.8075,-1.8766,-1.9576,-1.9627,-2.0641,-2.1693,-2.1693,-2.0692,-1.9627,-1.9627,-1.8603,-1.7989,-1.9317,-1.8551,-1.7635,-1.7582,-1.7407,-1.7206,-1.7206,-1.6901,-1.6607,-1.6375,-1.6335,-1.6166,-1.5872,-1.5784,-1.5784,-1.5784,-1.5784,-1.5784,-1.5784,-1.4603,-1.3295,-1.195,-1.0681,-0.9993,-0.9993,-1.0002,-1.0583,-1.1901,-1.0681,-1.0632,-1.1901,-0.9312,-0.7988,-0.7988,-0.7988,-0.8126,-0.9404,-1.0033,0.0,-1.1463,0.0,0.0,0.0,-1.5003,0.0,0.0,-1.6633,-1.6513,-1.6313,-1.6433,0.0,-1.6687,-1.6954,-1.734,-1.7662,-1.7716,-1.7836,-1.8089,-1.8129,-1.8263,-1.8477,-1.849,-1.8531,-1.8611,-1.8624,-1.8651,-1.8744,-1.8744,-1.8838,-1.9052,-1.9052,-1.9158,-1.9417,-1.943,-1.943,-1.943,-1.943,-1.943,-1.943,-1.943,-1.943,-1.943,-1.943,-1.943,-1.943,-1.943,-1.943,-1.943,-1.943,-1.943,-1.943,-1.943,-1.943,-1.943,-1.943,-1.9225,-1.9011,-1.8718,-1.8424,-1.8062,-1.7809,-1.8583,-1.9834,-2.0794,-2.2064,-2.3135,-2.3135,-2.2818,-2.2265,-2.1304,-2.0778,-2.0333,-1.9731,-1.9265,-1.8708,-1.7793,-1.7515,-1.7501,-1.7501,-1.7259,-1.7032,-1.6951,-1.6714,-1.6473,-1.6179,-1.6139,-1.6059,-1.5845,-1.5784,-1.5439,-1.4555,-1.3247,-1.194,-1.0632,-0.9312,-0.8577,-0.8577,-0.9509,-1.0583,-1.1901,-1.1512,-1.1512,-1.1901,-1.0239,-0.8924,-0.7988,-0.7988,-0.8126,-1.0003,-1.0715,0.0,-1.2371,-1.3427,-1.4522,-1.5511,0.0,0.0,0.0,-1.6887,-1.6834,-1.6697,-1.6817,0.0,-1.6887,-1.7179,-1.7434,-1.7555,-1.7582,-1.7649,-1.7836,-1.7862,-1.7929,-1.8116,-1.813,-1.8183,-1.8303,-1.8317,-1.837,-1.8477,-1.849,-1.8571,-1.8744,-1.8744,-1.8838,-1.9011,-1.9132,-1.9185,-1.9185,-1.9185,-1.9185,-1.9199,-1.9319,-1.943,-1.943,-1.943,-1.943,-1.943,-1.943,-1.943,-1.943,-1.943,-1.943,-1.943,-1.943,-1.9292,-1.9185,-1.9185,-1.8998,-1.8704,-1.841,-1.8142,-1.7942,-1.7675,-1.8916,-2.059,-2.144,-2.3067,-2.451,-2.451,-2.451,-2.4146,-2.2818,-2.2114,-2.144,-2.0641,-1.9973,-1.9213,-1.7832,-1.7582,-1.7582,-1.7582,-1.7487,-1.734,-1.7219,-1.6901,-1.6647,-1.6473,-1.6446,-1.638,-1.6192,-1.568,-1.5034,-1.4239,-1.2401,-1.0966,-1.0213,-0.8917,-0.8461,-0.9062,-1.0169,-1.1121,-1.1901,-1.1901,-1.1901,-1.1901,-1.0092,-0.8812,-0.8133,-0.8133,-0.8241,-1.1049,0.0,0.0,-1.3333,-1.4119,0.0,-1.6019,-1.6737,-1.7125,-1.7152,0.0,-1.7166,-1.7166,-1.7179,-1.7206,-1.7206,-1.7447,-1.7582,-1.7582,-1.7582,-1.7582,-1.7582,-1.7582,-1.7582,-1.7582,-1.7582,-1.7702,-1.7929,-1.7955,-1.8116,-1.8397,-1.841,-1.8424,-1.845,-1.845,-1.8464,-1.849,-1.8758,-1.8878,-1.8878,-1.8878,-1.8878,-1.8891,-1.9158,-1.935,-1.935,-1.935,-1.935,-1.935,-1.935,-1.935,-1.935,-1.935,-1.935,-1.935,-1.935,-1.9118,-1.8878,-1.8878,-1.8691,-1.841,-1.8075,-1.7969,-1.7902,-1.7662,-1.9524,-2.1693,-2.1693,-2.3633,-2.5693,-2.5693,-2.5693,-2.5382,-2.4146,-2.2868,-2.1845,-2.1744,-2.059,-1.9213,-1.7832,-1.7582,-1.7582,-1.7582,-1.7582,-1.7541,-1.7286,-1.6954,-1.678,-1.6754,-1.674,-1.674,-1.6714,-1.5418,-1.4558,-1.4445,-1.1929,-1.0335,-1.0231,-0.9153,-0.9153,-1.0647,-1.1516,-1.2011,-1.2147,-1.2157,-1.206,-1.1962,-0.9458,-0.8254,-0.834,-0.834,-0.8438,-1.0621,-1.1337,0.0,0.0,-1.4776,-1.5671,-1.6166,-1.6415,-1.6526,-1.6754,-1.6807,-1.6807,-1.6807,-1.7045,-1.7206,-1.7206,-1.7447,-1.7582,-1.7582,-1.7582,-1.7582,-1.7582,-1.7582,-1.7582,-1.7582,-1.7582,-1.7609,-1.7675,-1.7689,-1.7716,-1.7769,-1.7782,-1.7889,-1.8075,-1.8089,-1.825,-1.849,-1.8557,-1.8584,-1.8584,-1.8584,-1.8584,-1.8584,-1.8651,-1.8677,-1.8677,-1.8677,-1.8677,-1.8677,-1.8677,-1.8677,-1.8677,-1.8677,-1.8677,-1.8677,-1.8677,-1.8637,-1.8584,-1.8584,-1.8384,-1.8075,-1.8009,-1.7876,-1.7662,-1.7609,-1.9524,-2.1693,-2.1693,-2.3633,-2.5693,-2.5693,-2.5693,-2.5645,-2.5333,-2.4245,-2.2968,-2.1963,-2.059,-1.9213,-1.7832,-1.7582,-1.7582,-1.7582,-1.7582,-1.7555,-1.7502,-1.7435,-1.7315,-1.7139,-1.7099,-1.7018,-1.6727,-1.5418,-1.4191,-1.3109,-1.1414,-0.998,-0.8951,-0.8636,-0.9153,-1.0647,-1.1843,-1.3013,-1.4132,-1.4032,-1.3467,-1.2456,-1.0732,-0.9375,-0.8438,-0.8438,-0.8533,-1.0988,0.0,0.0,-1.4522,0.0,-1.5872,-1.6019,-1.6059,-1.6099,-1.6259,-1.6513,-1.67,-1.67,-1.6834,-1.6941,-1.6941,-1.7061,-1.7208,-1.7407,-1.7434,-1.7474,-1.7569,-1.7582,-1.7582,-1.7582,-1.7582,-1.7582,-1.7582,-1.7582,-1.7582,-1.7582,-1.7582,-1.7662,-1.7822,-1.7822,-1.7903,-1.805,-1.821,-1.8277,-1.8277,-1.8277,-1.8196,-1.8063,-1.8357,-1.849,-1.849,-1.849,-1.849,-1.849,-1.849,-1.849,-1.849,-1.849,-1.849,-1.849,-1.849,-1.8397,-1.8277,-1.8277,-1.8076,-1.7822,-1.7822,-1.7716,-1.774,-1.8356,-1.9576,-2.0998,-2.2316,-2.3633,-2.4922,-2.5528,-2.5693,-2.5693,-2.5693,-2.5167,-2.4097,-2.2114,-2.1135,-2.0025,-1.7989,-1.7582,-1.7582,-1.7582,-1.7582,-1.7582,-1.7582,-1.7582,-1.7528,-1.7434,-1.7407,-1.7301,-1.7141,-1.5231,-1.3708,-1.2963,-1.092,-0.9387,-0.875,-0.8703,-0.9333,-1.0814,-1.1548,-1.2454,-1.3722,-1.2956,-1.2186,-1.1517,-1.0188,-0.9197,-0.8587,-0.8587,-0.8676,-1.1243,0.0,-1.3681,-1.5337,-1.5792,0.0,-1.5784,-1.5784,-1.5784,-1.5784,-1.6219,-1.6567,-1.662,-1.6633,-1.6647,-1.67,-1.67,-1.6794,-1.7085,-1.7125,-1.7219,-1.7408,-1.7435,-1.7435,-1.7435,-1.7475,-1.7502,-1.7502,-1.7555,-1.7582,-1.7582,-1.7582,-1.7582,-1.7582,-1.7582,-1.7582,-1.7582,-1.7836,-1.7916,-1.7916,-1.7916,-1.7836,-1.7595,-1.8103,-1.833,-1.833,-1.833,-1.833,-1.833,-1.833,-1.833,-1.833,-1.833,-1.833,-1.833,-1.833,-1.8183,-1.7916,-1.7916,-1.7796,-1.7582,-1.7582,-1.7582,-1.7793,-1.8916,-1.942,-2.0143,-2.2667,-2.3534,-2.3998,-2.5333,-2.5693,-2.5693,-2.5693,-2.5528,-2.4658,-2.2215,-2.1491,-2.059,-1.8094,-1.7582,-1.7582,-1.7582,-1.7582,-1.7582,-1.7582,-1.7582,-1.7582,-1.7582,-1.7582,-1.7582,-1.7582,-1.5263,-1.3534,-1.3318,-1.0836,-0.9154,-0.894,-0.8885,-0.9533,-1.1055,-1.0836,-1.1227,-1.2304,-1.1159,-1.054,-1.054,-0.9188,-0.8628,-0.875,-0.875,-0.8818,0.0,0.0,-1.384,0.0,-1.5645,-1.5784,0.0,0.0,-1.5784,0.0,-1.5838,-1.6019,-1.6286,-1.6326,-1.642,-1.666,-1.67,-1.6727,-1.6767,-1.6767,-1.678,-1.682,-1.682,-1.682,-1.682,-1.7061,-1.7259,-1.7259,-1.7487,-1.7582,-1.7582,-1.7582,-1.7582,-1.7582,-1.7582,-1.7582,-1.7582,-1.7622,-1.7649,-1.7649,-1.7649,-1.7622,-1.7582,-1.7662,-1.7702,-1.7702,-1.7702,-1.7702,-1.7702,-1.7702,-1.7702,-1.7702,-1.7702,-1.7702,-1.7702,-1.7702,-1.7675,-1.7649,-1.7649,-1.7622,-1.7582,-1.7582,-1.7582,-1.7635,-1.7779,-1.8655,-1.9937,-2.1491,-2.2818,-2.3998,-2.5333,-2.5693,-2.5693,-2.5693,-2.4805,-2.3534,-2.2047,-2.0743,-1.942,-1.7898,-1.7582,-1.7582,-1.7582,-1.7582,-1.7582,-1.7582,-1.7582,-1.7582,-1.7582,-1.7582,-1.7582,-1.7582,-1.6115,-1.4609,-1.3372,-1.1755,-1.0241,-0.8995,-0.8885,-0.9533,-1.1055,-0.9864,-0.9841,-1.125,-1.1088,-1.1033,-1.0979,-0.9578,-0.8831,-0.8851,-0.8851,-0.8865,-1.0915,-1.2345,-1.368,0.0,-1.5498,-1.5631,-1.5792,0.0,-1.5784,-1.5784,-1.5784,-1.5872,-1.6005,-1.6019,-1.6059,-1.6192,-1.6219,-1.6273,-1.6433,-1.646,-1.6526,-1.6687,-1.67,-1.67,-1.67,-1.682,-1.6901,-1.6901,-1.7219,-1.7393,-1.7393,-1.7502,-1.7582,-1.7582,-1.7582,-1.7582,-1.7582,-1.7582,-1.7582,-1.7582,-1.7582,-1.7582,-1.7582,-1.7582,-1.7582,-1.7582,-1.7582,-1.7582,-1.7582,-1.7582,-1.7582,-1.7582,-1.7582,-1.7582,-1.7582,-1.7582,-1.7582,-1.7582,-1.7582,-1.7582,-1.7582,-1.7582,-1.7582,-1.774,-1.8499,-1.8603,-1.9109,-2.2013,-2.2717,-2.3067,-2.5167,-2.5693,-2.5693,-2.5693,-2.4658,-2.3335,-2.1996,-2.059,-1.9213,-1.7832,-1.7582,-1.7582,-1.7582,-1.7582,-1.7582,-1.7582,-1.7582,-1.7582,-1.7582,-1.7582,-1.7582,-1.7582,-1.6287,-1.5144,-1.4556,-1.2398,-1.0836,-1.0186,-0.9375,-0.921,-0.9864,-0.9265,-0.921,-0.9864,-0.9864,-0.9864,-0.9864,-0.921,-0.8885,-0.8885,-0.8885,-0.8885,-1.1076,-1.2078,-1.2906,-1.4456,-1.495,-1.5177,0.0,0.0,-1.5738,0.0,-1.5784,-1.5784,-1.5784,-1.5784,-1.5784,-1.5784,-1.5784,-1.5912,-1.6126,-1.6166,-1.6246,-1.646,-1.6486,-1.6486,-1.6486,-1.6553,-1.6593,-1.6593,-1.6874,-1.7085,-1.7085,-1.7235,-1.7395,-1.7527,-1.7475,-1.7502,-1.7582,-1.7582,-1.7582,-1.7582,-1.7582,-1.7582,-1.7582,-1.7582,-1.7582,-1.7582,-1.7582,-1.7582,-1.7582,-1.7582,-1.7582,-1.7582,-1.7582,-1.7582,-1.7582,-1.7582,-1.7582,-1.7582,-1.7582,-1.7582,-1.7582,-1.7582,-1.7582,-1.7793,-1.8812,-1.8394,-1.8394,-2.2165,-2.2466,-2.2316,-2.502,-2.5693,-2.5693,-2.5693,-2.4412,-2.2818,-2.1456,-2.0076,-1.8812,-1.7793,-1.7582,-1.7582,-1.7582,-1.7582,-1.7582,-1.7582,-1.7582,-1.7582,-1.7582,-1.7582,-1.7582,-1.7582,-1.6605,-1.5796,-1.5411,-1.3102,-1.1483,-1.1109,-0.9699,-0.8885,-0.8885,-0.8885,-0.8885,-0.8885,-0.8885,-0.8885,-0.8885,-0.8885,-0.8885,-0.8885,-0.8885,-0.8885,-0.9486,-1.0278,-1.1149,-1.2879,-1.3748,0.0,0.0,0.0,0.0,-1.5765,-1.5784,-1.5784,-1.5784,-1.5784,-1.5784,-1.5784,-1.5784,-1.5832,-1.5798,-1.5845,-1.5811,-1.5872,-1.5872,-1.5872,-1.5872,-1.6126,-1.6348,-1.6348,-1.6567,-1.6727,-1.6727,-1.674,-1.6874,-1.7219,-1.7219,-1.7353,-1.7582,-1.7582,-1.7582,-1.7582,-1.7582,-1.7582,-1.7582,-1.7582,-1.7582,-1.7582,-1.7582,-1.7582,-1.7582,-1.7582,-1.7582,-1.7582,-1.7582,-1.7582,-1.7582,-1.7582,-1.7582,-1.7582,-1.7582,-1.7582,-1.7582,-1.7582,-1.7582,-1.7635,-1.7687,-1.7635,-1.8199,-2.0982,-2.1744,-2.2316,-2.502,-2.5693,-2.5693,-2.5693,-2.3683,-2.1405,-2.0025,-1.8655,-1.7687,-1.7635,-1.7582,-1.7582,-1.7582,-1.7582,-1.7582,-1.7582,-1.7582,-1.7582,-1.7582,-1.7582,-1.7582,-1.7582,-1.7529,-1.6935,-1.553,-1.4019,-1.2561,-1.1219,-0.9699,-0.8885,-0.8885,-0.8885,-0.8885,-0.8885,-0.8885,-0.8885,-0.8885,-0.8885,-0.8885,-0.8885,-0.8885,-0.8885,-0.9151,-0.9967,0.0,-1.181,-1.2799,-1.3654,-1.4119,-1.4856,-1.5431,-1.5524,-1.5698,-1.5784,-1.5784,-1.5784,-1.5784,-1.5784,-1.5784,-1.5784,-1.5784,-1.5784,-1.5784,-1.5784,-1.5784,-1.5784,-1.5784,-1.5925,-1.5992,-1.5992,-1.6259,-1.6433,-1.6433,-1.6607,-1.6754,-1.686,-1.686,-1.7007,-1.7353,-1.7353,-1.7447,-1.7582,-1.7582,-1.7582,-1.7582,-1.7582,-1.7582,-1.7582,-1.7582,-1.7582,-1.7582,-1.7582,-1.7582,-1.7582,-1.7582,-1.7582,-1.7582,-1.7582,-1.7582,-1.7582,-1.7582,-1.7582,-1.7582,-1.7582,-1.7582,-1.7582,-1.7582,-1.7582,-1.7989,-1.9834,-2.0333,-2.0794,-2.2667,-2.3135,-2.2918,-2.2013,-2.1049,-1.9973,-1.8603,-1.7937,-1.7582,-1.7582,-1.7582,-1.7582,-1.7582,-1.7582,-1.7582,-1.7582,-1.7582,-1.7582,-1.7582,-1.7582,-1.7252,-1.6287,-1.7041,-1.6988,-1.553,-1.4126,-1.3048,-1.2571,-1.0241,-0.8885,-0.8885,-0.8885,-0.8885,-0.8885,-0.8885,-0.8885,-0.8885,-0.8885,-0.8885,-0.8885,-0.8885,-0.8885,-0.8645,-0.9379,0.0,0.0,0.0,-1.2585,-1.3561,0.0,-1.4776,-1.5164,-1.5484,-1.5712,-1.5758,-1.5784,-1.5784,-1.5784,-1.5784,-1.5784,-1.5784,-1.5784,-1.5784,-1.5784,-1.5784,-1.5784,-1.5784,-1.5784,-1.5784,-1.5784,-1.6019,0.0,-1.6126,-1.6299,-1.646,-1.6553,-1.666,-1.6807,-1.7045,-1.7058,-1.7101,-1.7288,-1.7395,-1.7487,-1.7487,-1.7542,-1.7582,-1.7582,-1.7582,-1.7582,-1.7582,-1.7582,-1.7582,-1.7582,-1.7582,-1.7582,-1.7582,-1.7582,-1.7582,-1.7582,-1.7582,-1.7582,-1.7582,-1.7582,-1.7582,-1.7582,-1.7582,-1.7582,-1.7884,-1.9213,-1.9576,-1.9937,-2.1338,-2.1693,-2.1355,-1.9937,-1.9576,-1.9228,-1.7884,-1.7582,-1.7582,-1.7582,-1.7582,-1.7582,-1.7582,-1.7582,-1.7582,-1.7582,-1.7582,-1.7582,-1.7582,-1.7582,-1.7199,-1.6221,-1.6552,-1.6658,-1.6168,-1.3965,-1.2778,-1.3264,-1.0515,-0.8885,-0.8885,-0.8885,-0.8885,-0.8885,-0.8885,-0.8885,-0.8885,-0.8885,-0.8885,-0.8885,-0.8885,-0.8885,0.0,0.0,0.0,0.0,0.0,0.0,-1.344,0.0,-1.3507,-1.4713,-1.5137,-1.5444,-1.5704,-1.5758,-1.5771,-1.5771,-1.5771,-1.5784,-1.5784,-1.5784,-1.5784,-1.5784,-1.5784,-1.5784,-1.5784,-1.5784,-1.5784,-1.5784,-1.5784,-1.5784,-1.5784,-1.5784,-1.5965,-1.6246,-1.6526,-1.6687,-1.6687,-1.6687,-1.67,-1.6714,-1.7045,-1.7192,-1.7192,-1.7487,-1.7569,-1.7569,-1.7582,-1.7582,-1.7582,-1.7582,-1.7582,-1.7582,-1.7582,-1.7582,-1.7582,-1.7582,-1.7582,-1.7582,-1.7582,-1.7582,-1.7582,-1.7582,-1.7582,-1.7582,-1.7582,-1.7582,-1.7898,-1.9161,-1.9524,-1.9886,-2.1237,-2.1592,-2.1237,-1.9886,-1.9524,-1.9176,-1.7884,-1.7582,-1.7582,-1.7582,-1.7582,-1.7582,-1.7582,-1.7582,-1.7582,-1.7582,-1.7582,-1.7582,-1.7595,-1.7595,-1.7595,-1.7556,-1.6311,-1.598,-1.7384,-1.3555,-1.1719,-1.3176,-1.0531,-0.8898,-0.8898,-0.8892,-0.8892,-0.8892,-0.8885,-0.894,-0.8995,-0.8995,-0.8995,-0.8995,-0.8995,-0.894,-0.7939,0.0,0.0,0.0,0.0,0.0,0.0,0.0,-1.2518,-1.3494,-1.3921,-1.4349,-1.507,-1.5378,-1.5511,-1.5511,-1.5698,-1.5784,-1.5784,-1.5784,-1.5784,-1.5784,-1.5784,-1.5784,-1.5784,-1.5784,-1.5784,0.0,-1.5784,-1.5784,-1.5784,-1.5784,-1.5824,-1.5952,-1.6032,-1.6179,-1.6393,-1.6393,-1.65,-1.67,-1.6794,-1.6834,-1.6834,-1.7192,-1.7326,-1.7326,-1.7541,-1.7582,-1.7582,-1.7582,-1.7582,-1.7582,-1.7582,-1.7582,-1.7582,-1.7582,-1.7582,-1.7582,-1.7582,-1.7582,-1.7582,-1.7582,-1.7582,-1.7582,-1.7582,-1.7582,-1.7687,-1.8042,-1.8146,-1.8251,-1.8655,-1.876,-1.8655,-1.8251,-1.8146,-1.8042,-1.7687,-1.7582,-1.7582,-1.7582,-1.7582,-1.7582,-1.7582,-1.7582,-1.7582,-1.7582,-1.7582,-1.7662,-1.7836,-1.7862,-1.7551,-1.6735,-1.6196,-1.5643,-1.4977,-1.273,-1.1555,-1.195,-1.0266,-0.9259,-0.9259,-0.915,-0.9096,-0.9096,-0.8994,-0.943,-1.0515,-1.0515,-1.0515,-1.0515,-1.0515,-0.9911,-0.8277,-0.8724,0.0,0.0,0.0,0.0,-1.0496,-1.1009,-1.1685,0.0,-1.3253,-1.3694,-1.4456,-1.483,-1.503,-1.503,-1.5378,-1.5698,-1.5758,-1.5784,-1.5784,-1.5784,-1.5784,-1.5784,-1.5784,-1.5784,-1.5784,-1.5784,-1.5784,-1.5784,-1.5784,-1.5784,-1.5784,-1.5784,-1.5784,-1.5912,-1.6086,-1.6086,-1.6166,-1.6339,-1.6473,-1.6526,-1.654,-1.6834,-1.7085,-1.7206,-1.738,-1.7527,-1.7582,-1.7582,-1.7582,-1.7582,-1.7582,-1.7582,-1.7582,-1.7582,-1.7582,-1.7582,-1.7582,-1.7582,-1.7582,-1.7582,-1.7582,-1.7582,-1.7582,-1.7582,-1.7582,-1.7582,-1.7582,-1.7582,-1.7582,-1.7582,-1.7582,-1.7582,-1.7582,-1.7582,-1.7582,-1.7582,-1.7582,-1.7582,-1.7582,-1.7622,-1.7756,-1.7769,-1.7822,-1.7943,-1.7956,-1.8023,-1.821,-1.8237,-1.7961,-1.7315,-1.659,-1.5794,-1.4893,-1.2851,-1.1602,-1.1478,-1.0178,-0.9381,-0.9381,-0.935,-0.9275,-0.9214,-0.9069,-1.0034,-1.2028,-1.1374,-1.1109,-1.1109,-1.1109,-1.0296,-0.8864,-0.9379,-0.9916,-1.0385,-0.994,0.0,-1.0843,-1.0808,-1.0908,0.0,-1.2679,-1.3053,-1.3681,-1.4055,-1.4269,-1.4229,-1.4803,-1.5378,-1.5725,-1.5758,-1.5784,-1.5784,-1.5784,-1.5784,-1.5784,-1.5784,-1.5784,-1.5784,-1.5784,-1.5784,-1.5784,-1.5784,-1.5784,-1.5784,-1.5784,-1.5784,-1.5784,-1.5784,-1.5784,-1.5784,-1.6099,-1.6219,-1.6233,-1.6526,-1.682,-1.7152,-1.7192,-1.7367,-1.7582,-1.7582,-1.7582,-1.7582,-1.7582,-1.7582,-1.7582,-1.7582,-1.7582,-1.7582,-1.7582,-1.7582,-1.7582,-1.7582,-1.7582,-1.7582,-1.7582,-1.7582,-1.7582,-1.7582,-1.7582,-1.7582,-1.7582,-1.7582,-1.7582,-1.7582,-1.7582,-1.7582,-1.7582,-1.7609,-1.7635,-1.7635,-1.7635,-1.7729,-1.7982,-1.8035,-1.8129,-1.845,-1.849,-1.8504,-1.8531,-1.8544,-1.8557,-1.8584,-1.7247,-1.6337,-1.6224,-1.3499,-1.1784,-1.1603,-1.0229,-0.9429,-0.9429,-0.9415,-0.934,-0.9262,-0.9504,-1.0858,-1.3305,-1.2146,-1.1483,-1.1319,-1.1319,-1.046,-1.0022,-1.0332,-1.0332,-0.997,-1.0261,0.0,-0.9526,-0.978,-1.0287,0.0,-1.0675,-1.0969,-1.1797,-1.2371,-1.2665,-1.2425,-1.348,-1.4616,-1.5378,-1.5685,-1.5784,-1.5784,-1.5784,-1.5784,-1.5784,-1.5784,-1.5784,-1.5784,-1.5784,-1.5784,-1.5784,-1.5784,-1.5784,-1.5784,-1.5784,-1.5784,-1.5784,-1.5784,-1.5784,-1.5784,-1.5885,-1.5912,-1.5925,-1.6219,-1.6513,-1.6807,-1.7099,-1.7367,-1.7582,-1.7582,-1.7582,-1.7582,-1.7582,-1.7582,-1.7582,-1.7582,-1.7582,-1.7582,-1.7582,-1.7582,-1.7582,-1.7582,-1.7582,-1.7582,-1.7582,-1.7582,-1.7582,-1.7582,-1.7582,-1.7582,-1.7582,-1.7582,-1.7582,-1.7582,-1.7582,-1.7582,-1.7582,-1.7782,-1.7902,-1.7902,-1.7902,-1.7995,-1.8357,-1.841,-1.8424,-1.8477,-1.849,-1.8571,-1.8811,-1.8838,-1.8931,-1.9229,-1.7819,-1.6879,-1.6821,-1.3937,-1.2107,-1.2047,-1.0568,-0.9734,-0.9734,-0.9625,-0.9551,-0.9523,-1.1597,-1.2913,-1.3482,-1.4223,-1.3965,-1.2886,-1.2886,-1.1428,-1.0705,-1.0908,-1.0915,-1.0621,-1.0555,0.0,0.0,-0.9686,-0.9817,-1.0434,-1.0327,-1.035,-1.1229,-1.1663,-1.1824,-1.1677,-1.2772,-1.3748,-1.407,-1.4843,-1.5391,-1.5391,-1.5391,-1.5458,-1.5605,-1.5618,-1.5671,-1.5771,-1.5784,-1.5784,-1.5784,-1.5784,-1.5784,-1.5784,-1.5784,-1.5784,-1.5784,-1.5784,-1.5784,-1.5784,-1.5784,-1.5784,-1.5832,-1.5979,-1.6206,-1.65,-1.6697,-1.7018,-1.742,-1.742,-1.7501,-1.7582,-1.7582,-1.7582,-1.7582,-1.7582,-1.7582,-1.7582,-1.7582,-1.7582,-1.7582,-1.7582,-1.7582,-1.7582,-1.7582,-1.7582,-1.7582,-1.7582,-1.7582,-1.7582,-1.7582,-1.7582,-1.7582,-1.7582,-1.7582,-1.7622,-1.7782,-1.7943,-1.8075,-1.8368,-1.8435,-1.8475,-1.8677,-1.8704,-1.8758,-1.8905,-1.8931,-1.8985,-1.9132,-1.9145,-1.9199,-1.9359,-1.8706,-1.7864,-1.7079,-1.5537,-1.4232,-1.3467,-1.1916,-1.102,-1.102,-1.0169,-0.968,-0.9612,-1.2289,-1.3714,-1.3714,-1.5099,-1.4909,-1.3264,-1.2571,-1.1,-1.1488,-1.1677,-1.17,-1.1217,0.0,-1.0523,0.0,0.0,0.0,-1.0408,-1.0194,0.0,0.0,0.0,0.0,0.0,0.0,0.0,0.0,-1.3507,0.0,-1.4646,-1.4767,-1.4928,-1.5124,-1.515,-1.5284,-1.5631,-1.5605,-1.5584,-1.5738,-1.5758,-1.5784,-1.5784,-1.5784,-1.5784,-1.5784,-1.5784,-1.5784,-1.5784,-1.5784,-1.5784,-1.5784,-1.5784,-1.5992,-1.6321,-1.6321,-1.663,-1.7125,-1.7179,-1.734,-1.7554,-1.7555,-1.7582,-1.7582,-1.7582,-1.7582,-1.7582,-1.7582,-1.7582,-1.7582,-1.7582,-1.7582,-1.7582,-1.7582,-1.7582,-1.7582,-1.7582,-1.7582,-1.7582,-1.7582,-1.7582,-1.7582,-1.7582,-1.7622,-1.7742,-1.7942,-1.8075,-1.8302,-1.8838,-1.8971,-1.9011,-1.9011,-1.9011,-1.9092,-1.939,-1.943,-1.943,-1.943,-1.943,-1.943,-1.943,-1.943,-1.8881,-1.756,-1.7208,-1.6433,-1.5133,-1.3287,-1.2217,-1.2217,-1.0657,-0.9768,-0.9652,-1.2441,-1.3935,-1.3935,-1.5084,-1.4922,-1.3396,-1.1891,-1.039,0.0,0.0,0.0,0.0,-1.1285,-1.1695,0.0,0.0,-0.9804,-0.9192,0.0,0.0,0.0,0.0,0.0,0.0,0.0,0.0,-1.0488,-1.145,-1.2556,-1.332,-1.3868,-1.4202,-1.4229,-1.4242,-1.4469,-1.5062,-1.4816,-1.4897,-1.5418,-1.5685,-1.5784,-1.5784,-1.5784,-1.5784,-1.5784,-1.5784,-1.5784,-1.5784,-1.5784,-1.5784,-1.5784,-1.5784,-1.5992,-1.6321,-1.6321,-1.646,-1.678,-1.7099,-1.7219,-1.7273,-1.7527,-1.7582,-1.7582,-1.7582,-1.7582,-1.7582,-1.7582,-1.7582,-1.7582,-1.7582,-1.7582,-1.7582,-1.7582,-1.7582,-1.7582,-1.7582,-1.7582,-1.7582,-1.7582,-1.7582,-1.7582,-1.7582,-1.7796,-1.7955,-1.7982,-1.8395,-1.8838,-1.8905,-1.9132,-1.9319,-1.9319,-1.9319,-1.939,-1.9359,-1.943,-1.943,-1.943,-1.943,-1.943,-1.943,-1.943,-1.9314,-1.9127,-1.7806,-1.6903,-1.6727,-1.3875,-1.2217,-1.2217,-1.0657,-0.9815,-0.9795,-1.2637,-1.4099,-1.4157,-1.4137,-1.4015,-1.3794,-1.2188,-1.0699,0.0,0.0,0.0,0.0,0.0,0.0,-0.9359,0.0,-0.9524,0.0,0.0,0.0,0.0,0.0,0.0,0.0,-0.983,0.0,0.0,0.0,-1.1404,0.0,0.0,0.0,-1.3293,-1.3467,-1.3828,-1.4416,-1.4175,-1.4349,-1.5156,-1.5418,-1.5658,-1.5784,-1.5784,-1.5784,-1.5784,-1.5784,-1.5784,-1.5784,-1.5784,-1.5784,-1.5784,-1.5784,-1.5899,-1.6019,-1.6019,-1.6179,-1.646,-1.6643,-1.6898,-1.7206,-1.734,-1.7435,-1.7582,-1.7582,-1.7582,-1.7582,-1.7582,-1.7582,-1.7582,-1.7582,-1.7582,-1.7582,-1.7582,-1.7582,-1.7582,-1.7582,-1.7582,-1.7582,-1.7582,-1.7582,-1.7622,-1.7809,-1.7902,-1.8089,-1.8422,-1.8744,-1.8971,-1.9145,-1.9279,-1.943,-1.943,-1.943,-1.943,-1.943,-1.943,-1.943,-1.943,-1.943,-1.943,-1.943,-1.943,-1.943,-1.943,-1.8765,-1.8402,-1.8402,-1.537,-1.2749,-1.0899,-1.0179,-0.9822,-0.9822,-1.1894,-1.3022,-1.3013,-1.2931,-1.2925,-1.2889,-1.1102,-0.9969,-1.0293,0.0,0.0,0.0,0.0,0.0,0.0,0.0,0.0,0.0,0.0,0.0,0.0,0.0,0.0,0.0,0.0,-0.9967,0.0,-0.9886,0.0,0.0,0.0,0.0,0.0,-1.2435,-1.2799,-1.3547,-1.332,-1.3614,-1.4713,-1.507,-1.5404,-1.5698,-1.5744,-1.5784,-1.5784,-1.5784,-1.5784,-1.5784,-1.5784,-1.5784,-1.5784,-1.5784,-1.5784,-1.5784,-1.5784,-1.5952,-1.6152,-1.6246,-1.6616,-1.7085,-1.7166,-1.738,-1.7582,-1.7582,-1.7582,-1.7582,-1.7582,-1.7582,-1.7582,-1.7582,-1.7582,-1.7582,-1.7582,-1.7582,-1.7582,-1.7582,-1.7582,-1.7609,-1.7689,-1.7716,-1.7782,-1.8103,-1.8169,-1.8355,-1.8838,-1.8985,-1.9105,-1.9332,-1.943,-1.943,-1.943,-1.943,-1.943,-1.943,-1.943,-1.943,-1.943,-1.943,-1.943,-1.943,-1.943,-1.943,-1.943,-1.943,-1.901,-1.811,-1.5913,-1.3168,-0.9943,-0.9822,-0.9822,-0.9822,-1.1374,-1.2192,-1.2175,-1.2218,-1.2218,-1.2183,-1.0354,-0.95,0.0,0.0,0.0,-0.9079,0.0,0.0,0.0,0.0,-1.0466,0.0,0.0,0.0,0.0,0.0,0.0,0.0,0.0,0.0,0.0,0.0,0.0,0.0,0.0,0.0,0.0,-1.0841,-1.1162,0.0,-1.2127,-1.261,-1.4041,-1.4713,-1.5156,-1.5404,-1.5685,-1.5784,-1.5784,-1.5784,-1.5784,-1.5784,-1.5784,-1.5784,-1.5784,-1.5784,-1.5784,-1.5784,-1.5784,-1.5832,-1.5824,-1.6152,-1.6446,-1.6754,-1.7085,-1.738,-1.7582,-1.7582,-1.7582,-1.7582,-1.7582,-1.7582,-1.7582,-1.7582,-1.7582,-1.7582,-1.7582,-1.7582,-1.7582,-1.7582,-1.7582,-1.7649,-1.7902,-1.7982,-1.8049,-1.841,-1.8691,-1.8905,-1.8918,-1.9145,-1.9417,-1.9417,-1.943,-1.943,-1.943,-1.943,-1.943,-1.943,-1.943,-1.943,-1.943,-1.943,-1.943,-1.943,-1.943,-1.943,-1.943,-1.943,-1.8052,-1.4966,-1.4658,-1.3168,-0.9943,-0.9822,-0.9822,-0.9822,-1.135,-1.2175,-1.2175,-1.2175,-1.2174,-1.2177,-1.0539,-0.9795,0.0,0.0,-0.8852,-0.8235,0.0,0.0,0.0,0.0,0.0,0.0,0.0,0.0,0.0,0.0,0.0,0.0,0.0,0.0,0.0,0.0,0.0,0.0,0.0,0.0,0.0,0.0,0.0,-1.1615,-1.1637,0.0,-1.368,-1.4349,-1.4897,-1.5378,-1.5671,-1.5784,-1.5784,-1.5784,-1.5784,-1.5784,-1.5784,-1.5784,-1.5784,-1.5784,-1.5784,-1.5784,-1.5784,-1.5784,-1.5784,-1.5939,-1.6259,-1.6714,-1.682,-1.7154,-1.7582,-1.7582,-1.7582,-1.7582,-1.7582,-1.7582,-1.7582,-1.7582,-1.7582,-1.7582,-1.7582,-1.7582,-1.7582,-1.7582,-1.7729,-1.7916,-1.7969,-1.8142,-1.841,-1.8704,-1.8851,-1.8985,-1.9172,-1.9292,-1.943,-1.943,-1.943,-1.943,-1.943,-1.943,-1.943,-1.943,-1.943,-1.943,-1.943,-1.943,-1.943,-1.943,-1.943,-1.943,-1.943,-1.943,-1.8052,-1.4777,-1.4599,-1.3168,-0.9943,-0.9822,-0.9822,-0.9822,-1.0354,-1.0589,-1.0589,-1.0635,-1.059,-1.0606,-1.0023,-0.9822,-0.7712,-0.774,0.0,-0.7839,-0.781,0.0,-0.782,0.0,-0.8765,0.0,0.0,0.0,0.0,0.0,0.0,0.0,0.0,0.0,0.0,-0.8509,0.0,0.0,0.0,0.0,0.0,0.0,-0.9953,-1.1035,-1.1022,0.0,0.0,-1.3786,-1.4482,-1.507,-1.5471,-1.5678,-1.5784,-1.5784,-1.5784,-1.5784,-1.5784,-1.5784,-1.5784,-1.5784,-1.5784,-1.5784,-1.5784,-1.5784,-1.5784,-1.5784,-1.6112,-1.6567,-1.666,-1.7007,-1.7487,-1.7542,-1.7582,-1.7582,-1.7582,-1.7582,-1.7582,-1.7582,-1.7582,-1.7582,-1.7582,-1.7582,-1.7609,-1.7716,-1.7889,-1.8035,-1.8249,-1.8504,-1.8718,-1.9011,-1.9078,-1.9132,-1.9332,-1.943,-1.943,-1.943,-1.943,-1.943,-1.943,-1.943,-1.943,-1.943,-1.943,-1.943,-1.943,-1.943,-1.943,-1.943,-1.943,-1.943,-1.943,-1.8881,-1.7396,-1.4777,-1.4063,-1.2569,-0.9883,-0.9822,-0.9822,-0.9822,-0.9822,-0.9822,-0.9822,-0.9822,-0.9822,-0.9822,-0.9822,-0.9822]}]]